[[{"header":{"parameterUnit":"m.s-1","parameterCategory":1,"la1":31.0,"la2":29.5877,"lo1":-88.7671,"lo2":-86.6584,"dy":0.0162,"dx":0.0185,"nx":115,"ny":88,"refTime":"2023-11-01T12:00:00:Z","depth":0,"parameterNumber":2,"parameterNumberName":"U-component_of_WINDS"},"data":[0.0,0.0,0.0,0.0,0.0,0.0,0.0,0.0,0.0,0.0,0.0,0.0,0.0,0.0,0.0,0.0,0.0,0.0,0.0,0.0,0.0,0.0,0.0,0.0,0.0,0.0,0.0,0.0,0.0,0.0,0.0,0.0,0.0,0.0,0.0,0.0,0.0,0.0,0.0,0.0,0.0,0.0,0.0,0.0,0.0,0.0,0.0,0.0,0.0,0.0,0.0,0.0,0.0,0.0,0.0,0.0,0.0,0.0,0.0,0.0,0.0,0.0,0.0,0.0,0.0,0.0,0.0,0.0,0.0,0.0,0.0,0.0,0.0,0.0,0.0,0.0,0.0,0.0,0.0,0.0,0.0,0.0,0.0,0.0,0.0,0.0,0.0,0.0,0.0,0.0,0.0,0.0,0.0,0.0,0.0,0.0,0.0,0.0,0.0,0.0,0.0,0.0,0.0,0.0,0.0,0.0,0.0,0.0,0.0,0.0,0.0,0.0,0.0,0.0,0.0,0.0,0.0,0.0,0.0,0.0,0.0,0.0,0.0,0.0,0.0,0.0,0.0,0.0,0.0,0.0,0.0,0.0,0.0,0.0,0.0,0.0,0.0,0.0,0.0,0.0,0.0,0.0,0.0,0.0,0.0,0.0,0.0,0.0,0.0,0.0,0.0,0.0,0.0,0.0,0.0,0.0,0.0,0.0,0.0,0.0,0.0,0.0,0.0,0.0,0.0,0.0,0.0,0.0,0.0,0.0,0.0,0.0,0.0,0.0,0.0,0.0,0.0,0.0,0.0,0.0,0.0,0.0,0.0,0.0,0.0,0.0,0.0,0.0,0.0,0.0,0.0,0.0,0.0,0.0,0.0,0.0,0.0,0.0,0.0,0.0,0.0,0.0,0.0,0.0,0.0,0.0,0.0,0.0,0.0,0.0,0.0,0.0,0.0,0.0,0.0,0.0,0.0,0.0,0.0,0.0,0.0,0.0,0.0,0.0,0.0,0.0,0.0,0.0,0.0,0.0,0.0,0.0,0.0,0.0,0.0,0.0,0.0,0.0,0.0,0.0,0.0,0.0,0.0,0.0,0.0,0.0,0.0,0.0,0.0,0.0,0.0,0.0,0.0,0.0,0.0,0.0,0.0,0.0,0.0,0.0,0.0,0.0,0.0,0.0,0.0,0.0,0.0,0.0,0.0,0.0,0.0,0.0,0.0,0.0,0.0,0.0,0.0,0.0,0.0,0.0,0.0,0.0,0.0,0.0,0.0,0.0,0.0,0.0,0.0,0.0,0.0,0.0,0.0,0.0,0.0,0.0,0.0,0.0,0.0,0.0,0.0,0.0,0.0,0.0,0.0,0.0,0.0,0.0,0.0,0.0,0.0,0.0,0.0,0.0,0.0,0.0,0.0,0.0,0.0,0.0,0.0,0.0,0.0,0.0,0.0,0.0,0.0,0.0,0.0,0.0,0.0,0.0,0.0,0.0,0.0,0.0,0.0,0.0,0.0,0.0,0.0,0.0,0.0,0.0,0.0,0.0,0.0,0.0,0.0,0.0,0.0,0.0,0.0,0.0,0.0,0.0,0.0,0.0,0.0,0.0,0.0,0.0,0.0,0.0,0.0,0.0,0.0,0.0,0.0,0.0,0.0,0.0,0.0,0.0,0.0,0.0,0.0,0.0,0.0,0.0,0.0,0.0,0.0,0.0,0.0,0.0,0.0,0.0,0.0,0.0,0.0,0.0,0.0,0.0,0.0,0.0,0.0,0.0,0.0,0.0,0.0,0.0,0.0,0.0,0.0,0.0,0.0,0.0,0.0,0.0,0.0,0.0,0.0,0.0,0.0,0.0,0.0,0.0,0.0,0.0,0.0,0.0,0.0,0.0,0.0,0.0,0.0,0.0,0.0,0.0,0.0,0.0,0.0,0.0,0.0,0.0,0.0,0.0,0.0,0.0,0.0,0.0,0.0,0.0,0.0,0.0,0.0,0.0,0.0,0.0,0.0,0.0,0.0,0.0,0.0,0.0,0.0,0.0,0.0,0.0,0.0,0.0,0.0,0.0,0.0,0.0,0.0,0.0,0.0,0.0,0.0,0.0,0.0,0.0,0.0,0.0,0.0,0.0,0.0,0.0,0.0,0.0,0.0,0.0,0.0,0.0,0.0,0.0,0.0,0.0,0.0,0.0,0.0,0.0,0.0,0.0,0.0,0.0,0.0,0.0,0.0,0.0,0.0,0.0,0.0,0.0,0.0,0.0,0.0,0.0,0.0,0.0,0.0,0.0,0.0,0.0,0.0,0.0,0.0,0.0,0.0,0.0,0.0,0.0,0.0,0.0,0.0,0.0,0.0,0.0,0.0,0.0,0.0,0.0,0.0,0.0,0.0,0.0,0.0,0.0,0.0,0.0,0.0,0.0,0.0,0.0,0.0,0.0,0.0,0.0,0.0,0.0,0.0,0.0,0.0,0.0,0.0,0.0,0.0,0.0,0.0,0.0,0.0,0.0,0.0,0.0,0.0,0.0,0.0,0.0,0.0,0.0,0.0,0.0,0.0,0.0,0.0,0.0,0.0,0.0,0.0,0.0,0.0,0.0,0.0,0.0,0.0,0.0,0.0,0.0,0.0,0.0,0.0,0.0,0.0,0.0,0.0,0.0,0.0,0.0,0.0,0.0,0.0,0.0,0.0,0.0,0.0,0.0,0.0,0.0,0.0,0.0,0.0,0.0,0.0,0.0,0.0,0.0,0.0,0.0,0.0,0.0,0.0,0.0,0.0,0.0,0.0,0.0,0.0,0.0,0.0,0.0,0.0,0.0,0.0,0.0,0.0,0.0,0.0,0.0,0.0,0.0,0.0,0.0,0.0,0.0,0.0,0.0,0.0,0.0,0.0,0.0,0.0,0.0,0.0,0.0,0.0,0.0,0.0,0.0,0.0,0.0,0.0,0.0,0.0,0.0,0.0,0.0,0.0,0.0,0.0,0.0,0.0,0.0,0.0,0.0,0.0,0.0,0.0,0.0,0.0,0.0,0.0,0.0,0.0,0.0,0.0,0.0,0.0,0.0,0.0,0.0,0.0,0.0,0.0,0.0,0.0,0.0,0.0,0.0,0.0,0.0,0.0,0.0,0.0,0.0,0.0,0.0,0.0,0.0,0.0,0.0,0.0,0.0,0.0,0.0,0.0,0.0,0.0,0.0,0.0,0.0,0.0,0.0,0.0,0.0,0.0,0.0,0.0,0.0,0.0,0.0,0.0,0.0,0.0,0.0,0.0,0.0,0.0,0.0,0.0,0.0,0.0,0.0,0.0,0.0,0.0,0.0,0.0,0.0,0.0,0.0,0.0,0.0,0.0,0.0,0.0,0.0,0.0,0.0,0.0,0.0,0.0,0.0,0.0,0.0,0.0,0.0,0.0,0.0,0.0,0.0,0.0,0.0,0.0,0.0,0.0,0.0,0.0,0.0,0.0,0.0,0.0,0.0,0.0,0.0,0.0,0.0,0.0,0.0,0.0,0.0,0.0,0.0,0.0,0.0,0.0,0.0,0.0,0.0,0.0,0.0,0.0,0.0,0.0,0.0,0.0,0.0,0.0,0.0,0.0,0.0,0.0,0.0,0.0,0.0,0.0,0.0,0.0,0.0,0.0,0.0,0.0,0.0,0.0,0.0,0.0,0.0,0.0,0.0,0.0,0.0,0.0,0.0,0.0,0.0,0.0,0.0,0.0,0.0,0.0,0.0,0.0,0.0,0.0,0.0,0.0,0.0,0.0,0.0,0.0,0.0,0.0,0.0,0.0,0.0,0.0,0.0,0.0,0.0,0.0,0.0,0.0,0.0,0.0,0.0,0.0,0.0,0.0,0.0,0.0,0.0,0.0,0.0,0.0,0.0,0.0,0.0,0.0,0.0,0.0,0.0,0.0,0.0,0.0,0.0,0.0,0.0,0.0,0.0,0.0,0.0,0.0,0.0,0.0,0.0,0.0,0.0,0.0,0.0,0.0,0.0,0.0,0.0,0.0,0.0,0.0,0.0,0.0,0.0,0.0,0.0,0.0,0.0,0.0,0.0,0.0,0.0,0.0,0.0,0.0,0.0,0.0,0.0,0.0,0.0,0.0,0.0,0.0,0.0,0.0,0.0,0.0,0.0,0.0,0.0,0.0,0.0,0.0,0.0,0.0,0.0,0.0,0.0,0.0,0.0,0.0,0.0,0.0,0.0,0.0,0.0,0.0,0.0,0.0,0.0,0.0,0.0,0.0,0.0,0.0,0.0,0.0,0.0,0.0,0.0,2.4058,0.0,0.0,0.0,0.0,0.0,0.0,0.0,0.0,0.0,0.0,0.0,0.0,0.0,0.0,0.0,0.0,0.0,0.0,0.0,0.0,0.0,0.0,0.0,0.0,0.0,0.0,0.0,0.0,0.0,0.0,0.0,0.0,0.0,0.0,0.0,0.0,0.0,0.0,0.0,0.0,0.0,0.0,0.0,0.0,0.0,0.0,0.0,0.0,0.0,0.0,0.0,0.0,0.0,0.0,0.0,0.0,0.0,0.0,0.0,0.0,0.0,0.0,0.0,0.0,0.0,0.0,0.0,0.0,0.0,0.0,0.0,0.0,0.0,0.0,0.0,0.0,0.0,0.0,0.0,0.0,0.0,0.0,0.0,0.0,0.0,0.0,0.0,0.0,0.0,0.0,0.0,0.0,0.0,0.0,0.0,0.0,0.0,0.0,0.0,0.0,0.0,0.0,0.0,0.0,0.0,0.0,0.0,0.0,0.0,0.0,2.5107,2.4987,2.4818,2.4572,2.4265,0.0,0.0,0.0,0.0,0.0,0.0,0.0,0.0,0.0,0.0,0.0,0.0,0.0,0.0,0.0,0.0,0.0,0.0,0.0,0.0,0.0,0.0,0.0,0.0,0.0,0.0,0.0,0.0,0.0,0.0,0.0,0.0,0.0,0.0,0.0,0.0,0.0,0.0,0.0,0.0,0.0,0.0,0.0,0.0,0.0,0.0,0.0,0.0,0.0,0.0,0.0,0.0,0.0,0.0,0.0,0.0,0.0,0.0,0.0,0.0,0.0,0.0,0.0,0.0,0.0,0.0,0.0,0.0,0.0,0.0,0.0,0.0,0.0,0.0,0.0,0.0,0.0,0.0,0.0,0.0,0.0,0.0,0.0,0.0,0.0,0.0,0.0,0.0,0.0,0.0,0.0,0.0,0.0,0.0,0.0,0.0,0.0,0.0,0.0,0.0,0.0,0.0,0.0,0.0,0.0,0.0,0.0,0.0,0.0,0.0,0.0,0.0,2.4965,2.4769,2.4392,0.0,0.0,0.0,0.0,0.0,0.0,0.0,0.0,0.0,0.0,0.0,0.0,0.0,0.0,0.0,0.0,0.0,0.0,0.0,0.0,0.0,0.0,0.0,0.0,0.0,0.0,0.0,0.0,0.0,0.0,0.0,0.0,0.0,0.0,0.0,0.0,0.0,0.0,0.0,0.0,0.0,0.0,0.0,0.0,0.0,0.0,0.0,0.0,0.0,0.0,0.0,0.0,0.0,0.0,0.0,0.0,0.0,0.0,0.0,0.0,0.0,0.0,0.0,0.0,0.0,0.0,0.0,0.0,0.0,0.0,0.0,0.0,0.0,0.0,0.0,0.0,0.0,0.0,0.0,0.0,0.0,0.0,0.0,0.0,0.0,0.0,0.0,0.0,0.0,0.0,0.0,0.0,0.0,0.0,0.0,0.0,0.0,0.0,0.0,0.0,0.0,0.0,0.0,0.0,0.0,0.0,0.0,0.0,0.0,0.0,2.5374,2.5168,2.5096,0.0,2.4432,0.0,0.0,0.0,0.0,0.0,0.0,0.0,0.0,0.0,0.0,0.0,0.0,0.0,0.0,0.0,0.0,0.0,0.0,0.0,0.0,0.0,0.0,0.0,0.0,0.0,0.0,0.0,0.0,0.0,0.0,0.0,0.0,0.0,0.0,0.0,0.0,0.0,0.0,0.0,0.0,0.0,0.0,0.0,0.0,0.0,0.0,0.0,0.0,0.0,0.0,0.0,0.0,0.0,0.0,0.0,0.0,0.0,0.0,0.0,0.0,0.0,0.0,0.0,0.0,0.0,0.0,0.0,0.0,0.0,0.0,0.0,0.0,0.0,0.0,0.0,0.0,0.0,0.0,0.0,0.0,0.0,0.0,0.0,0.0,0.0,0.0,0.0,0.0,0.0,0.0,0.0,0.0,0.0,0.0,0.0,0.0,0.0,0.0,0.0,0.0,0.0,0.0,0.0,0.0,0.0,0.0,0.0,0.0,0.0,0.0,2.5439,2.5322,2.5145,2.4907,0.0,0.0,0.0,0.0,0.0,0.0,0.0,0.0,0.0,0.0,0.0,0.0,0.0,0.0,0.0,0.0,0.0,0.0,0.0,0.0,0.0,0.0,0.0,0.0,0.0,0.0,0.0,0.0,0.0,0.0,0.0,0.0,0.0,0.0,0.0,0.0,0.0,0.0,0.0,0.0,0.0,0.0,0.0,0.0,0.0,0.0,0.0,0.0,0.0,0.0,0.0,0.0,0.0,0.0,0.0,0.0,0.0,0.0,0.0,0.0,0.0,0.0,0.0,0.0,0.0,0.0,0.0,0.0,0.0,0.0,0.0,0.0,0.0,0.0,0.0,0.0,0.0,0.0,0.0,0.0,0.0,0.0,0.0,0.0,0.0,0.0,0.0,0.0,0.0,0.0,0.0,0.0,0.0,0.0,0.0,0.0,0.0,0.0,0.0,0.0,0.0,0.0,0.0,0.0,0.0,0.0,0.0,0.0,0.0,0.0,2.5565,2.5504,2.539,2.5201,2.4974,2.4714,0.0,0.0,0.0,0.0,0.0,0.0,0.0,0.0,0.0,0.0,0.0,0.0,0.0,0.0,0.0,0.0,0.0,0.0,0.0,0.0,0.0,0.0,0.0,0.0,0.0,0.0,0.0,0.0,0.0,0.0,0.0,0.0,0.0,0.0,0.0,0.0,0.0,0.0,0.0,0.0,0.0,0.0,0.0,0.0,0.0,0.0,0.0,0.0,0.0,0.0,0.0,0.0,0.0,0.0,0.0,0.0,0.0,0.0,0.0,0.0,0.0,0.0,0.0,0.0,0.0,0.0,0.0,0.0,0.0,0.0,0.0,0.0,0.0,0.0,0.0,0.0,0.0,0.0,0.0,0.0,0.0,0.0,0.0,0.0,0.0,0.0,0.0,0.0,0.0,0.0,0.0,0.0,0.0,0.0,0.0,0.0,0.0,0.0,0.0,0.0,0.0,0.0,0.0,0.0,0.0,0.0,0.0,0.0,2.5612,2.5668,2.56,2.5395,2.5332,2.5106,0.0,0.0,0.0,0.0,0.0,0.0,0.0,0.0,0.0,0.0,0.0,0.0,0.0,0.0,0.0,0.0,0.0,0.0,0.0,0.0,0.0,0.0,0.0,0.0,0.0,0.0,0.0,0.0,0.0,0.0,0.0,0.0,0.0,0.0,0.0,0.0,0.0,0.0,0.0,0.0,0.0,0.0,0.0,0.0,0.0,0.0,0.0,0.0,0.0,0.0,0.0,0.0,0.0,0.0,0.0,0.0,0.0,0.0,0.0,0.0,0.0,0.0,0.0,0.0,0.0,0.0,0.0,0.0,0.0,0.0,0.0,0.0,0.0,0.0,0.0,0.0,0.0,0.0,0.0,0.0,0.0,0.0,0.0,0.0,0.0,0.0,0.0,0.0,0.0,0.0,0.0,0.0,0.0,0.0,0.0,0.0,0.0,0.0,0.0,0.0,0.0,0.0,0.0,0.0,0.0,0.0,0.0,0.0,0.0,2.5657,2.5634,2.5595,2.5466,2.5346,2.5171,0.0,0.0,0.0,0.0,0.0,0.0,0.0,0.0,0.0,0.0,0.0,0.0,0.0,0.0,0.0,0.0,0.0,0.0,0.0,0.0,0.0,0.0,0.0,0.0,0.0,0.0,0.0,0.0,0.0,0.0,0.0,0.0,0.0,0.0,0.0,0.0,0.0,0.0,0.0,0.0,0.0,0.0,0.0,0.0,0.0,0.0,0.0,0.0,0.0,0.0,0.0,0.0,0.0,0.0,0.0,0.0,0.0,0.0,0.0,0.0,0.0,0.0,0.0,0.0,0.0,0.0,0.0,0.0,0.0,0.0,0.0,0.0,0.0,0.0,0.0,0.0,0.0,0.0,0.0,0.0,0.0,0.0,0.0,0.0,0.0,0.0,0.0,0.0,0.0,0.0,0.0,0.0,0.0,0.0,0.0,0.0,0.0,0.0,0.0,0.0,0.0,0.0,0.0,0.0,0.0,0.0,0.0,0.0,0.0,2.5658,0.0,2.5507,2.5463,2.5368,2.5203,0.0,0.0,0.0,0.0,0.0,0.0,0.0,0.0,0.0,0.0,0.0,0.0,0.0,0.0,0.0,0.0,0.0,0.0,0.0,0.0,0.0,0.0,0.0,0.0,0.0,0.0,0.0,0.0,0.0,0.0,0.0,0.0,0.0,0.0,0.0,0.0,0.0,0.0,0.0,0.0,0.0,0.0,0.0,0.0,0.0,0.0,0.0,0.0,0.0,0.0,0.0,0.0,0.0,0.0,0.0,0.0,0.0,0.0,0.0,0.0,0.0,0.0,0.0,0.0,0.0,0.0,0.0,0.0,0.0,0.0,0.0,0.0,0.0,0.0,0.0,0.0,0.0,0.0,0.0,0.0,0.0,0.0,0.0,0.0,0.0,0.0,0.0,0.0,0.0,0.0,0.0,0.0,0.0,0.0,0.0,0.0,0.0,0.0,0.0,0.0,0.0,0.0,0.0,0.0,0.0,0.0,0.0,0.0,2.5662,2.5615,2.5459,2.5402,2.5395,2.5329,2.5201,0.0,0.0,0.0,0.0,0.0,0.0,0.0,0.0,0.0,0.0,0.0,0.0,0.0,0.0,0.0,0.0,0.0,0.0,0.0,0.0,0.0,0.0,0.0,0.0,0.0,0.0,0.0,0.0,0.0,0.0,0.0,0.0,0.0,0.0,0.0,0.0,0.0,0.0,0.0,0.0,0.0,0.0,0.0,0.0,0.0,0.0,0.0,0.0,0.0,0.0,0.0,0.0,0.0,0.0,0.0,0.0,0.0,0.0,0.0,0.0,0.0,0.0,0.0,0.0,0.0,0.0,0.0,0.0,0.0,0.0,0.0,0.0,0.0,0.0,0.0,0.0,0.0,0.0,0.0,0.0,0.0,0.0,0.0,0.0,0.0,0.0,0.0,0.0,0.0,0.0,0.0,0.0,0.0,0.0,0.0,0.0,0.0,0.0,0.0,0.0,0.0,0.0,0.0,0.0,0.0,0.0,0.0,0.0,0.0,2.566,2.5489,2.5388,2.5389,2.5335,2.5253,0.0,0.0,0.0,0.0,0.0,0.0,0.0,0.0,0.0,0.0,0.0,0.0,0.0,0.0,0.0,0.0,0.0,0.0,0.0,0.0,0.0,0.0,0.0,0.0,0.0,0.0,0.0,0.0,0.0,0.0,0.0,0.0,0.0,0.0,0.0,0.0,0.0,0.0,0.0,0.0,0.0,0.0,0.0,0.0,0.0,0.0,0.0,0.0,0.0,0.0,0.0,0.0,0.0,0.0,0.0,0.0,0.0,0.0,0.0,0.0,0.0,0.0,0.0,0.0,0.0,0.0,0.0,0.0,0.0,0.0,0.0,0.0,0.0,0.0,0.0,0.0,0.0,0.0,0.0,0.0,0.0,0.0,0.0,0.0,0.0,0.0,0.0,0.0,0.0,0.0,0.0,0.0,0.0,0.0,0.0,0.0,0.0,0.0,0.0,0.0,0.0,0.0,0.0,0.0,0.0,0.0,0.0,0.0,0.0,2.5579,2.5415,2.5337,2.5367,2.5293,2.5253,2.5236,0.0,0.0,0.0,0.0,0.0,0.0,0.0,0.0,0.0,0.0,0.0,0.0,0.0,0.0,0.0,0.0,0.0,0.0,0.0,0.0,0.0,0.0,0.0,0.0,0.0,0.0,0.0,0.0,0.0,0.0,0.0,0.0,0.0,0.0,0.0,0.0,0.0,0.0,0.0,0.0,0.0,0.0,0.0,0.0,0.0,0.0,0.0,0.0,0.0,0.0,0.0,0.0,0.0,0.0,0.0,0.0,0.0,0.0,0.0,0.0,0.0,0.0,0.0,0.0,0.0,0.0,0.0,0.0,0.0,0.0,0.0,0.0,0.0,0.0,0.0,0.0,0.0,0.0,0.0,0.0,0.0,0.0,0.0,0.0,0.0,0.0,0.0,0.0,0.0,0.0,0.0,0.0,0.0,0.0,0.0,0.0,0.0,0.0,0.0,0.0,0.0,0.0,0.0,0.0,0.0,0.0,0.0,0.0,2.5396,2.5264,2.5236,2.5311,2.5239,2.5239,0.0,0.0,0.0,0.0,0.0,0.0,0.0,0.0,0.0,0.0,0.0,0.0,0.0,0.0,0.0,0.0,0.0,0.0,0.0,0.0,0.0,0.0,0.0,0.0,0.0,0.0,0.0,0.0,0.0,0.0,0.0,0.0,0.0,0.0,0.0,0.0,0.0,0.0,0.0,0.0,0.0,0.0,0.0,0.0,0.0,0.0,0.0,0.0,0.0,0.0,0.0,0.0,0.0,0.0,0.0,0.0,0.0,0.0,0.0,0.0,0.0,0.0,0.0,0.0,0.0,0.0,0.0,0.0,0.0,0.0,0.0,0.0,0.0,0.0,0.0,0.0,0.0,0.0,0.0,0.0,0.0,0.0,0.0,0.0,0.0,0.0,0.0,0.0,0.0,0.0,0.0,0.0,0.0,0.0,0.0,0.0,0.0,0.0,0.0,0.0,0.0,0.0,0.0,0.0,0.0,0.0,0.0,0.0,0.0,2.5337,2.5234,2.5225,2.5301,2.5236,2.5214,0.0,0.0,0.0,0.0,0.0,0.0,0.0,0.0,0.0,0.0,0.0,0.0,0.0,0.0,0.0,0.0,0.0,0.0,0.0,0.0,0.0,0.0,0.0,0.0,0.0,0.0,0.0,0.0,0.0,0.0,0.0,0.0,0.0,0.0,0.0,0.0,0.0,0.0,0.0,0.0,0.0,0.0,0.0,0.0,0.0,0.0,0.0,0.0,0.0,0.0,0.0,0.0,0.0,0.0,0.0,0.0,0.0,0.0,0.0,0.0,0.0,0.0,0.0,0.0,0.0,0.0,0.0,0.0,0.0,0.0,0.0,0.0,0.0,0.0,0.0,0.0,0.0,0.0,0.0,0.0,0.0,0.0,0.0,0.0,0.0,0.0,0.0,0.0,0.0,0.0,0.0,0.0,0.0,0.0,0.0,0.0,0.0,0.0,0.0,0.0,0.0,0.0,0.0,0.0,0.0,0.0,0.0,0.0,2.5362,2.5265,2.5209,2.5214,2.5258,2.516,2.5144,0.0,0.0,0.0,0.0,0.0,0.0,0.0,0.0,0.0,0.0,0.0,0.0,0.0,0.0,0.0,0.0,0.0,0.0,0.0,0.0,0.0,0.0,0.0,0.0,0.0,0.0,0.0,0.0,0.0,0.0,0.0,0.0,0.0,0.0,0.0,0.0,0.0,0.0,0.0,0.0,0.0,0.0,0.0,0.0,0.0,0.0,0.0,0.0,0.0,0.0,0.0,0.0,0.0,0.0,0.0,0.0,0.0,0.0,0.0,0.0,0.0,0.0,0.0,0.0,0.0,0.0,0.0,0.0,0.0,0.0,0.0,0.0,0.0,0.0,0.0,0.0,0.0,0.0,0.0,0.0,0.0,0.0,0.0,0.0,0.0,0.0,0.0,0.0,0.0,0.0,0.0,0.0,0.0,0.0,0.0,0.0,0.0,0.0,0.0,0.0,0.0,0.0,0.0,0.0,0.0,0.0,0.0,0.0,2.5344,2.5203,2.521,2.521,2.521,2.5063,2.5044,0.0,0.0,0.0,0.0,0.0,0.0,0.0,0.0,0.0,0.0,0.0,0.0,0.0,0.0,0.0,0.0,0.0,0.0,0.0,0.0,0.0,0.0,0.0,0.0,0.0,0.0,0.0,0.0,0.0,0.0,0.0,0.0,0.0,0.0,0.0,0.0,0.0,0.0,0.0,0.0,0.0,0.0,0.0,0.0,0.0,0.0,0.0,0.0,0.0,0.0,0.0,0.0,0.0,0.0,0.0,0.0,0.0,0.0,0.0,0.0,0.0,0.0,0.0,0.0,0.0,0.0,0.0,0.0,0.0,0.0,0.0,0.0,0.0,0.0,0.0,0.0,0.0,0.0,0.0,0.0,0.0,0.0,0.0,0.0,0.0,0.0,0.0,0.0,0.0,0.0,0.0,0.0,0.0,0.0,0.0,0.0,0.0,0.0,0.0,0.0,0.0,0.0,0.0,0.0,0.0,0.0,0.0,0.0,2.5271,2.5203,2.521,2.521,2.521,2.5032,2.5,0.0,0.0,0.0,0.0,0.0,0.0,0.0,0.0,0.0,0.0,0.0,0.0,0.0,0.0,0.0,0.0,0.0,0.0,0.0,0.0,0.0,0.0,0.0,0.0,0.0,0.0,0.0,0.0,0.0,0.0,0.0,0.0,0.0,0.0,0.0,0.0,0.0,0.0,0.0,0.0,0.0,0.0,0.0,0.0,0.0,0.0,0.0,0.0,2.4229,0.0,0.0,0.0,0.0,0.0,0.0,0.0,0.0,0.0,0.0,0.0,0.0,0.0,0.0,0.0,0.0,0.0,0.0,0.0,0.0,0.0,0.0,0.0,0.0,0.0,0.0,0.0,0.0,0.0,0.0,0.0,0.0,0.0,0.0,0.0,0.0,0.0,0.0,0.0,0.0,0.0,0.0,0.0,0.0,0.0,0.0,0.0,0.0,0.0,0.0,0.0,0.0,0.0,0.0,0.0,0.0,0.0,0.0,0.0,2.6246,2.5784,2.5765,2.5593,2.5199,2.4934,2.4921,0.0,0.0,0.0,0.0,0.0,0.0,0.0,0.0,0.0,0.0,0.0,0.0,0.0,0.0,0.0,0.0,0.0,0.0,0.0,0.0,0.0,0.0,0.0,0.0,0.0,0.0,0.0,0.0,0.0,0.0,0.0,0.0,0.0,0.0,0.0,0.0,0.0,0.0,0.0,0.0,0.0,0.0,0.0,0.0,0.0,0.0,0.0,0.0,0.0,0.0,0.0,0.0,0.0,0.0,0.0,0.0,0.0,0.0,0.0,0.0,0.0,0.0,0.0,0.0,0.0,0.0,0.0,0.0,0.0,0.0,0.0,0.0,0.0,0.0,0.0,0.0,0.0,0.0,0.0,0.0,0.0,0.0,0.0,0.0,0.0,0.0,0.0,0.0,0.0,0.0,0.0,0.0,0.0,0.0,0.0,0.0,0.0,0.0,0.0,0.0,0.0,0.0,0.0,0.0,0.0,0.0,0.0,2.7869,2.7412,2.6644,2.6581,2.6256,2.5588,2.5116,2.5026,2.5371,0.0,0.0,0.0,0.0,0.0,0.0,0.0,0.0,0.0,0.0,0.0,0.0,0.0,0.0,0.0,0.0,0.0,0.0,0.0,0.0,0.0,0.0,0.0,0.0,0.0,0.0,0.0,0.0,0.0,0.0,0.0,0.0,0.0,0.0,0.0,0.0,0.0,0.0,2.5479,2.5348,0.0,0.0,0.0,0.0,0.0,0.0,0.0,0.0,2.4381,0.0,0.0,0.0,0.0,0.0,0.0,0.0,0.0,0.0,0.0,0.0,0.0,0.0,0.0,0.0,0.0,0.0,0.0,0.0,0.0,0.0,0.0,0.0,0.0,0.0,0.0,0.0,0.0,0.0,0.0,0.0,0.0,0.0,0.0,0.0,0.0,0.0,0.0,0.0,0.0,0.0,0.0,0.0,0.0,0.0,0.0,0.0,0.0,0.0,0.0,0.0,0.0,0.0,0.0,0.0,0.0,2.7826,2.7802,2.7681,2.7491,2.7369,2.7266,2.71,2.6201,2.5853,2.6154,0.0,0.0,0.0,0.0,0.0,0.0,0.0,0.0,0.0,0.0,0.0,0.0,0.0,0.0,0.0,0.0,0.0,0.0,0.0,0.0,0.0,0.0,0.0,0.0,0.0,0.0,0.0,0.0,0.0,0.0,0.0,0.0,0.0,0.0,0.0,0.0,0.0,0.0,0.0,2.4962,2.4929,0.0,0.0,0.0,0.0,0.0,0.0,0.0,0.0,2.4261,0.0,0.0,0.0,0.0,0.0,0.0,0.0,0.0,0.0,0.0,0.0,0.0,0.0,0.0,0.0,0.0,0.0,0.0,0.0,0.0,0.0,0.0,0.0,0.0,0.0,0.0,0.0,0.0,0.0,0.0,0.0,0.0,0.0,0.0,0.0,0.0,0.0,0.0,0.0,0.0,0.0,0.0,0.0,0.0,0.0,0.0,0.0,0.0,0.0,0.0,0.0,0.0,0.0,0.0,0.0,2.9175,2.9101,2.8797,2.8297,2.8198,2.7947,2.7466,2.6887,2.6529,0.0,0.0,0.0,0.0,0.0,0.0,0.0,0.0,0.0,0.0,0.0,0.0,0.0,0.0,0.0,0.0,0.0,0.0,0.0,0.0,0.0,0.0,0.0,0.0,0.0,0.0,0.0,0.0,0.0,0.0,0.0,0.0,0.0,0.0,0.0,0.0,0.0,0.0,0.0,0.0,2.4927,2.4924,2.4561,0.0,0.0,0.0,0.0,0.0,0.0,2.4647,2.4637,0.0,0.0,0.0,0.0,0.0,0.0,0.0,0.0,0.0,0.0,0.0,0.0,0.0,0.0,0.0,0.0,0.0,0.0,0.0,0.0,0.0,0.0,0.0,0.0,0.0,0.0,0.0,0.0,0.0,0.0,0.0,0.0,0.0,0.0,0.0,0.0,0.0,0.0,0.0,0.0,0.0,0.0,0.0,0.0,0.0,0.0,0.0,0.0,0.0,0.0,0.0,0.0,0.0,0.0,0.0,3.0453,3.0356,2.9895,2.9141,2.9045,2.8658,2.7949,2.7606,2.7297,0.0,0.0,0.0,0.0,0.0,0.0,0.0,0.0,0.0,0.0,0.0,0.0,0.0,0.0,0.0,0.0,0.0,0.0,0.0,0.0,0.0,0.0,0.0,0.0,0.0,0.0,0.0,0.0,0.0,0.0,0.0,0.0,0.0,0.0,0.0,0.0,0.0,0.0,0.0,0.0,0.0,2.4892,2.4578,2.4791,0.0,0.0,0.0,0.0,2.4873,2.4866,0.0,0.0,0.0,0.0,0.0,0.0,0.0,0.0,0.0,0.0,0.0,0.0,0.0,0.0,0.0,0.0,0.0,0.0,0.0,0.0,0.0,0.0,0.0,0.0,0.0,0.0,0.0,0.0,0.0,0.0,0.0,0.0,0.0,0.0,0.0,0.0,0.0,0.0,0.0,0.0,0.0,0.0,0.0,0.0,0.0,0.0,0.0,0.0,0.0,0.0,0.0,0.0,0.0,0.0,0.0,0.0,3.0496,3.0482,3.0346,3.0126,2.9897,2.9728,2.9692,2.877,2.8364,0.0,0.0,0.0,0.0,0.0,0.0,0.0,0.0,0.0,0.0,0.0,0.0,0.0,0.0,0.0,0.0,0.0,0.0,0.0,0.0,0.0,0.0,0.0,0.0,0.0,0.0,0.0,0.0,0.0,0.0,0.0,0.0,0.0,0.0,0.0,0.0,0.0,0.0,0.0,0.0,0.0,2.4866,2.4918,2.4964,2.4994,0.0,0.0,2.4686,2.4718,2.4532,0.0,0.0,0.0,0.0,0.0,0.0,0.0,0.0,0.0,0.0,0.0,0.0,0.0,0.0,0.0,0.0,0.0,0.0,0.0,0.0,0.0,0.0,0.0,0.0,0.0,0.0,0.0,0.0,0.0,0.0,0.0,0.0,0.0,0.0,0.0,0.0,0.0,0.0,0.0,0.0,0.0,0.0,0.0,0.0,0.0,0.0,0.0,0.0,0.0,0.0,0.0,0.0,0.0,0.0,0.0,3.0527,3.0443,3.0397,3.0337,3.0259,3.0142,3.0015,2.9934,2.9479,2.914,0.0,0.0,0.0,0.0,0.0,0.0,0.0,0.0,0.0,0.0,0.0,0.0,0.0,0.0,0.0,0.0,0.0,0.0,0.0,0.0,0.0,0.0,0.0,0.0,0.0,0.0,0.0,0.0,0.0,0.0,0.0,0.0,0.0,0.0,0.0,0.0,0.0,0.0,0.0,0.0,0.0,0.0,2.4912,2.4956,0.0,0.0,0.0,2.571,2.617,0.0,0.0,0.0,0.0,0.0,0.0,0.0,0.0,0.0,0.0,0.0,0.0,0.0,0.0,0.0,0.0,0.0,0.0,0.0,0.0,0.0,0.0,0.0,0.0,0.0,0.0,0.0,0.0,0.0,0.0,0.0,0.0,0.0,0.0,0.0,0.0,0.0,0.0,0.0,0.0,0.0,0.0,0.0,0.0,0.0,0.0,0.0,0.0,0.0,0.0,0.0,0.0,0.0,0.0,0.0,0.0,0.0,3.0411,3.0408,3.0359,3.026,3.024,3.0152,3.0011,2.9937,0.0,0.0,0.0,0.0,0.0,0.0,0.0,0.0,0.0,0.0,0.0,0.0,0.0,0.0,0.0,0.0,0.0,0.0,0.0,0.0,0.0,0.0,0.0,0.0,0.0,0.0,0.0,2.5312,0.0,0.0,0.0,0.0,0.0,0.0,0.0,0.0,0.0,0.0,0.0,0.0,0.0,0.0,2.5393,2.5398,2.5512,2.5725,0.0,0.0,2.6722,2.7195,2.7163,2.7129,0.0,0.0,0.0,0.0,0.0,0.0,0.0,0.0,0.0,0.0,0.0,0.0,0.0,0.0,0.0,0.0,0.0,0.0,0.0,0.0,0.0,0.0,0.0,0.0,0.0,0.0,0.0,0.0,0.0,0.0,0.0,0.0,0.0,0.0,0.0,0.0,0.0,0.0,0.0,0.0,0.0,0.0,0.0,0.0,0.0,0.0,0.0,0.0,0.0,0.0,0.0,0.0,0.0,0.0,0.0,3.0486,3.0555,3.053,3.0481,3.0371,3.0285,3.0271,3.0022,3.0032,0.0,0.0,0.0,0.0,0.0,0.0,0.0,0.0,0.0,0.0,0.0,0.0,0.0,0.0,0.0,0.0,0.0,0.0,0.0,0.0,0.0,0.0,0.0,0.0,0.0,0.0,0.0,0.0,0.0,0.0,0.0,0.0,0.0,0.0,0.0,0.0,0.0,0.0,0.0,0.0,0.0,2.6429,2.6953,2.7161,2.7138,0.0,0.0,2.7248,2.699,2.6935,2.7007,2.7365,0.0,0.0,0.0,0.0,0.0,0.0,0.0,0.0,0.0,0.0,0.0,0.0,0.0,0.0,0.0,0.0,0.0,0.0,0.0,0.0,0.0,0.0,0.0,0.0,0.0,0.0,0.0,0.0,0.0,0.0,0.0,0.0,0.0,0.0,0.0,0.0,0.0,0.0,0.0,0.0,0.0,0.0,0.0,0.0,0.0,0.0,0.0,0.0,0.0,0.0,0.0,0.0,0.0,3.0409,3.0429,3.0508,3.052,3.0491,3.0439,3.0367,3.0306,3.0209,3.0222,0.0,0.0,0.0,0.0,0.0,0.0,0.0,0.0,0.0,0.0,0.0,0.0,0.0,0.0,0.0,0.0,0.0,0.0,0.0,0.0,0.0,0.0,0.0,0.0,0.0,0.0,0.0,0.0,2.5395,2.5453,2.5486,0.0,0.0,0.0,0.0,0.0,0.0,0.0,0.0,0.0,0.0,2.7066,2.7409,2.7422,0.0,0.0,2.8096,2.8247,2.8521,2.8596,2.8669,2.8806,2.8866,0.0,0.0,0.0,0.0,0.0,0.0,0.0,0.0,0.0,0.0,0.0,0.0,0.0,0.0,0.0,0.0,0.0,0.0,0.0,0.0,0.0,0.0,0.0,0.0,0.0,0.0,0.0,0.0,0.0,0.0,0.0,0.0,0.0,0.0,0.0,0.0,0.0,0.0,0.0,0.0,0.0,0.0,0.0,0.0,0.0,0.0,0.0,0.0,0.0,0.0,0.0,0.0,3.043,3.0398,3.0507,3.0574,3.0549,3.054,3.0481,3.0381,3.0321,3.034,0.0,0.0,0.0,0.0,0.0,0.0,0.0,0.0,0.0,0.0,0.0,0.0,0.0,0.0,0.0,0.0,0.0,0.0,0.0,0.0,0.0,0.0,0.0,0.0,0.0,0.0,0.0,0.0,2.5428,2.5609,2.5829,0.0,0.0,0.0,0.0,0.0,0.0,0.0,0.0,0.0,0.0,2.7866,2.8154,2.8214,2.8436,2.8969,2.9068,2.9209,2.9655,2.9716,2.9735,2.9767,0.0,0.0,0.0,0.0,0.0,0.0,0.0,0.0,0.0,0.0,0.0,0.0,0.0,0.0,0.0,0.0,0.0,0.0,0.0,0.0,0.0,0.0,0.0,0.0,0.0,0.0,0.0,0.0,0.0,0.0,2.0583,0.0,0.0,0.0,0.0,0.0,0.0,0.0,0.0,0.0,0.0,0.0,0.0,0.0,0.0,0.0,0.0,0.0,0.0,0.0,0.0,0.0,0.0,3.0463,3.0411,3.0604,3.0691,3.07,3.064,3.0595,3.0586,3.0417,3.0386,3.0586,0.0,0.0,0.0,0.0,0.0,0.0,0.0,0.0,0.0,0.0,0.0,0.0,0.0,0.0,0.0,0.0,0.0,0.0,0.0,0.0,0.0,0.0,0.0,0.0,0.0,0.0,2.5428,2.5466,2.5842,0.0,0.0,0.0,0.0,0.0,0.0,0.0,0.0,0.0,0.0,2.866,2.8964,2.9457,2.987,3.0013,2.9886,3.0037,3.0112,2.9988,2.9836,2.9769,0.0,0.0,0.0,0.0,0.0,0.0,0.0,0.0,0.0,0.0,0.0,0.0,0.0,0.0,0.0,0.0,0.0,0.0,0.0,0.0,0.0,0.0,0.0,0.0,0.0,0.0,0.0,2.2709,2.2348,0.0,0.0,0.0,0.0,0.0,0.0,0.0,0.0,0.0,0.0,0.0,2.7826,2.8839,0.0,0.0,0.0,0.0,0.0,0.0,0.0,0.0,0.0,0.0,0.0,0.0,3.0516,3.0554,3.0638,3.0697,3.07,3.0629,3.0621,3.0613,3.054,3.0486,3.047,0.0,0.0,0.0,0.0,0.0,0.0,0.0,0.0,0.0,0.0,0.0,0.0,0.0,0.0,0.0,0.0,0.0,0.0,0.0,0.0,0.0,0.0,0.0,0.0,0.0,2.5611,0.0,0.0,0.0,0.0,0.0,0.0,0.0,0.0,0.0,0.0,0.0,2.9557,2.9745,2.9664,2.968,2.9973,3.0114,3.0215,0.0,0.0,0.0,0.0,0.0,0.0,0.0,0.0,0.0,0.0,0.0,0.0,0.0,0.0,2.8102,2.8272,2.8402,2.8478,2.8478,0.0,0.0,0.0,0.0,0.0,0.0,0.0,0.0,0.0,0.0,0.0,0.0,0.0,0.0,2.4146,0.0,2.4252,0.0,0.0,0.0,0.0,0.0,0.0,0.0,0.0,2.8034,2.8747,2.9017,2.9623,2.972,0.0,2.9666,2.9683,0.0,0.0,0.0,0.0,0.0,0.0,0.0,0.0,3.0546,3.0602,3.0679,3.07,3.0695,3.0637,3.0602,3.0602,3.0606,3.0567,3.0458,3.0449,3.0144,0.0,0.0,0.0,0.0,0.0,0.0,0.0,0.0,0.0,0.0,0.0,0.0,0.0,0.0,0.0,0.0,0.0,0.0,0.0,0.0,0.0,0.0,0.0,2.6483,0.0,0.0,0.0,0.0,0.0,0.0,0.0,0.0,0.0,2.9765,3.0092,3.0319,3.0274,3.019,3.0136,3.0177,0.0,0.0,0.0,0.0,0.0,0.0,0.0,2.9869,2.9716,2.9817,2.9864,2.975,2.9438,2.9206,2.9182,0.0,0.0,2.8091,2.8057,2.8156,2.8112,2.8112,2.8129,2.8129,2.802,2.7954,0.0,0.0,0.0,0.0,0.0,0.0,0.0,0.0,2.5202,2.5018,0.0,2.5577,0.0,0.0,0.0,0.0,0.0,2.6885,0.0,0.0,2.944,3.0087,3.0215,3.0007,3.0019,3.0199,3.026,3.029,3.029,3.0179,0.0,0.0,0.0,0.0,0.0,0.0,3.0539,3.0604,3.0675,3.0704,3.0704,3.0642,3.061,3.0602,3.0606,3.0617,3.0598,3.0576,3.0607,3.0587,2.9924,0.0,0.0,0.0,0.0,0.0,0.0,0.0,0.0,0.0,0.0,0.0,0.0,0.0,0.0,0.0,0.0,0.0,0.0,0.0,0.0,2.7432,0.0,0.0,0.0,0.0,0.0,0.0,0.0,0.0,0.0,0.0,3.0384,3.04,3.0307,3.007,0.0,0.0,0.0,0.0,3.0479,3.0479,3.0309,3.0203,3.0171,2.995,2.9755,2.9737,0.0,0.0,2.95,2.95,2.9654,3.0057,3.0112,2.9562,2.7909,2.7906,2.8057,2.797,2.7977,2.7895,2.7877,2.7844,2.758,2.6304,0.0,0.0,0.0,0.0,2.6708,2.7368,2.7736,2.7865,2.7884,2.7848,2.8147,0.0,0.0,0.0,0.0,0.0,0.0,2.8153,2.8837,2.9138,2.9529,3.0011,3.0075,3.0142,3.0218,3.026,3.0302,3.0314,3.0414,3.0344,3.0145,0.0,0.0,0.0,0.0,3.0681,3.0739,3.0761,3.0771,3.0755,3.0711,3.0672,3.0668,3.0668,3.0623,3.052,3.0528,3.055,3.0602,3.0389,0.0,0.0,0.0,0.0,0.0,0.0,0.0,0.0,0.0,0.0,0.0,0.0,0.0,0.0,0.0,0.0,0.0,0.0,0.0,2.7447,2.8284,2.8816,0.0,0.0,0.0,0.0,0.0,0.0,0.0,0.0,0.0,3.0534,3.0537,3.0511,0.0,0.0,3.0509,3.0486,3.0507,3.0499,3.0428,3.026,0.0,2.9992,3.0373,3.0618,3.039,3.077,3.1114,3.1095,3.1117,3.1102,3.1048,3.1017,3.0775,3.0096,2.9728,2.9591,2.947,2.9271,2.9211,2.9351,2.9271,2.9208,2.7633,2.68,2.738,2.7446,2.731,2.8205,2.8877,2.9279,2.9311,2.9385,2.9501,2.9477,2.9195,2.8732,2.8544,0.0,0.0,0.0,2.8662,2.9245,2.9245,2.9438,2.9787,2.9905,3.0,3.0098,3.0128,3.0203,3.0302,3.04,3.04,3.0314,0.0,0.0,3.0335,3.0505,3.0642,3.0754,3.0758,3.0781,3.0801,3.0728,3.0709,3.07,3.0704,3.0656,3.0573,3.0581,3.0582,3.0645,3.0664,3.0518,0.0,0.0,0.0,0.0,0.0,0.0,0.0,0.0,0.0,0.0,0.0,2.6345,2.6355,0.0,0.0,0.0,2.789,2.8385,2.8407,2.9224,0.0,0.0,0.0,0.0,0.0,0.0,0.0,3.0643,3.0611,3.0603,3.0614,3.0604,3.0608,3.0608,3.0608,3.0608,3.0608,0.0,3.0614,3.0871,3.0746,3.071,3.0963,3.1269,3.1393,3.1126,3.1489,3.1782,3.1801,3.1801,3.1848,3.1991,3.2016,3.2078,3.2195,3.191,3.1332,3.0505,3.0154,3.0047,3.0185,3.0216,3.0216,2.8064,2.8009,2.7699,2.7942,2.8569,2.8756,2.9215,2.9813,2.9784,2.9779,2.9779,2.9861,2.9551,2.892,2.8561,0.0,2.8782,2.896,2.9225,2.957,2.9589,2.9589,2.9589,2.9589,2.9698,2.9907,2.9907,3.0041,3.0278,3.0241,3.0241,3.029,3.0359,3.0298,3.0164,3.0301,3.0517,3.0699,3.0699,3.0739,3.0784,3.0739,3.0697,3.0711,3.0707,3.07,3.0702,3.0716,3.072,3.072,3.0768,3.0819,3.0793,0.0,0.0,0.0,0.0,0.0,0.0,0.0,0.0,0.0,0.0,0.0,0.0,0.0,0.0,0.0,2.8955,0.0,2.9396,3.0132,0.0,0.0,0.0,3.0543,3.0689,3.0582,3.0557,3.0681,0.0,0.0,3.0617,3.0617,3.0636,3.0694,3.0656,3.0636,3.0694,3.0675,3.0884,3.1695,3.1648,3.1814,3.2382,3.2332,3.2197,3.2154,3.2009,3.208,3.208,3.2061,3.2321,3.2953,3.3083,3.3287,3.4048,3.3817,3.3204,3.1299,3.0848,3.076,3.0814,3.085,3.0868,2.6933,2.6916,2.7741,2.821,2.8359,2.8984,2.927,2.9305,2.9457,2.957,2.9641,2.968,2.9605,2.9511,2.9362,2.9363,2.9437,2.9283,2.9277,2.9357,2.9375,2.9357,2.9375,2.9514,2.9698,2.9907,2.9907,3.0,3.0207,3.0207,3.0207,3.0221,3.0241,3.0266,3.0332,3.0491,3.06,3.0704,3.0704,3.074,3.08,3.0798,3.0765,3.0778,3.0789,3.0765,3.0781,3.0838,3.0856,3.0855,3.0868,3.0886,3.0875,3.0626,0.0,0.0,0.0,0.0,0.0,0.0,0.0,0.0,0.0,2.7893,2.7954,0.0,2.8863,0.0,2.9907,3.0394,3.0244,3.0503,0.0,0.0,3.0579,3.0606,3.0701,3.0618,3.0594,3.061,3.0606,3.0617,3.0617,3.0617,3.083,3.141,3.0984,3.083,3.1449,3.1535,3.1795,3.2557,3.2675,3.2641,3.2742,3.288,3.3231,3.3843,3.3761,3.3621,3.3621,3.3621,3.3714,3.3881,3.39,3.4011,3.416,3.4099,3.3869,3.3335,3.2865,3.2535,3.2665,3.2647,3.2606,2.6005,2.6007,2.7137,2.7637,2.7692,2.8754,2.9182,2.9156,2.9433,2.957,2.9644,2.9625,2.9642,2.9638,2.9551,2.9514,2.9513,2.9378,2.927,2.9163,2.927,2.9251,2.9163,2.9394,2.9551,2.977,2.9751,2.9921,3.0204,3.0213,3.0213,3.0204,3.0218,3.026,3.0364,3.0441,3.0509,3.0607,3.0639,3.0662,3.0707,3.0718,3.0712,3.0702,3.0737,3.0756,3.0762,3.084,3.087,3.0833,3.0828,3.083,3.08,3.0804,3.0756,0.0,0.0,0.0,0.0,0.0,0.0,0.0,0.0,0.0,0.0,0.0,2.9796,2.9892,3.0453,3.0755,3.0594,3.0681,3.0732,3.0693,3.068,3.0699,3.0706,3.0639,3.061,3.0607,3.0617,3.0733,3.1081,3.1139,3.1449,3.228,3.199,3.1884,3.2309,3.2385,3.2654,3.3476,3.3585,3.3635,3.3776,3.3919,3.4126,3.4492,3.4363,3.4216,3.4216,3.4216,3.4216,3.4216,3.4216,3.4216,3.4216,3.4173,3.413,3.408,3.385,3.3606,3.3588,3.3578,3.3522,2.5125,2.5287,2.6302,2.6781,2.7026,2.8286,2.8943,2.9156,2.9513,2.9662,2.9697,2.9661,2.9626,2.9513,2.9453,2.9353,2.923,2.9312,2.9206,2.9017,2.9185,2.9181,2.8998,2.9185,2.9375,2.9608,2.9608,2.9803,3.0204,3.0204,3.0204,3.0204,3.0204,3.0245,3.0312,3.0312,3.0371,3.0501,3.0576,3.0613,3.0613,3.0613,3.0617,3.0603,3.0665,3.0702,3.0742,3.084,3.0843,3.0733,3.0781,3.0782,3.0735,3.0759,3.0771,0.0,3.0704,0.0,0.0,0.0,0.0,0.0,0.0,0.0,0.0,3.0645,3.0595,3.0521,3.0696,3.0768,3.0706,3.0765,3.0792,3.0801,3.0796,3.0768,3.0706,3.0653,3.0636,3.0733,3.0752,3.1081,3.1855,3.1961,3.229,3.3093,3.3228,3.3286,3.3411,3.3302,3.3473,3.4326,3.4441,3.4564,3.4963,3.4977,3.4793,3.4649,3.4386,3.4216,3.4216,3.4216,3.4216,3.4216,3.4216,3.4216,3.4216,3.4197,3.4216,3.4197,3.4124,3.4023,3.3921,3.3842,3.3807,2.3707,2.4823,2.5874,2.6664,2.7273,2.7677,2.8216,2.8815,2.9209,2.9435,2.9532,2.9532,2.9353,2.9052,2.9351,2.9267,2.891,2.9228,2.9246,2.8975,2.9044,2.9021,2.8975,2.9062,2.9249,2.9589,2.9608,2.9803,3.0185,3.0204,3.0204,3.0204,3.0204,3.0245,3.0312,0.0,0.0,0.0,3.0576,3.0613,3.0613,3.0607,3.0626,3.0681,3.0701,0.0,3.0859,3.0879,3.0892,3.0864,3.0868,0.0,0.0,0.0,0.0,0.0,0.0,0.0,0.0,0.0,0.0,0.0,3.0746,3.0755,3.0712,3.0729,3.0726,3.0658,3.0739,3.0799,3.0791,3.0793,3.08,3.0801,3.0771,3.0725,3.0703,3.0661,3.0838,3.1507,3.1622,3.1971,3.2706,3.285,3.3198,3.4002,3.4156,3.4447,3.5085,3.4491,3.4414,3.5229,3.5299,3.5341,3.5457,3.5133,3.4889,3.4793,3.4476,3.424,3.4216,3.4216,3.4216,3.4216,3.4216,3.4234,3.4234,3.4216,3.4309,3.4234,3.4167,3.4074,3.3998,3.3921,3.3868,2.2916,0.0,2.5211,2.6189,0.0,2.7109,2.783,2.8644,2.9101,2.9373,2.9492,2.9551,2.9455,2.9277,2.9332,2.9312,2.9251,2.9206,2.9134,2.8975,2.8975,2.8975,2.8975,2.8975,2.916,2.9455,2.9533,2.9751,3.0049,3.0157,3.0204,3.0204,3.0498,3.0738,3.0898,3.136,3.1193,3.046,3.0472,3.0501,3.0482,3.052,3.0519,3.0546,3.0591,0.0,0.0,0.0,0.0,0.0,0.0,0.0,0.0,3.08,0.0,3.0799,3.079,3.0794,3.0762,3.0778,3.0798,3.0798,3.0794,3.0796,3.0739,3.0794,3.0794,3.0762,3.0794,3.0801,3.0801,3.0792,3.0798,3.0801,3.0738,3.0852,3.1256,3.1287,3.1579,3.2313,3.252,3.2851,3.3634,3.3731,3.4098,3.4872,3.5046,3.5182,3.5568,3.5264,3.5152,3.5546,3.5616,3.5572,3.5495,3.5152,3.4926,3.4851,3.4502,3.4245,3.4216,3.4216,3.4216,3.4234,3.4531,3.4829,3.4884,3.5144,3.5442,3.5386,3.5082,3.4791,3.4685,3.4268,3.3868,2.1957,2.2069,2.4313,2.555,2.604,2.6911,2.7852,2.8811,0.0,0.0,0.0,2.9494,2.9533,2.957,2.9291,2.931,2.9532,2.9181,2.9017,2.8975,2.8975,2.8975,2.8975,2.8975,2.9093,2.9314,2.9513,2.9698,2.9924,3.0266,3.0433,3.0457,3.1045,3.1496,3.1771,3.2486,3.2231,3.0898,3.0706,3.0621,3.0621,3.0487,3.039,3.0414,3.0463,3.0507,3.0516,3.0567,3.0613,3.0613,3.0629,3.069,3.0691,3.0743,3.083,3.0891,3.0912,3.0909,3.0899,3.088,3.088,3.088,3.0841,3.0801,3.0801,3.0801,3.0801,3.0801,3.0801,3.0801,3.0801,3.0786,3.0793,3.0801,3.0868,3.1243,3.1884,3.2116,3.2489,3.3238,3.3428,3.3732,3.4496,3.4621,3.4853,3.551,3.5626,3.5704,3.5693,3.5601,3.5534,3.5528,3.556,3.5591,3.5432,3.5157,3.4927,3.4812,3.448,3.4221,3.4216,3.4327,3.442,3.4513,3.5144,3.5609,3.5739,3.6147,3.6686,3.6705,3.6185,3.5702,3.5569,3.4984,3.44,1.9999,2.2154,2.2971,2.4743,2.7048,2.7689,2.8674,2.9719,2.9333,2.9222,2.9388,2.9243,2.916,2.9181,2.9071,2.9026,2.9007,2.9067,2.9062,2.8994,2.8975,2.8975,2.8975,2.8975,2.9093,2.9293,2.9513,2.9698,3.0,3.0856,3.1293,3.1336,3.2065,3.2535,3.2617,3.2814,3.2795,3.2526,3.1872,3.1525,3.1506,3.0794,3.0436,3.0472,3.0492,3.0519,3.0574,3.0582,3.061,3.0613,3.0613,3.0646,3.071,3.0696,3.076,3.0882,3.0901,3.0921,3.0919,3.086,3.0801,3.0801,3.0801,3.0801,3.0801,3.0801,3.0801,3.0801,3.0799,3.0801,3.0801,3.0816,3.0859,3.0879,3.1436,3.1887,3.2085,3.2684,3.3414,3.4211,3.4298,3.4614,3.527,3.5452,3.5491,3.5665,3.5704,3.5673,3.5643,3.5662,3.562,3.554,3.5596,3.5547,3.532,3.5124,3.4908,3.4668,3.4409,3.4216,3.4216,3.4773,3.5163,3.5274,3.5943,3.6445,3.6538,3.6593,3.6835,3.6872,3.6686,3.6493,3.6459,3.6247,3.5908,1.9927,2.1774,2.2924,2.4796,2.7102,2.831,2.9435,3.0414,3.0418,3.0032,2.9405,2.9302,2.9307,2.9353,2.9243,2.916,2.9169,2.9134,2.9044,2.8975,2.8975,2.8975,2.8975,2.8975,2.9085,2.9222,2.9841,3.0246,3.0522,3.1526,3.2076,3.2157,3.2993,3.3605,3.3971,3.4136,3.4246,3.4276,3.3026,3.2141,3.1698,3.1295,3.0895,3.0488,3.043,3.046,3.0481,3.05,3.0501,3.0548,3.0571,3.0639,3.0693,3.0735,3.0782,3.0841,3.086,3.0841,3.0841,3.0821,3.0801,3.0801,3.0801,3.0801,3.0801,3.0768,3.0735,3.0755,3.0755,3.0739,3.0758,3.1194,3.1519,3.1499,3.2265,3.2928,3.3398,3.3743,3.4301,3.504,3.5197,3.535,3.5657,3.5704,3.5704,3.5704,3.5704,3.5673,3.5654,3.5673,3.5651,3.5509,3.5502,3.5422,3.5207,3.4945,3.4752,3.4623,3.4381,3.424,3.4253,3.4922,3.5404,3.5572,3.6463,3.7243,3.7336,3.7726,3.7931,3.7949,3.7578,3.7411,3.7283,3.7248,3.6906,1.8945,2.0222,2.257,2.4962,2.7347,2.9013,3.0135,3.0801,3.1235,3.0825,2.9935,2.9654,2.963,2.9716,2.9357,2.9225,2.9256,2.916,2.9044,2.9012,2.92,2.9292,2.9287,2.9434,2.9572,2.9697,3.0476,3.0988,3.128,3.2257,3.2944,3.3303,3.3945,3.456,3.5049,3.5242,3.5373,3.5402,3.418,3.3103,3.2295,3.1929,3.1371,3.0756,3.0494,3.0398,3.0398,3.0414,3.0449,3.0501,3.0568,3.0626,3.0706,3.0739,3.0794,3.0799,3.0801,3.0801,3.0801,3.0801,3.0799,3.0771,3.0791,3.0768,3.0758,3.0682,3.0667,3.0687,3.072,3.0802,3.1051,3.1624,3.2168,3.2383,3.3158,3.3902,3.4558,3.4802,3.5116,3.5704,3.5803,3.5766,3.5715,3.5704,3.5704,3.5704,3.5704,3.5704,3.5704,3.5704,3.5631,3.5521,3.5383,3.5266,3.5141,3.4832,3.4607,3.4539,3.434,3.4221,3.4364,3.5033,3.5702,3.598,3.7113,3.8005,3.8209,3.8599,3.8934,3.8878,3.8488,3.8191,3.8118,3.8035,3.7681,1.5038,1.6768,2.0684,2.4844,2.8643,2.9863,3.0473,3.0771,3.1109,3.129,3.1243,3.0345,3.0063,3.0088,2.9253,2.8931,2.9053,2.9062,2.914,2.9163,2.9769,3.0081,3.0155,3.0815,3.1182,3.1176,3.1464,3.1744,3.2031,3.2997,3.3992,3.4868,3.5117,3.517,3.5266,3.533,3.5398,3.5412,3.5306,3.4853,3.393,3.2468,3.166,3.1564,3.0802,3.0398,3.041,3.0471,3.0492,3.051,3.0576,3.0626,3.0682,3.0696,3.0732,3.0799,3.0801,3.0801,3.0801,3.0801,3.0771,3.072,3.072,3.0701,3.0626,3.0595,3.0583,3.0725,3.0781,3.1129,3.1772,3.2092,3.2558,3.3241,3.4044,3.461,3.4791,3.541,3.5849,3.5775,3.5803,3.5766,3.5715,3.5704,3.5704,3.5704,3.5704,3.5704,3.5704,3.5643,3.5601,3.5546,3.5418,3.5197,3.4981,3.4753,3.4524,3.4316,3.4221,3.4216,3.4457,3.5423,3.6575,3.6519,3.7801,3.8767,3.8897,3.9082,3.9064,3.9101,3.8971,3.8925,3.8906,3.8765,3.8364,1.462,1.6615,2.0506,2.5059,2.9421,3.0139,3.095,3.2001,3.243,3.2693,3.2619,3.1816,3.1272,3.0962,3.0509,3.0307,3.0332,3.0454,3.0502,3.043,3.076,3.0907,3.0944,3.1219,3.1452,3.1581,3.2083,3.2511,3.2945,3.3904,3.4678,3.5053,3.5209,3.5273,3.5308,3.5289,3.5339,3.5398,3.5383,3.5244,3.4878,3.3795,3.2699,3.1775,3.1352,3.0926,3.0528,3.0482,3.0528,3.056,3.062,3.0667,3.0706,3.0732,3.0768,3.0799,3.0801,3.0801,3.0801,3.0801,3.0796,3.0765,3.0742,3.0728,3.0681,3.1129,3.1426,3.1423,3.1421,3.1807,3.2664,3.3282,3.3788,3.4217,3.4959,3.5433,3.5425,3.5703,3.5901,3.5816,3.5782,3.5725,3.5715,3.5704,3.5704,3.5704,3.5704,3.5704,3.5704,3.5643,3.5565,3.5424,3.5228,3.5047,3.4889,3.4591,3.4367,3.4245,3.4216,3.4216,3.442,3.559,3.6686,3.6705,3.8079,3.9008,3.9045,3.9101,3.9101,3.9101,3.9101,3.9092,3.895,3.8939,3.8619,1.3446,1.5283,2.0042,2.4736,2.8767,2.9828,3.0946,3.2212,3.3166,3.3605,3.3532,3.2985,3.2501,3.2038,3.1591,3.1294,3.1243,3.1446,3.1495,3.1446,3.1604,3.1758,3.1758,3.1997,3.217,3.2413,3.2937,3.3403,3.3821,3.4622,3.5089,3.5108,3.5193,3.5242,3.5293,3.5242,3.5254,3.5369,3.5339,3.5369,3.535,3.4866,3.3872,3.2519,3.1981,3.1457,3.0878,3.0651,3.0564,3.0639,3.0682,3.0728,3.0708,3.0771,3.0801,3.0801,3.0801,3.0801,3.0801,3.0801,3.0796,3.0791,3.0963,3.1106,3.1193,3.1874,3.245,3.2694,3.2636,3.2992,3.3595,3.4296,3.4744,3.5037,3.5647,3.5951,3.5918,3.5909,3.5877,3.5814,3.5756,3.5704,3.5704,3.5704,3.5704,3.5704,3.5704,3.5662,3.5601,3.5553,3.5457,3.5251,3.4997,3.4832,3.4774,3.4505,3.4245,3.4216,3.4216,3.4216,3.4327,3.5646,3.6686,3.6853,3.8191,3.8952,3.9064,3.9101,3.9073,3.9073,3.9017,3.8913,3.8676,3.8664,3.841,1.0149,1.1044,1.8712,2.3399,2.5418,2.8661,3.0253,3.0813,3.267,3.3559,3.3605,3.355,3.3496,3.3323,3.1991,3.12,3.112,3.1556,3.1673,3.1604,3.2228,3.2566,3.2672,3.3416,3.3889,3.3925,3.4045,3.44,3.4849,3.52,3.5354,3.5296,3.527,3.5285,3.5308,3.5285,3.5304,3.5324,3.5369,3.5379,3.536,3.5393,3.4948,3.4012,3.2706,3.1945,3.1699,3.1087,3.074,3.0726,3.082,3.0838,3.078,3.0799,3.0801,3.0801,3.0821,3.0821,3.086,3.0919,3.0908,3.0899,3.1562,3.1924,3.1936,3.2688,3.3465,3.433,3.433,3.4452,3.4521,3.4729,3.5098,3.5745,3.5875,3.5937,3.5974,3.5919,3.5869,3.5794,3.5747,3.5715,3.5704,3.5704,3.5704,3.5704,3.5704,3.562,3.5418,3.5383,3.5281,3.5049,3.4813,3.463,3.4586,3.4386,3.4245,3.4216,3.4216,3.4216,3.4754,3.5367,3.6129,3.6983,3.8079,3.8767,3.899,3.9073,3.9064,3.8989,3.8778,3.8628,3.8473,3.8047,3.7808,0.822,1.3362,1.8387,2.2834,2.6555,2.7389,2.9221,3.1899,3.2327,3.2924,3.353,3.3605,3.3671,3.3725,3.3058,3.2665,3.2599,3.2918,3.3004,3.2963,3.3238,3.3366,3.3456,3.3882,3.4147,3.4311,3.4529,3.4714,3.4908,3.5122,3.5207,3.519,3.527,3.532,3.5304,3.53,3.5335,3.5369,3.543,3.5477,3.5495,3.5631,3.5502,3.5137,3.4124,3.3315,3.2772,3.2483,3.2127,3.1624,3.1616,3.1387,3.088,3.0801,3.0801,3.0841,3.1309,3.1641,3.1699,3.2168,3.2455,3.2446,3.2697,3.2877,3.2966,3.3619,3.4276,3.4618,3.5206,3.5467,3.5509,3.5519,3.5632,3.5859,3.5898,3.5894,3.588,3.585,3.582,3.5752,3.5698,3.5704,3.5704,3.5704,3.5704,3.5704,3.5704,3.5577,3.5391,3.5355,3.5219,3.487,3.4655,3.4526,3.434,3.4293,3.4216,3.4216,3.4216,3.4216,3.455,3.5182,3.5906,3.6671,3.7774,3.8581,3.8822,3.9027,3.9017,3.8921,3.8707,3.831,3.8263,3.7808,3.7487,0.655,1.3974,1.6997,2.1271,2.6056,2.6276,2.8598,3.2229,3.2073,3.2556,3.3455,3.3605,3.3726,3.3842,3.3753,3.3671,3.3633,3.3762,3.3834,3.3815,3.3807,3.3815,3.3895,3.4099,3.4334,3.451,3.4851,3.5054,3.5107,3.519,3.5235,3.5243,3.5311,3.5345,3.5355,3.5345,3.5379,3.543,3.5489,3.5535,3.564,3.5733,3.5795,3.5689,3.5243,3.4586,3.377,3.3473,3.3103,3.2614,3.2519,3.2246,3.1719,3.1641,3.1641,3.1719,3.2207,3.2519,3.2578,3.3066,3.3378,3.3417,3.3671,3.3799,3.3821,3.4596,3.5025,3.5209,3.5568,3.601,3.601,3.5991,3.5989,3.5915,3.5894,3.5879,3.5795,3.5779,3.5752,3.5728,3.5716,3.5704,3.5704,3.5704,3.5704,3.5704,3.5643,3.5489,3.5273,3.52,3.5051,3.4612,3.4545,3.4416,3.4298,3.4221,3.4216,3.4216,3.4216,3.4216,3.4364,3.4996,3.5632,3.6441,3.7275,3.8126,3.8665,3.8906,3.8913,3.8815,3.8392,3.7946,3.7738,3.7524,3.717,0.5282,1.1955,1.4271,1.8416,2.3524,2.5299,2.8151,3.1127,3.1777,3.2524,3.353,3.3605,3.3726,3.3868,3.3887,3.3947,3.3998,3.3842,3.3815,3.3895,3.3868,3.3895,3.3998,3.4242,3.4572,3.4889,3.5289,3.546,3.546,3.5455,3.547,3.5456,3.5438,3.5451,3.5507,3.5451,3.5443,3.5514,3.5535,3.5581,3.5687,3.5781,3.5844,3.5894,3.5873,3.5483,3.4647,3.3942,3.3571,3.3434,3.3398,3.3417,3.3202,3.3163,3.328,3.3183,3.3358,3.3398,3.3417,3.3534,3.369,3.3788,3.4295,3.4705,3.48,3.5405,3.5874,3.5851,3.5932,3.601,3.601,3.601,3.597,3.5914,3.5882,3.5864,3.5795,3.5737,3.5708,3.5706,3.5704,3.5704,3.5704,3.5704,3.5704,3.5651,3.5521,3.5316,3.5083,3.4981,3.4733,3.439,3.4363,3.4367,3.4293,3.4216,3.4216,3.4216,3.4216,3.4216,3.4303,3.4767,3.5188,3.5928,3.7073,3.7942,3.8635,3.8836,3.8609,3.8423,3.7946,3.756,3.734,3.7132,3.6856,0.3501,0.7898,1.1662,1.6506,2.1694,2.3659,2.6452,2.9792,3.1079,3.2411,3.3455,3.3605,3.3762,3.4023,3.3972,3.4023,3.4148,3.4037,3.4037,3.4124,3.4148,3.4074,3.408,3.451,3.4962,3.5273,3.5432,3.5522,3.5558,3.557,3.5607,3.5621,3.5611,3.5631,3.5631,3.5611,3.5611,3.566,3.5749,3.5794,3.5833,3.5909,3.5955,3.5958,3.5988,3.5832,3.5568,3.5324,3.4898,3.4315,3.4295,3.4042,3.3554,3.3398,3.3398,3.3456,3.3983,3.4295,3.4374,3.4842,3.5112,3.521,3.5447,3.5584,3.5603,3.5815,3.601,3.601,3.601,3.601,3.601,3.601,3.5954,3.5854,3.5864,3.5866,3.5763,3.5708,3.5698,3.5695,3.5704,3.5704,3.5704,3.5704,3.5651,3.554,3.5438,3.5262,3.4925,3.4851,3.4713,3.4321,3.4344,3.434,3.4245,3.4216,3.4173,3.4191,3.4191,3.4216,3.4303,3.437,3.4805,3.5643,3.6748,3.7679,3.8416,3.8579,3.8342,3.808,3.7685,3.7358,3.7073,3.6816,3.6609,-0.1207,0.2719,0.8329,1.403,1.9387,2.2261,2.5617,2.8885,3.0902,3.2411,3.3455,3.377,3.4005,3.4298,3.4315,3.4411,3.4538,3.4459,3.4459,3.4515,3.4461,3.4367,3.4284,3.4813,3.5232,3.5474,3.5522,3.5565,3.5607,3.5618,3.566,3.5745,3.5718,3.5737,3.5753,3.5737,3.571,3.5767,3.5846,3.5919,3.5938,3.5962,3.601,3.601,3.601,3.601,3.601,3.601,3.5759,3.5291,3.5174,3.4881,3.4413,3.4393,3.4354,3.4471,3.4822,3.5174,3.5252,3.5642,3.601,3.601,3.601,3.601,3.601,3.601,3.601,3.601,3.601,3.5971,3.5974,3.5966,3.5898,3.5791,3.5869,3.5869,3.5782,3.5718,3.5718,3.5695,3.5704,3.5704,3.5704,3.562,3.5553,3.5424,3.5292,3.5133,3.4793,3.4752,3.4502,3.434,3.4316,3.4269,3.424,3.4173,3.4148,3.4124,3.4142,3.4191,3.4253,3.4109,3.4293,3.5454,3.6618,3.7497,3.8199,3.814,3.7946,3.7667,3.745,3.7167,3.6913,3.6713,3.6527,-0.7925,-0.3027,0.4293,1.0486,1.5939,2.0986,2.5185,2.8553,3.0748,3.2302,3.3439,3.3961,3.4302,3.4609,3.4737,3.4914,3.5124,3.5025,3.4993,3.4996,3.4902,3.4794,3.485,3.5147,3.5347,3.5515,3.5593,3.5609,3.565,3.5659,3.5706,3.5858,3.5788,3.5774,3.5858,3.5774,3.5781,3.5889,3.5899,3.5942,3.5988,3.601,3.5994,3.5996,3.5994,3.5996,3.5984,3.5986,3.5982,3.5957,3.5882,3.5806,3.5901,3.5977,3.5808,3.5749,3.594,3.5903,3.596,3.5947,3.5986,3.5987,3.5986,3.5999,3.5986,3.5987,3.5987,3.5986,3.5986,3.5964,3.5909,3.5879,3.5837,3.5733,3.5833,3.5866,3.5803,3.5747,3.5716,3.5715,3.5704,3.5704,3.5662,3.5509,3.5405,3.5273,3.5066,3.487,3.4674,3.4545,3.4409,3.434,3.4288,3.4288,3.4221,3.4067,3.4023,3.3972,3.3947,3.3902,3.4039,3.3945,3.4152,3.5321,3.6313,3.7185,3.7736,3.7769,3.7632,3.7376,3.7167,3.697,3.6788,3.6626,3.6485,-1.3099,-0.9096,-0.0666,0.5114,0.9683,1.7761,2.3352,2.6174,2.8894,3.1626,3.3255,3.385,3.4237,3.4586,3.4737,3.4899,3.509,3.522,3.529,3.5341,3.5427,3.5415,3.5411,3.5396,3.5472,3.5631,3.5659,3.5741,3.5813,3.5801,3.5864,3.5958,3.5912,3.5927,3.5955,3.5931,3.5927,3.5958,3.5981,3.5965,3.5994,3.5994,3.5964,3.5916,3.5925,3.5914,3.5915,3.5912,3.5917,3.5917,3.5936,3.5937,3.5935,3.5934,3.5934,3.5934,3.5914,3.5914,3.5914,3.5933,3.5912,3.5908,3.5932,3.5927,3.5927,3.5929,3.5909,3.593,3.593,3.5932,3.5894,3.5828,3.5741,3.5654,3.5697,3.5747,3.5737,3.5707,3.5716,3.5715,3.5704,3.562,3.5509,3.5405,3.5273,3.5069,3.4889,3.4732,3.4524,3.4626,3.4587,3.4367,3.4282,3.4264,3.4173,3.4016,3.3887,3.3788,3.3662,3.3447,3.3637,3.375,3.433,3.519,3.5962,3.6822,3.7326,3.756,3.7339,3.7129,3.6992,3.6829,3.6708,3.6544,3.6485,-1.545,-1.3617,-0.0685,0.5219,0.7589,1.9468,2.578,2.757,3.0242,3.2391,3.3869,3.4252,3.4509,3.484,3.494,3.5116,3.5292,3.5474,3.5558,3.558,3.5657,3.5703,3.5671,3.5582,3.5613,3.5689,3.5727,3.5786,3.5848,3.5848,3.5903,3.5956,3.5956,3.5957,3.5937,3.5956,3.5976,3.5956,3.5976,3.5937,3.5956,3.5956,3.5937,3.5896,3.5898,3.5893,3.5899,3.5896,3.5884,3.5893,3.5894,3.589,3.5896,3.5893,3.5893,3.5893,3.5893,3.5896,3.5893,3.5893,3.589,3.5887,3.5884,3.5887,3.5887,3.5884,3.589,3.589,3.5884,3.583,3.5741,3.5609,3.5526,3.5498,3.5468,3.5509,3.5598,3.5681,3.5654,3.5601,3.5565,3.5509,3.5283,3.5228,3.5066,3.487,3.4772,3.4586,3.4404,3.4666,3.4899,3.476,3.4841,3.5002,3.4678,3.4383,3.3668,3.3528,3.3262,3.305,3.3288,3.3573,3.436,3.5079,3.5705,3.638,3.7022,3.7376,3.7223,3.7009,3.6869,3.6748,3.6667,3.6544,3.6485,-1.6443,-1.7085,0.0476,0.6807,0.7228,2.1134,2.7095,2.9908,3.1544,3.3456,3.45,3.4821,3.4937,3.5213,3.5262,3.5509,3.569,3.5747,3.5786,3.5776,3.5778,3.5747,3.5699,3.5759,3.5745,3.5724,3.5778,3.5801,3.5799,3.578,3.5813,3.5857,3.5871,3.5868,3.5832,3.5871,3.5848,3.5851,3.5851,3.5851,3.5851,3.5832,3.5845,3.5814,3.5821,3.5811,3.5833,3.5827,3.5845,3.5853,3.5884,3.5884,3.5884,3.588,3.588,3.5873,3.5864,3.5864,3.5853,3.5841,3.5817,3.5802,3.5807,3.583,3.5777,3.5766,3.5772,3.578,3.5812,3.5663,3.5494,3.5258,3.5203,3.527,3.5197,3.5254,3.5407,3.5541,3.5565,3.5405,3.5359,3.5273,3.5114,3.4962,3.4889,3.4749,3.4736,3.4862,3.4907,3.5274,3.5442,3.5488,3.5658,3.5954,3.5423,3.4834,3.3882,3.3185,3.2855,3.2692,3.3019,3.3466,3.4264,3.503,3.5827,3.6518,3.7106,3.7206,3.7048,3.6987,3.6869,3.6788,3.6748,3.6585,3.6502,-1.9486,-1.9597,-0.9197,-0.334,0.0219,0.8981,1.7985,2.5769,2.6525,3.0146,3.3768,3.4874,3.5018,3.5243,3.5326,3.5581,3.572,3.5818,3.587,3.5884,3.5778,3.5736,3.5717,3.579,3.5815,3.5773,3.5786,3.5763,3.5719,3.5641,3.563,3.5657,3.5658,3.5677,3.5671,3.5671,3.5657,3.5657,3.5657,3.5677,3.5677,3.5671,3.5691,3.5659,3.5639,3.5591,3.5588,3.559,3.5572,3.564,3.5767,3.5858,3.5807,3.5813,3.5794,3.5779,3.5768,3.576,3.576,3.564,3.5499,3.5523,3.5512,3.5434,3.5423,3.5458,3.5458,3.5473,3.5425,3.5348,3.5211,3.5146,3.5086,3.5051,3.5066,3.5066,3.5089,3.5152,3.5228,3.5178,3.5162,3.5117,3.4963,3.4908,3.481,3.4658,3.4815,3.512,3.5435,3.571,3.5974,3.6039,3.636,3.6431,3.5323,3.4558,3.3575,3.2915,3.2611,3.2599,3.2947,3.3546,3.4412,3.5242,3.5975,3.6632,3.717,3.7147,3.7009,3.6948,3.6908,3.6806,3.6725,3.6585,3.6502,-1.7195,-1.7239,-0.7835,-0.2232,0.1358,0.9108,1.7594,2.4603,2.5793,2.8746,3.2834,3.3716,3.4086,3.4757,3.4792,3.4978,3.5446,3.5683,3.5774,3.578,3.5714,3.5635,3.5585,3.5619,3.5652,3.5664,3.5703,3.5624,3.5505,3.5407,3.5336,3.5253,3.5345,3.5424,3.5445,3.5485,3.5563,3.5563,3.5543,3.5543,3.5563,3.5563,3.5553,3.5551,3.5504,3.5495,3.5498,3.5509,3.5489,3.5531,3.5621,3.5697,3.5669,3.5659,3.5649,3.5607,3.5604,3.5519,3.5476,3.5393,3.5306,3.5297,3.5264,3.5249,3.5254,3.5249,3.5249,3.5288,3.5243,3.5149,3.5015,3.4889,3.4851,3.4889,3.487,3.487,3.4926,3.5015,3.5064,3.5032,3.4997,3.4926,3.4831,3.4732,3.4602,3.4405,3.4878,3.5169,3.5219,3.5601,3.6351,3.6626,3.6978,3.6648,3.5286,3.4203,3.3113,3.2682,3.2492,3.2739,3.3125,3.3828,3.4654,3.5337,3.5987,3.6601,3.7048,3.697,3.697,3.693,3.6908,3.6806,3.6684,3.6602,3.6502,-1.2971,-1.3484,-0.3874,0.1301,0.4595,1.1456,1.8647,2.5554,2.6438,2.812,3.1756,3.2076,3.2878,3.3694,3.3772,3.418,3.4769,3.5128,3.5186,3.5347,3.5263,3.5207,3.518,3.5161,3.5136,3.5253,3.5357,3.5303,3.5177,3.5101,3.4958,3.4824,3.4947,3.5097,3.5166,3.5311,3.5393,3.5419,3.5438,3.5438,3.5438,3.5438,3.5438,3.5438,3.5438,3.5424,3.5415,3.5426,3.5435,3.5464,3.5445,3.5432,3.5445,3.547,3.5477,3.5386,3.5391,3.5331,3.5249,3.5189,3.513,3.5149,3.513,3.5146,3.5133,3.5098,3.5098,3.5117,3.5069,3.498,3.4851,3.4691,3.467,3.4732,3.4649,3.4649,3.4792,3.4906,3.487,3.487,3.4773,3.4651,3.4545,3.4413,3.4277,3.4282,3.4823,3.5219,3.5327,3.5752,3.6616,3.6967,3.7241,3.6566,3.5218,3.4153,3.3054,3.2651,3.2511,3.2897,3.3336,3.4056,3.474,3.5285,3.5899,3.6566,3.697,3.697,3.697,3.697,3.6948,3.6829,3.6766,3.6602,3.6502,-1.0541,-1.0075,-0.8969,-0.4547,0.164,0.3788,1.129,2.0485,2.2219,2.5505,3.0384,3.1195,3.1783,3.26,3.2754,3.3216,3.3878,3.4147,3.4282,3.4452,3.4453,3.4432,3.4412,3.443,3.4325,3.4306,3.4567,3.4755,3.4699,3.4658,3.454,3.4536,3.4617,3.4697,3.487,3.4999,3.5102,3.5184,3.5219,3.52,3.52,3.52,3.5212,3.5212,3.5224,3.5219,3.5209,3.5245,3.5258,3.5254,3.519,3.5176,3.5155,3.5258,3.5331,3.5336,3.5235,3.5133,3.5133,3.4981,3.4926,3.4908,3.4908,3.4889,3.487,3.4851,3.4851,3.4831,3.4772,3.467,3.4647,3.4454,3.4454,3.4539,3.4476,3.4404,3.4413,3.4439,3.4486,3.4545,3.4476,3.4367,3.4274,3.4204,3.4186,3.4394,3.4965,3.5457,3.5731,3.6429,3.7356,3.7504,3.7453,3.6327,3.5047,3.4147,3.3231,3.2915,3.2827,3.3125,3.3617,3.4214,3.4828,3.5618,3.618,3.6742,3.697,3.697,3.697,3.697,3.6948,3.6908,3.6766,3.6661,3.6502,-0.7841,-0.7079,-0.7003,-0.3045,0.2433,0.2495,0.8633,1.823,1.9547,2.3016,2.7337,2.9091,3.0166,3.1322,3.1727,3.2228,3.2911,3.3227,3.3269,3.3294,3.3393,3.3497,3.3515,3.3626,3.3576,3.3496,3.3696,3.3913,3.4,3.4054,3.4018,3.3981,3.4165,3.4416,3.4526,3.4653,3.4734,3.4832,3.4832,3.4832,3.4851,3.4851,3.4869,3.4935,3.4884,3.485,3.4832,3.479,3.4771,3.4754,3.4714,3.4694,3.4715,3.4756,3.4887,3.5034,3.4982,3.4927,3.4908,3.4751,3.471,3.473,3.4708,3.4687,3.4706,3.4687,3.4626,3.4539,3.4495,3.4404,3.4293,3.4197,3.4245,3.434,3.4269,3.4197,3.4221,3.4105,3.4087,3.4136,3.413,3.4062,3.3968,3.3952,3.4054,3.4491,3.5074,3.5626,3.6076,3.6789,3.7577,3.736,3.714,3.6372,3.5252,3.4442,3.3775,3.3424,3.3195,3.3475,3.4053,3.4771,3.5528,3.632,3.6777,3.697,3.697,3.697,3.697,3.697,3.697,3.6908,3.6783,3.6661,3.6561,-0.5708,-0.4501,-0.3635,-0.0077,0.4304,0.4405,0.9201,1.6474,1.8082,2.1211,2.5756,2.652,2.7888,2.9763,3.0589,3.1127,3.1983,3.2125,3.1986,3.1998,3.2277,3.2416,3.2402,3.2585,3.2706,3.2606,3.2592,3.2818,3.3263,3.3432,3.3385,3.3393,3.3752,3.3961,3.4,3.4086,3.4228,3.4278,3.4319,3.4319,3.442,3.4445,3.4501,3.4678,3.4546,3.451,3.4517,3.447,3.4437,3.4413,3.4375,3.4307,3.4284,3.4184,3.4316,3.4561,3.4626,3.4583,3.4583,3.4539,3.4539,3.452,3.452,3.4517,3.4473,3.4427,3.4386,3.4269,3.4221,3.4197,3.4074,3.3928,3.3961,3.408,3.3986,3.3884,3.3884,3.3787,3.3579,3.3625,3.3725,3.3734,3.3634,3.3938,3.4081,3.4595,3.522,3.5847,3.6315,3.6664,3.7129,3.6907,3.6597,3.6233,3.5507,3.4931,3.446,3.4196,3.391,3.3958,3.4693,3.5465,3.6116,3.6536,3.6847,3.697,3.697,3.697,3.697,3.697,3.697,3.6908,3.6766,3.6661,3.6602,-0.5351,-0.2966,-0.2074,0.084,0.4917,0.7147,1.1081,1.5912,1.7713,2.0288,2.3632,2.4107,2.557,2.7674,2.917,2.9789,3.0153,3.0351,3.0493,3.0622,3.0976,3.1052,3.09,3.1175,3.147,3.1537,3.1514,3.2092,3.2595,3.2787,3.2885,3.2872,3.2885,3.3069,3.3216,3.333,3.3451,3.3584,3.3611,3.3832,3.4179,3.411,3.418,3.4292,3.4353,3.4358,3.4315,3.4268,3.4241,3.4255,3.4227,3.4203,3.4197,3.408,3.4049,3.4074,3.4124,3.4173,3.4293,3.434,3.4358,3.434,3.4335,3.4245,3.4197,3.4148,3.4124,3.403,3.4049,3.3998,3.3895,3.3643,3.3625,3.3625,3.3643,3.3476,3.34,3.3429,3.3225,3.3075,3.3184,3.3304,3.3328,3.3755,3.4187,3.4747,3.5366,3.5995,3.6461,3.6755,3.6851,3.6684,3.6631,3.6265,3.592,3.5329,3.5081,3.4911,3.46,3.4445,3.5087,3.5734,3.5891,3.6296,3.6649,3.6851,3.6753,3.6794,3.693,3.693,3.6908,3.6829,3.6725,3.6643,3.6602,-0.2794,-0.1325,0.085,0.354,0.6329,0.7912,1.1071,1.4701,1.5989,1.8506,2.1651,2.2528,2.4343,2.6872,2.8654,2.922,2.9207,2.9162,2.9207,2.9323,2.9588,2.9702,2.9799,2.9985,3.0245,3.0501,3.0575,3.0818,3.1445,3.1934,3.2126,3.2109,3.2091,3.209,3.2325,3.2509,3.2652,3.2791,3.2961,3.3183,3.3419,3.3579,3.3721,3.3877,3.3979,3.3963,3.3925,3.388,3.3835,3.385,3.3788,3.3753,3.3753,3.3698,3.3643,3.3643,3.3671,3.3815,3.4055,3.4117,3.4117,3.4142,3.4111,3.4079,3.4016,3.3972,3.3921,3.3842,3.3815,3.3762,3.3671,3.3397,3.339,3.339,3.3243,3.3184,3.3063,3.2908,3.283,3.2734,3.2692,3.3022,3.3321,3.3771,3.4429,3.5279,3.5661,3.6057,3.6431,3.6684,3.669,3.6568,3.6557,3.6533,3.6242,3.5828,3.5687,3.5439,3.4904,3.4902,3.5425,3.5897,3.5966,3.6077,3.6399,3.6509,3.6492,3.6655,3.6811,3.6811,3.6829,3.6708,3.6585,3.6585,3.6502,-0.0156,0.0311,0.3494,0.5822,0.7439,0.8727,1.123,1.4047,1.5101,1.7494,2.0522,2.2262,2.4313,2.6332,2.7875,2.8418,2.8321,2.8321,2.8288,2.8255,2.8384,2.8591,2.8748,2.8887,2.9191,2.9597,2.9565,2.9854,3.0236,3.0573,3.0875,3.1274,3.1333,3.1281,3.1394,3.1702,3.1969,3.2178,3.2417,3.2621,3.2791,3.2943,3.3178,3.3346,3.34,3.3364,3.3327,3.334,3.3327,3.3309,3.3433,3.3433,3.3393,3.3357,3.3316,3.3316,3.3268,3.3386,3.3616,3.3742,3.3828,3.385,3.3789,3.3679,3.3671,3.3762,3.3734,3.3512,3.3512,3.3444,3.3316,3.3135,3.305,3.2988,3.2912,3.2894,3.2813,3.2553,3.242,3.2422,3.2564,3.3124,3.3475,3.3878,3.4653,3.5661,3.6078,3.6239,3.6342,3.6451,3.6343,3.6174,3.6284,3.6308,3.6094,3.5928,3.5973,3.588,3.5335,3.5146,3.5547,3.5744,3.5812,3.6011,3.6131,3.6199,3.6165,3.6451,3.6731,3.665,3.6626,3.6527,3.6485,3.6444,3.6402,0.1952,0.1713,0.5186,0.6663,0.7218,1.1341,1.2903,1.3245,1.5808,1.7707,1.9899,2.2912,2.4557,2.5412,2.64,2.724,2.7423,2.7503,2.7408,2.7545,2.7745,2.7665,2.775,2.7883,2.8209,2.8623,2.8717,2.8979,2.922,2.9175,2.9724,3.0385,3.0377,3.051,3.069,3.0897,3.1304,3.1565,3.1768,3.2071,3.2284,3.244,3.2502,3.2777,3.2684,3.2491,3.2529,3.2743,3.2827,3.2876,3.3068,3.3117,3.3006,3.2975,3.2961,3.2898,3.2848,3.2912,3.2983,3.3273,3.3419,3.339,3.3291,3.3196,3.3208,3.3178,3.3147,3.316,3.316,3.3129,3.3006,3.2866,3.2636,3.2519,3.2403,3.23,3.2214,3.2039,3.1948,3.2033,3.2394,3.2965,3.3671,3.4108,3.4723,3.5732,3.604,3.6173,3.5958,3.5968,3.5793,3.5705,3.5837,3.5837,3.5677,3.5654,3.5761,3.5718,3.5345,3.5228,3.5369,3.5515,3.5694,3.5633,3.5722,3.5793,3.5864,3.5924,3.6071,3.636,3.6461,3.6385,3.6199,3.6071,3.6174,0.2737,0.3355,0.6133,0.7298,0.7621,1.0409,1.1835,1.2338,1.3924,1.6079,1.8568,2.1908,2.3644,2.4097,2.5329,2.5974,2.6014,2.6379,2.6336,2.6201,2.6172,2.64,2.6587,2.6916,2.7071,2.773,2.7879,2.8061,2.8354,2.8209,2.8354,2.8872,2.9148,2.9422,2.9661,3.0038,3.0444,3.0788,3.0902,3.1162,3.1854,3.1795,3.1735,3.1841,3.2419,3.2336,3.2388,3.2457,3.2419,3.2417,3.255,3.2535,3.2519,3.2504,3.2437,3.2369,3.2369,3.2335,3.2352,3.2705,3.3064,3.3046,3.2884,3.2719,3.2802,3.293,3.2979,3.2948,3.2784,3.2651,3.2619,3.2317,3.2039,3.1967,3.1913,3.1748,3.1637,3.1524,3.1661,3.1836,3.2316,3.2865,3.3613,3.4384,3.5032,3.5742,3.5933,3.6011,3.5732,3.5571,3.5436,3.5407,3.5526,3.5644,3.5526,3.5543,3.5571,3.5453,3.5333,3.5241,3.5211,3.5379,3.547,3.5379,3.527,3.5391,3.5436,3.5316,3.5498,3.5871,3.6088,3.6199,3.6011,3.5793,3.5837,0.2973,0.4222,0.615,0.7238,0.7859,0.9906,1.1111,1.1774,1.3288,1.5581,1.8665,2.146,2.2857,2.3454,2.4557,2.5217,2.5217,2.5412,2.5494,2.5481,2.5536,2.5728,2.6068,2.6418,2.6765,2.7144,2.7248,2.7423,2.758,2.7464,2.7535,2.7685,2.7815,2.8158,2.8638,2.9088,2.9569,3.0064,3.0267,3.0382,3.1191,3.1173,3.1218,3.128,3.1763,3.1929,3.1942,3.1984,3.2039,3.2021,3.2039,3.2004,3.195,3.1896,3.1896,3.186,3.1823,3.175,3.1858,3.2091,3.2526,3.2371,3.2335,3.2335,3.2521,3.2588,3.247,3.2639,3.2403,3.2214,3.2179,3.1913,3.1731,3.1694,3.1487,3.1351,3.1274,3.1213,3.1511,3.1754,3.2286,3.2933,3.3753,3.4489,3.4982,3.5494,3.5657,3.5633,3.5362,3.5241,3.5241,3.5195,3.5241,3.5362,3.5481,3.5407,3.5287,3.5241,3.5118,3.5024,3.5041,3.5211,3.5258,3.5165,3.5071,3.5102,3.5102,3.5102,3.5195,3.5424,3.5633,3.5776,3.5766,3.5543,3.5543,0.2506,0.3908,0.5381,0.6472,0.7638,1.0421,1.1403,1.1613,1.4347,1.7201,1.9695,2.1596,2.2603,2.3229,2.3897,2.4328,2.4456,2.4768,2.4951,2.4894,2.5007,2.5591,2.5879,2.6056,2.6096,2.6674,2.6712,2.6645,2.675,2.6669,2.6692,2.6745,2.6864,2.7108,2.76,2.8275,2.91,2.9946,2.9946,3.0044,3.013,3.0318,3.0634,3.089,3.1043,3.11,3.11,3.1223,3.1249,3.1249,3.1514,3.1568,3.1473,3.1565,3.1545,3.1449,3.1466,3.1466,3.1521,3.1674,3.1674,3.1746,3.1768,3.1841,3.1877,3.1877,3.1932,3.2162,3.1896,3.175,3.1657,3.1562,3.1449,3.1295,3.1078,3.0998,3.0918,3.0895,3.1177,3.1688,3.2369,3.3045,3.3929,3.4609,3.4973,3.5253,3.5362,3.5287,3.5024,3.4977,3.5024,3.5024,3.5071,3.5118,3.5195,3.5071,3.4994,3.4947,3.4947,3.4899,3.4899,3.4994,3.4994,3.4899,3.4947,3.4977,3.4994,3.4947,3.5024,3.5102,3.5161,3.5283,3.5316,3.5224,3.5068,0.3052,0.4691,0.5538,0.6692,0.8232,1.019,1.1019,1.152,1.4331,1.6618,1.7775,1.9488,2.0493,2.1169,2.2457,2.3132,2.311,2.4092,2.4292,2.3813,2.406,2.4163,2.4496,2.4894,2.505,2.5273,2.5508,2.5797,2.5742,2.5797,2.6042,2.615,2.6028,2.6602,2.7449,2.803,2.8369,2.8935,2.9028,2.898,2.9019,2.9355,2.9733,3.0006,3.0081,3.0149,3.0123,3.0285,3.0269,3.0269,3.0542,3.0673,3.0649,3.073,3.0902,3.0861,3.0838,3.0838,3.0838,3.0942,3.114,3.1274,3.1351,3.1372,3.1562,3.1617,3.1637,3.1582,3.1393,3.1257,3.1196,3.0958,3.0838,3.0797,3.0675,3.0675,3.0634,3.0609,3.0833,3.1549,3.2276,3.3387,3.4313,3.4515,3.4767,3.4866,3.4913,3.5055,3.493,3.4947,3.4947,3.4947,3.4947,3.4947,3.4899,3.4899,3.4899,3.4899,3.4947,3.4899,3.4899,3.4899,3.4899,3.4899,3.4899,3.4899,3.4899,3.4899,3.4804,3.4818,3.4849,3.4833,3.4833,3.4561,3.4184,0.3365,0.5004,0.5696,0.7,0.8609,1.0185,1.1156,1.2258,1.4434,1.5799,1.6826,1.8267,1.9212,1.9922,2.0928,2.1868,2.1815,2.2665,2.3424,2.2957,2.3198,2.3531,2.3741,2.3846,2.4412,2.4526,2.4697,2.4993,2.4993,2.5119,2.5245,2.5203,2.523,2.5851,2.6678,2.7108,2.7312,2.7715,2.7864,2.7849,2.8003,2.8244,2.8513,2.8824,2.9053,2.9297,2.9345,2.9361,2.9284,2.9284,2.9435,2.9733,2.9837,3.0027,3.0342,3.0426,3.051,3.051,3.0551,3.0551,3.0797,3.1038,3.0918,3.0998,3.1196,3.1179,3.1235,3.1157,3.0861,3.0658,3.0535,3.0284,3.0156,3.0156,3.029,3.029,3.056,3.0592,3.0952,3.1696,3.2471,3.3587,3.4409,3.4445,3.4513,3.448,3.4431,3.4578,3.4787,3.4787,3.4851,3.4899,3.4899,3.4899,3.4899,3.4899,3.4899,3.4899,3.4899,3.4899,3.4899,3.4899,3.4899,3.4899,3.4899,3.4899,3.4899,3.4899,3.4739,3.4594,3.4497,3.448,3.4399,3.4068,3.3658,0.3439,0.5002,0.5857,0.7161,0.8846,1.034,1.2117,1.4122,1.4266,1.5492,1.7474,1.7629,1.8526,1.9759,2.0204,2.0655,2.1175,2.1553,2.2002,2.2519,2.2811,2.3148,2.3446,2.3787,2.3846,2.4124,2.4355,2.4253,2.4412,2.4368,2.4323,2.4337,2.4465,2.5021,2.5577,2.596,2.6269,2.6797,2.7004,2.7004,2.7078,2.7166,2.735,2.7637,2.7992,2.8466,2.8717,2.8888,2.8965,2.9011,2.9073,2.9332,2.9572,2.975,3.007,3.03,3.0342,3.0284,3.0241,3.0199,3.0258,3.0326,3.0368,3.0593,3.0716,3.0576,3.0477,3.0435,3.0182,2.9968,2.9793,2.9617,2.9438,2.9621,2.9863,3.0138,3.059,3.0903,3.1341,3.1967,3.274,3.3535,3.4154,3.4317,3.4052,3.3951,3.3951,3.4002,3.4251,3.4643,3.4691,3.4899,3.4899,3.4899,3.4899,3.4899,3.4899,3.4899,3.4899,3.4899,3.4899,3.4899,3.4899,3.4899,3.4899,3.4899,3.4899,3.4804,3.4691,3.4497,3.4349,3.4201,3.4218,3.3882,3.3555,0.3441,0.4616,0.5628,0.7314,0.9442,1.1174,1.2445,1.3331,1.3977,1.51,1.6131,1.6904,1.7745,1.8586,1.9309,1.9694,2.0074,2.0526,2.091,2.1416,2.199,2.2051,2.231,2.275,2.2884,2.3053,2.3173,2.3399,2.3458,2.3458,2.3505,2.3505,2.3813,2.4163,2.4465,2.4765,2.5577,2.6162,2.6254,2.6201,2.6215,2.6304,2.628,2.6379,2.6945,2.7425,2.762,2.7947,2.7997,2.8061,2.8336,2.8622,2.867,2.9058,2.9438,2.9438,2.9483,2.9438,2.9409,2.9438,2.9528,2.9544,2.9483,2.975,2.9881,2.9853,2.9661,2.9661,2.9572,2.9348,2.9307,2.9247,2.9249,2.9516,2.9737,3.0148,3.0577,3.0941,3.1413,3.2265,3.3008,3.3265,3.3853,3.3681,3.3459,3.3407,3.3407,3.3459,3.3665,3.4052,3.4333,3.4529,3.4756,3.4756,3.4851,3.4851,3.4899,3.4899,3.4787,3.4691,3.4675,3.4723,3.4851,3.4899,3.4899,3.4899,3.4899,3.4804,3.4691,3.4448,3.425,3.4101,3.3949,3.3694,3.3555,0.4142,0.5384,0.6465,0.8152,1.0196,1.1626,1.2378,1.2746,1.3331,1.4178,1.5251,1.6026,1.6941,1.792,1.8519,1.8977,1.9299,1.9759,2.0268,2.1049,2.0996,2.1577,2.1788,2.1937,2.2247,2.2309,2.2297,2.2457,2.2519,2.2506,2.2555,2.2665,2.3088,2.3399,2.3636,2.4047,2.461,2.5231,2.5494,2.5439,2.5425,2.5439,2.526,2.5397,2.5957,2.6147,2.639,2.6811,2.6864,2.693,2.7232,2.7419,2.7705,2.829,2.8904,2.8966,2.909,2.9028,2.8919,2.8919,2.8919,2.8858,2.8764,2.8826,2.9012,2.912,2.909,2.9136,2.8904,2.8748,2.8841,2.8996,2.9259,2.949,2.9834,3.013,3.0522,3.0865,3.1632,3.2503,3.297,3.3124,3.3214,3.2986,3.2826,3.2788,3.2695,3.2641,3.2949,3.3423,3.3681,3.3885,3.4267,3.4497,3.4594,3.4594,3.4546,3.4382,3.4102,3.4086,3.4301,3.4464,3.4546,3.4691,3.4899,3.4899,3.4804,3.4851,3.4804,3.4497,3.43,3.4201,3.4,3.3694,3.3642,0.5226,0.6765,0.8071,0.9442,1.1031,1.1706,1.2157,1.2305,1.2599,1.3462,1.4824,1.533,1.6385,1.7569,1.8056,1.8385,1.8576,1.8911,1.9365,2.0805,2.0537,2.073,2.1198,2.1925,2.1663,2.1788,2.1862,2.1788,2.1651,2.1651,2.1765,2.1827,2.2002,2.2359,2.2907,2.3135,2.3657,2.4208,2.4509,2.4483,2.4452,2.4408,2.4465,2.4821,2.5104,2.5203,2.5563,2.5783,2.5783,2.5783,2.5892,2.6172,2.6709,2.7309,2.7984,2.8161,2.8128,2.8015,2.7902,2.7887,2.8171,2.8186,2.8284,2.8252,2.8388,2.8642,2.874,2.8848,2.8728,2.8947,2.91,2.9098,2.927,2.9553,2.9871,3.022,3.0533,3.0991,3.1705,3.2438,3.2562,3.2749,3.2586,3.2422,3.2312,3.2231,3.212,3.2007,3.2216,3.2734,3.3093,3.3287,3.3681,3.4018,3.4018,3.4018,3.4034,3.3866,3.3563,3.3511,3.3716,3.3951,3.4184,3.4284,3.4415,3.4643,3.4707,3.4756,3.4756,3.4513,3.43,3.425,3.405,3.3745,3.3591,0.5915,0.6608,0.8832,1.0137,1.0738,1.1484,1.2077,1.2526,1.2599,1.3462,1.476,1.5259,1.6114,1.7373,1.7725,1.792,1.793,1.8124,1.8182,1.8777,1.91,1.9683,1.9748,2.0666,2.0794,2.0869,2.1008,2.1273,2.1221,2.1158,2.1031,2.1019,2.1262,2.1803,2.1928,2.2163,2.2713,2.3327,2.3446,2.3695,2.3897,2.4086,2.4287,2.4447,2.4549,2.4751,2.5063,2.5287,2.5398,2.5522,2.5522,2.5605,2.5741,2.6051,2.6212,2.6226,2.6491,2.6505,2.651,2.6621,2.6833,2.7083,2.723,2.7697,2.7988,2.8271,2.8523,2.8643,2.883,2.9115,2.9297,2.9259,2.9327,2.9669,3.0026,3.0261,3.0567,3.1177,3.1835,3.2053,3.2201,3.212,3.2007,3.191,3.1754,3.1697,3.1697,3.164,3.1567,3.1936,3.2461,3.2772,3.313,3.3407,3.3423,3.3423,3.3439,3.3387,3.3145,3.3145,3.3145,3.3319,3.3543,3.3697,3.385,3.4118,3.4382,3.4691,3.4594,3.4349,3.4349,3.43,3.4151,3.3899,3.3694,0.6758,0.799,0.9825,1.0738,1.1031,1.1409,1.1929,1.2526,1.2599,1.3244,1.4402,1.5117,1.6105,1.7245,1.752,1.7588,1.7539,1.7598,1.7988,1.8114,1.8182,1.8767,1.9222,1.9738,2.0204,2.0473,2.0688,2.0903,2.0711,2.0722,2.0582,2.0453,2.0816,2.1008,2.1008,2.1553,2.1928,2.2543,2.2543,2.2798,2.3233,2.3556,2.3936,2.4099,2.4144,2.4305,2.4292,2.4523,2.4523,2.4624,2.4567,2.4781,2.4881,2.5161,2.5217,2.5384,2.5467,2.5354,2.5406,2.5527,2.5731,2.6243,2.7,2.7741,2.7553,2.7853,2.8649,2.8752,2.8838,2.908,2.9223,2.9197,2.9427,2.9752,3.0234,3.0629,3.0819,3.1183,3.1534,3.1622,3.1724,3.1739,3.1682,3.1682,3.1582,3.1597,3.1467,3.1409,3.1351,3.1307,3.1838,3.2201,3.261,3.2841,3.2857,3.2857,3.2857,3.2788,3.268,3.2625,3.2625,3.2734,3.2895,3.3108,3.3319,3.3578,3.3901,3.4152,3.4234,3.4,3.4151,3.4349,3.4151,3.3882,3.3694,0.7804,0.9986,1.0812,1.126,1.1558,1.1409,1.1781,1.2452,1.2526,1.3032,1.3897,1.4895,1.5956,1.6742,1.7382,1.7392,1.7392,1.7382,1.7784,1.7978,1.824,1.8432,1.8957,1.9672,1.9738,1.9814,1.9966,1.9911,1.9726,1.9791,1.9857,1.9868,2.0064,2.0324,2.0764,2.0944,2.1187,2.1553,2.1741,2.169,2.231,2.2992,2.3424,2.3616,2.3688,2.37,2.3628,2.3569,2.3569,2.3616,2.3721,2.3943,2.4163,2.4337,2.4439,2.4624,2.4811,2.498,2.5261,2.5428,2.5875,2.6526,2.7308,2.7506,2.727,2.7769,2.8521,2.8727,2.8828,2.9013,2.9101,2.9203,2.9507,2.9781,3.0261,3.0644,3.0837,3.1087,3.1219,3.1219,3.1278,3.1351,3.1336,3.1409,3.1409,3.1424,3.1366,3.1292,3.1234,3.1249,3.1467,3.1724,3.1936,3.2104,3.2231,3.2272,3.2327,3.216,3.2104,3.2064,3.2064,3.2216,3.2367,3.2664,3.2879,3.3055,3.3214,3.3407,3.3439,3.3575,3.3713,3.385,3.3543,3.3335,3.3455,0.9357,1.0887,1.1037,1.1105,1.1186,1.1186,1.1558,1.2077,1.2157,1.2879,1.3897,1.4338,1.5046,1.5886,1.689,1.7176,1.6968,1.7028,1.7107,1.7235,1.756,1.7833,1.8162,1.8546,1.8757,1.8834,1.8834,1.8509,1.8921,1.8921,1.8854,1.8977,1.9605,1.9802,1.9802,2.0053,2.0302,2.0666,2.0921,2.0921,2.1502,2.2175,2.2665,2.298,2.3258,2.339,2.339,2.3271,2.3258,2.3258,2.3318,2.3437,2.3543,2.3675,2.3806,2.4046,2.4227,2.4529,2.4826,2.5161,2.5625,2.6091,2.6733,2.726,2.737,2.7877,2.831,2.8373,2.8512,2.8951,2.9068,2.9045,2.917,2.9524,2.9916,2.9927,3.004,3.0539,3.0866,3.0925,3.0984,3.1043,3.1029,3.1043,3.0999,3.0999,3.0999,3.094,3.0866,3.0955,3.1087,3.1249,3.1394,3.1409,3.1509,3.1739,3.1724,3.1567,3.1567,3.1682,3.1739,3.164,3.1838,3.2145,3.2367,3.2547,3.2641,3.2734,3.2933,3.3108,3.3214,3.3251,3.2933,3.2873,3.3027]},{"header":{"parameterUnit":"m.s-1","parameterCategory":1,"la1":31.0,"la2":29.5877,"lo1":-88.7671,"lo2":-86.6584,"dy":0.0162,"dx":0.0185,"nx":115,"ny":88,"refTime":"2023-11-01T12:00:00:Z","depth":0,"parameterNumber":3,"parameterNumberName":"V-component_of_WINDS"},"data":[0.0,0.0,0.0,0.0,0.0,0.0,0.0,0.0,0.0,0.0,0.0,0.0,0.0,0.0,0.0,0.0,0.0,0.0,0.0,0.0,0.0,0.0,0.0,0.0,0.0,0.0,0.0,0.0,0.0,0.0,0.0,0.0,0.0,0.0,0.0,0.0,0.0,0.0,0.0,0.0,0.0,0.0,0.0,0.0,0.0,0.0,0.0,0.0,0.0,0.0,0.0,0.0,0.0,0.0,0.0,0.0,0.0,0.0,0.0,0.0,0.0,0.0,0.0,0.0,0.0,0.0,0.0,0.0,0.0,0.0,0.0,0.0,0.0,0.0,0.0,0.0,0.0,0.0,0.0,0.0,0.0,0.0,0.0,0.0,0.0,0.0,0.0,0.0,0.0,0.0,0.0,0.0,0.0,0.0,0.0,0.0,0.0,0.0,0.0,0.0,0.0,0.0,0.0,0.0,0.0,0.0,0.0,0.0,0.0,0.0,0.0,0.0,0.0,0.0,0.0,0.0,0.0,0.0,0.0,0.0,0.0,0.0,0.0,0.0,0.0,0.0,0.0,0.0,0.0,0.0,0.0,0.0,0.0,0.0,0.0,0.0,0.0,0.0,0.0,0.0,0.0,0.0,0.0,0.0,0.0,0.0,0.0,0.0,0.0,0.0,0.0,0.0,0.0,0.0,0.0,0.0,0.0,0.0,0.0,0.0,0.0,0.0,0.0,0.0,0.0,0.0,0.0,0.0,0.0,0.0,0.0,0.0,0.0,0.0,0.0,0.0,0.0,0.0,0.0,0.0,0.0,0.0,0.0,0.0,0.0,0.0,0.0,0.0,0.0,0.0,0.0,0.0,0.0,0.0,0.0,0.0,0.0,0.0,0.0,0.0,0.0,0.0,0.0,0.0,0.0,0.0,0.0,0.0,0.0,0.0,0.0,0.0,0.0,0.0,0.0,0.0,0.0,0.0,0.0,0.0,0.0,0.0,0.0,0.0,0.0,0.0,0.0,0.0,0.0,0.0,0.0,0.0,0.0,0.0,0.0,0.0,0.0,0.0,0.0,0.0,0.0,0.0,0.0,0.0,0.0,0.0,0.0,0.0,0.0,0.0,0.0,0.0,0.0,0.0,0.0,0.0,0.0,0.0,0.0,0.0,0.0,0.0,0.0,0.0,0.0,0.0,0.0,0.0,0.0,0.0,0.0,0.0,0.0,0.0,0.0,0.0,0.0,0.0,0.0,0.0,0.0,0.0,0.0,0.0,0.0,0.0,0.0,0.0,0.0,0.0,0.0,0.0,0.0,0.0,0.0,0.0,0.0,0.0,0.0,0.0,0.0,0.0,0.0,0.0,0.0,0.0,0.0,0.0,0.0,0.0,0.0,0.0,0.0,0.0,0.0,0.0,0.0,0.0,0.0,0.0,0.0,0.0,0.0,0.0,0.0,0.0,0.0,0.0,0.0,0.0,0.0,0.0,0.0,0.0,0.0,0.0,0.0,0.0,0.0,0.0,0.0,0.0,0.0,0.0,0.0,0.0,0.0,0.0,0.0,0.0,0.0,0.0,0.0,0.0,0.0,0.0,0.0,0.0,0.0,0.0,0.0,0.0,0.0,0.0,0.0,0.0,0.0,0.0,0.0,0.0,0.0,0.0,0.0,0.0,0.0,0.0,0.0,0.0,0.0,0.0,0.0,0.0,0.0,0.0,0.0,0.0,0.0,0.0,0.0,0.0,0.0,0.0,0.0,0.0,0.0,0.0,0.0,0.0,0.0,0.0,0.0,0.0,0.0,0.0,0.0,0.0,0.0,0.0,0.0,0.0,0.0,0.0,0.0,0.0,0.0,0.0,0.0,0.0,0.0,0.0,0.0,0.0,0.0,0.0,0.0,0.0,0.0,0.0,0.0,0.0,0.0,0.0,0.0,0.0,0.0,0.0,0.0,0.0,0.0,0.0,0.0,0.0,0.0,0.0,0.0,0.0,0.0,0.0,0.0,0.0,0.0,0.0,0.0,0.0,0.0,0.0,0.0,0.0,0.0,0.0,0.0,0.0,0.0,0.0,0.0,0.0,0.0,0.0,0.0,0.0,0.0,0.0,0.0,0.0,0.0,0.0,0.0,0.0,0.0,0.0,0.0,0.0,0.0,0.0,0.0,0.0,0.0,0.0,0.0,0.0,0.0,0.0,0.0,0.0,0.0,0.0,0.0,0.0,0.0,0.0,0.0,0.0,0.0,0.0,0.0,0.0,0.0,0.0,0.0,0.0,0.0,0.0,0.0,0.0,0.0,0.0,0.0,0.0,0.0,0.0,0.0,0.0,0.0,0.0,0.0,0.0,0.0,0.0,0.0,0.0,0.0,0.0,0.0,0.0,0.0,0.0,0.0,0.0,0.0,0.0,0.0,0.0,0.0,0.0,0.0,0.0,0.0,0.0,0.0,0.0,0.0,0.0,0.0,0.0,0.0,0.0,0.0,0.0,0.0,0.0,0.0,0.0,0.0,0.0,0.0,0.0,0.0,0.0,0.0,0.0,0.0,0.0,0.0,0.0,0.0,0.0,0.0,0.0,0.0,0.0,0.0,0.0,0.0,0.0,0.0,0.0,0.0,0.0,0.0,0.0,0.0,0.0,0.0,0.0,0.0,0.0,0.0,0.0,0.0,0.0,0.0,0.0,0.0,0.0,0.0,0.0,0.0,0.0,0.0,0.0,0.0,0.0,0.0,0.0,0.0,0.0,0.0,0.0,0.0,0.0,0.0,0.0,0.0,0.0,0.0,0.0,0.0,0.0,0.0,0.0,0.0,0.0,0.0,0.0,0.0,0.0,0.0,0.0,0.0,0.0,0.0,0.0,0.0,0.0,0.0,0.0,0.0,0.0,0.0,0.0,0.0,0.0,0.0,0.0,0.0,0.0,0.0,0.0,0.0,0.0,0.0,0.0,0.0,0.0,0.0,0.0,0.0,0.0,0.0,0.0,0.0,0.0,0.0,0.0,0.0,0.0,0.0,0.0,0.0,0.0,0.0,0.0,0.0,0.0,0.0,0.0,0.0,0.0,0.0,0.0,0.0,0.0,0.0,0.0,0.0,0.0,0.0,0.0,0.0,0.0,0.0,0.0,0.0,0.0,0.0,0.0,0.0,0.0,0.0,0.0,0.0,0.0,0.0,0.0,0.0,0.0,0.0,0.0,0.0,0.0,0.0,0.0,0.0,0.0,0.0,0.0,0.0,0.0,0.0,0.0,0.0,0.0,0.0,0.0,0.0,0.0,0.0,0.0,0.0,0.0,0.0,0.0,0.0,0.0,0.0,0.0,0.0,0.0,0.0,0.0,0.0,0.0,0.0,0.0,0.0,0.0,0.0,0.0,0.0,0.0,0.0,0.0,0.0,0.0,0.0,0.0,0.0,0.0,0.0,0.0,0.0,0.0,0.0,0.0,0.0,0.0,0.0,0.0,0.0,0.0,0.0,0.0,0.0,0.0,0.0,0.0,0.0,0.0,0.0,0.0,0.0,0.0,0.0,0.0,0.0,0.0,0.0,0.0,0.0,0.0,0.0,0.0,0.0,0.0,0.0,0.0,0.0,0.0,0.0,0.0,0.0,0.0,0.0,0.0,0.0,0.0,0.0,0.0,0.0,0.0,0.0,0.0,0.0,0.0,0.0,0.0,0.0,0.0,0.0,0.0,0.0,0.0,0.0,0.0,0.0,0.0,0.0,0.0,0.0,0.0,0.0,0.0,0.0,0.0,0.0,0.0,0.0,0.0,0.0,0.0,0.0,0.0,0.0,0.0,0.0,0.0,0.0,0.0,0.0,0.0,0.0,0.0,0.0,0.0,0.0,0.0,0.0,0.0,0.0,0.0,0.0,0.0,0.0,0.0,0.0,0.0,0.0,0.0,0.0,0.0,0.0,0.0,0.0,0.0,0.0,0.0,0.0,0.0,0.0,0.0,0.0,0.0,0.0,0.0,0.0,0.0,0.0,0.0,0.0,0.0,0.0,0.0,0.0,0.0,0.0,0.0,0.0,0.0,0.0,0.0,0.0,0.0,0.0,0.0,0.0,0.0,0.0,0.0,0.0,0.0,0.0,0.0,0.0,0.0,0.0,0.0,0.0,0.0,0.0,0.0,0.0,0.0,0.0,0.0,0.0,0.0,0.0,0.0,0.0,0.0,0.0,0.0,0.0,0.0,0.0,0.0,0.0,0.0,0.0,0.0,0.0,0.0,0.0,0.0,0.0,0.0,0.0,0.0,0.0,0.0,0.0,0.0,0.0,0.0,0.0,0.0,0.8935,0.0,0.0,0.0,0.0,0.0,0.0,0.0,0.0,0.0,0.0,0.0,0.0,0.0,0.0,0.0,0.0,0.0,0.0,0.0,0.0,0.0,0.0,0.0,0.0,0.0,0.0,0.0,0.0,0.0,0.0,0.0,0.0,0.0,0.0,0.0,0.0,0.0,0.0,0.0,0.0,0.0,0.0,0.0,0.0,0.0,0.0,0.0,0.0,0.0,0.0,0.0,0.0,0.0,0.0,0.0,0.0,0.0,0.0,0.0,0.0,0.0,0.0,0.0,0.0,0.0,0.0,0.0,0.0,0.0,0.0,0.0,0.0,0.0,0.0,0.0,0.0,0.0,0.0,0.0,0.0,0.0,0.0,0.0,0.0,0.0,0.0,0.0,0.0,0.0,0.0,0.0,0.0,0.0,0.0,0.0,0.0,0.0,0.0,0.0,0.0,0.0,0.0,0.0,0.0,0.0,0.0,0.0,0.0,0.0,0.0,0.5222,0.5769,0.6534,0.7337,0.8296,0.0,0.0,0.0,0.0,0.0,0.0,0.0,0.0,0.0,0.0,0.0,0.0,0.0,0.0,0.0,0.0,0.0,0.0,0.0,0.0,0.0,0.0,0.0,0.0,0.0,0.0,0.0,0.0,0.0,0.0,0.0,0.0,0.0,0.0,0.0,0.0,0.0,0.0,0.0,0.0,0.0,0.0,0.0,0.0,0.0,0.0,0.0,0.0,0.0,0.0,0.0,0.0,0.0,0.0,0.0,0.0,0.0,0.0,0.0,0.0,0.0,0.0,0.0,0.0,0.0,0.0,0.0,0.0,0.0,0.0,0.0,0.0,0.0,0.0,0.0,0.0,0.0,0.0,0.0,0.0,0.0,0.0,0.0,0.0,0.0,0.0,0.0,0.0,0.0,0.0,0.0,0.0,0.0,0.0,0.0,0.0,0.0,0.0,0.0,0.0,0.0,0.0,0.0,0.0,0.0,0.0,0.0,0.0,0.0,0.0,0.0,0.0,0.542,0.6176,0.8043,0.0,0.0,0.0,0.0,0.0,0.0,0.0,0.0,0.0,0.0,0.0,0.0,0.0,0.0,0.0,0.0,0.0,0.0,0.0,0.0,0.0,0.0,0.0,0.0,0.0,0.0,0.0,0.0,0.0,0.0,0.0,0.0,0.0,0.0,0.0,0.0,0.0,0.0,0.0,0.0,0.0,0.0,0.0,0.0,0.0,0.0,0.0,0.0,0.0,0.0,0.0,0.0,0.0,0.0,0.0,0.0,0.0,0.0,0.0,0.0,0.0,0.0,0.0,0.0,0.0,0.0,0.0,0.0,0.0,0.0,0.0,0.0,0.0,0.0,0.0,0.0,0.0,0.0,0.0,0.0,0.0,0.0,0.0,0.0,0.0,0.0,0.0,0.0,0.0,0.0,0.0,0.0,0.0,0.0,0.0,0.0,0.0,0.0,0.0,0.0,0.0,0.0,0.0,0.0,0.0,0.0,0.0,0.0,0.0,0.0,0.3849,0.512,0.5277,0.0,0.8532,0.0,0.0,0.0,0.0,0.0,0.0,0.0,0.0,0.0,0.0,0.0,0.0,0.0,0.0,0.0,0.0,0.0,0.0,0.0,0.0,0.0,0.0,0.0,0.0,0.0,0.0,0.0,0.0,0.0,0.0,0.0,0.0,0.0,0.0,0.0,0.0,0.0,0.0,0.0,0.0,0.0,0.0,0.0,0.0,0.0,0.0,0.0,0.0,0.0,0.0,0.0,0.0,0.0,0.0,0.0,0.0,0.0,0.0,0.0,0.0,0.0,0.0,0.0,0.0,0.0,0.0,0.0,0.0,0.0,0.0,0.0,0.0,0.0,0.0,0.0,0.0,0.0,0.0,0.0,0.0,0.0,0.0,0.0,0.0,0.0,0.0,0.0,0.0,0.0,0.0,0.0,0.0,0.0,0.0,0.0,0.0,0.0,0.0,0.0,0.0,0.0,0.0,0.0,0.0,0.0,0.0,0.0,0.0,0.0,0.0,0.3236,0.4294,0.523,0.6268,0.0,0.0,0.0,0.0,0.0,0.0,0.0,0.0,0.0,0.0,0.0,0.0,0.0,0.0,0.0,0.0,0.0,0.0,0.0,0.0,0.0,0.0,0.0,0.0,0.0,0.0,0.0,0.0,0.0,0.0,0.0,0.0,0.0,0.0,0.0,0.0,0.0,0.0,0.0,0.0,0.0,0.0,0.0,0.0,0.0,0.0,0.0,0.0,0.0,0.0,0.0,0.0,0.0,0.0,0.0,0.0,0.0,0.0,0.0,0.0,0.0,0.0,0.0,0.0,0.0,0.0,0.0,0.0,0.0,0.0,0.0,0.0,0.0,0.0,0.0,0.0,0.0,0.0,0.0,0.0,0.0,0.0,0.0,0.0,0.0,0.0,0.0,0.0,0.0,0.0,0.0,0.0,0.0,0.0,0.0,0.0,0.0,0.0,0.0,0.0,0.0,0.0,0.0,0.0,0.0,0.0,0.0,0.0,0.0,0.0,0.2012,0.2681,0.3738,0.4956,0.5996,0.6622,0.0,0.0,0.0,0.0,0.0,0.0,0.0,0.0,0.0,0.0,0.0,0.0,0.0,0.0,0.0,0.0,0.0,0.0,0.0,0.0,0.0,0.0,0.0,0.0,0.0,0.0,0.0,0.0,0.0,0.0,0.0,0.0,0.0,0.0,0.0,0.0,0.0,0.0,0.0,0.0,0.0,0.0,0.0,0.0,0.0,0.0,0.0,0.0,0.0,0.0,0.0,0.0,0.0,0.0,0.0,0.0,0.0,0.0,0.0,0.0,0.0,0.0,0.0,0.0,0.0,0.0,0.0,0.0,0.0,0.0,0.0,0.0,0.0,0.0,0.0,0.0,0.0,0.0,0.0,0.0,0.0,0.0,0.0,0.0,0.0,0.0,0.0,0.0,0.0,0.0,0.0,0.0,0.0,0.0,0.0,0.0,0.0,0.0,0.0,0.0,0.0,0.0,0.0,0.0,0.0,0.0,0.0,0.0,0.1286,0.1345,0.2071,0.3569,0.4353,0.5508,0.0,0.0,0.0,0.0,0.0,0.0,0.0,0.0,0.0,0.0,0.0,0.0,0.0,0.0,0.0,0.0,0.0,0.0,0.0,0.0,0.0,0.0,0.0,0.0,0.0,0.0,0.0,0.0,0.0,0.0,0.0,0.0,0.0,0.0,0.0,0.0,0.0,0.0,0.0,0.0,0.0,0.0,0.0,0.0,0.0,0.0,0.0,0.0,0.0,0.0,0.0,0.0,0.0,0.0,0.0,0.0,0.0,0.0,0.0,0.0,0.0,0.0,0.0,0.0,0.0,0.0,0.0,0.0,0.0,0.0,0.0,0.0,0.0,0.0,0.0,0.0,0.0,0.0,0.0,0.0,0.0,0.0,0.0,0.0,0.0,0.0,0.0,0.0,0.0,0.0,0.0,0.0,0.0,0.0,0.0,0.0,0.0,0.0,0.0,0.0,0.0,0.0,0.0,0.0,0.0,0.0,0.0,0.0,0.0,0.0616,0.1231,0.2127,0.3183,0.3901,0.5007,0.0,0.0,0.0,0.0,0.0,0.0,0.0,0.0,0.0,0.0,0.0,0.0,0.0,0.0,0.0,0.0,0.0,0.0,0.0,0.0,0.0,0.0,0.0,0.0,0.0,0.0,0.0,0.0,0.0,0.0,0.0,0.0,0.0,0.0,0.0,0.0,0.0,0.0,0.0,0.0,0.0,0.0,0.0,0.0,0.0,0.0,0.0,0.0,0.0,0.0,0.0,0.0,0.0,0.0,0.0,0.0,0.0,0.0,0.0,0.0,0.0,0.0,0.0,0.0,0.0,0.0,0.0,0.0,0.0,0.0,0.0,0.0,0.0,0.0,0.0,0.0,0.0,0.0,0.0,0.0,0.0,0.0,0.0,0.0,0.0,0.0,0.0,0.0,0.0,0.0,0.0,0.0,0.0,0.0,0.0,0.0,0.0,0.0,0.0,0.0,0.0,0.0,0.0,0.0,0.0,0.0,0.0,0.0,0.0,0.056,0.0,0.2456,0.2508,0.3622,0.4842,0.0,0.0,0.0,0.0,0.0,0.0,0.0,0.0,0.0,0.0,0.0,0.0,0.0,0.0,0.0,0.0,0.0,0.0,0.0,0.0,0.0,0.0,0.0,0.0,0.0,0.0,0.0,0.0,0.0,0.0,0.0,0.0,0.0,0.0,0.0,0.0,0.0,0.0,0.0,0.0,0.0,0.0,0.0,0.0,0.0,0.0,0.0,0.0,0.0,0.0,0.0,0.0,0.0,0.0,0.0,0.0,0.0,0.0,0.0,0.0,0.0,0.0,0.0,0.0,0.0,0.0,0.0,0.0,0.0,0.0,0.0,0.0,0.0,0.0,0.0,0.0,0.0,0.0,0.0,0.0,0.0,0.0,0.0,0.0,0.0,0.0,0.0,0.0,0.0,0.0,0.0,0.0,0.0,0.0,0.0,0.0,0.0,0.0,0.0,0.0,0.0,0.0,0.0,0.0,0.0,0.0,0.0,0.0,-0.028,0.123,0.2732,0.2894,0.1664,0.3616,0.4956,0.0,0.0,0.0,0.0,0.0,0.0,0.0,0.0,0.0,0.0,0.0,0.0,0.0,0.0,0.0,0.0,0.0,0.0,0.0,0.0,0.0,0.0,0.0,0.0,0.0,0.0,0.0,0.0,0.0,0.0,0.0,0.0,0.0,0.0,0.0,0.0,0.0,0.0,0.0,0.0,0.0,0.0,0.0,0.0,0.0,0.0,0.0,0.0,0.0,0.0,0.0,0.0,0.0,0.0,0.0,0.0,0.0,0.0,0.0,0.0,0.0,0.0,0.0,0.0,0.0,0.0,0.0,0.0,0.0,0.0,0.0,0.0,0.0,0.0,0.0,0.0,0.0,0.0,0.0,0.0,0.0,0.0,0.0,0.0,0.0,0.0,0.0,0.0,0.0,0.0,0.0,0.0,0.0,0.0,0.0,0.0,0.0,0.0,0.0,0.0,0.0,0.0,0.0,0.0,0.0,0.0,0.0,0.0,0.0,0.0448,0.223,0.3174,0.3005,0.3843,0.468,0.0,0.0,0.0,0.0,0.0,0.0,0.0,0.0,0.0,0.0,0.0,0.0,0.0,0.0,0.0,0.0,0.0,0.0,0.0,0.0,0.0,0.0,0.0,0.0,0.0,0.0,0.0,0.0,0.0,0.0,0.0,0.0,0.0,0.0,0.0,0.0,0.0,0.0,0.0,0.0,0.0,0.0,0.0,0.0,0.0,0.0,0.0,0.0,0.0,0.0,0.0,0.0,0.0,0.0,0.0,0.0,0.0,0.0,0.0,0.0,0.0,0.0,0.0,0.0,0.0,0.0,0.0,0.0,0.0,0.0,0.0,0.0,0.0,0.0,0.0,0.0,0.0,0.0,0.0,0.0,0.0,0.0,0.0,0.0,0.0,0.0,0.0,0.0,0.0,0.0,0.0,0.0,0.0,0.0,0.0,0.0,0.0,0.0,0.0,0.0,0.0,0.0,0.0,0.0,0.0,0.0,0.0,0.0,0.0,0.1173,0.2952,0.3956,0.4018,0.4346,0.468,0.5077,0.0,0.0,0.0,0.0,0.0,0.0,0.0,0.0,0.0,0.0,0.0,0.0,0.0,0.0,0.0,0.0,0.0,0.0,0.0,0.0,0.0,0.0,0.0,0.0,0.0,0.0,0.0,0.0,0.0,0.0,0.0,0.0,0.0,0.0,0.0,0.0,0.0,0.0,0.0,0.0,0.0,0.0,0.0,0.0,0.0,0.0,0.0,0.0,0.0,0.0,0.0,0.0,0.0,0.0,0.0,0.0,0.0,0.0,0.0,0.0,0.0,0.0,0.0,0.0,0.0,0.0,0.0,0.0,0.0,0.0,0.0,0.0,0.0,0.0,0.0,0.0,0.0,0.0,0.0,0.0,0.0,0.0,0.0,0.0,0.0,0.0,0.0,0.0,0.0,0.0,0.0,0.0,0.0,0.0,0.0,0.0,0.0,0.0,0.0,0.0,0.0,0.0,0.0,0.0,0.0,0.0,0.0,0.0,0.295,0.4512,0.5077,0.4691,0.4963,0.4963,0.0,0.0,0.0,0.0,0.0,0.0,0.0,0.0,0.0,0.0,0.0,0.0,0.0,0.0,0.0,0.0,0.0,0.0,0.0,0.0,0.0,0.0,0.0,0.0,0.0,0.0,0.0,0.0,0.0,0.0,0.0,0.0,0.0,0.0,0.0,0.0,0.0,0.0,0.0,0.0,0.0,0.0,0.0,0.0,0.0,0.0,0.0,0.0,0.0,0.0,0.0,0.0,0.0,0.0,0.0,0.0,0.0,0.0,0.0,0.0,0.0,0.0,0.0,0.0,0.0,0.0,0.0,0.0,0.0,0.0,0.0,0.0,0.0,0.0,0.0,0.0,0.0,0.0,0.0,0.0,0.0,0.0,0.0,0.0,0.0,0.0,0.0,0.0,0.0,0.0,0.0,0.0,0.0,0.0,0.0,0.0,0.0,0.0,0.0,0.0,0.0,0.0,0.0,0.0,0.0,0.0,0.0,0.0,0.0,0.3561,0.4677,0.5132,0.4746,0.5077,0.5187,0.0,0.0,0.0,0.0,0.0,0.0,0.0,0.0,0.0,0.0,0.0,0.0,0.0,0.0,0.0,0.0,0.0,0.0,0.0,0.0,0.0,0.0,0.0,0.0,0.0,0.0,0.0,0.0,0.0,0.0,0.0,0.0,0.0,0.0,0.0,0.0,0.0,0.0,0.0,0.0,0.0,0.0,0.0,0.0,0.0,0.0,0.0,0.0,0.0,0.0,0.0,0.0,0.0,0.0,0.0,0.0,0.0,0.0,0.0,0.0,0.0,0.0,0.0,0.0,0.0,0.0,0.0,0.0,0.0,0.0,0.0,0.0,0.0,0.0,0.0,0.0,0.0,0.0,0.0,0.0,0.0,0.0,0.0,0.0,0.0,0.0,0.0,0.0,0.0,0.0,0.0,0.0,0.0,0.0,0.0,0.0,0.0,0.0,0.0,0.0,0.0,0.0,0.0,0.0,0.0,0.0,0.0,0.0,0.2722,0.4398,0.5014,0.5187,0.4967,0.5348,0.5517,0.0,0.0,0.0,0.0,0.0,0.0,0.0,0.0,0.0,0.0,0.0,0.0,0.0,0.0,0.0,0.0,0.0,0.0,0.0,0.0,0.0,0.0,0.0,0.0,0.0,0.0,0.0,0.0,0.0,0.0,0.0,0.0,0.0,0.0,0.0,0.0,0.0,0.0,0.0,0.0,0.0,0.0,0.0,0.0,0.0,0.0,0.0,0.0,0.0,0.0,0.0,0.0,0.0,0.0,0.0,0.0,0.0,0.0,0.0,0.0,0.0,0.0,0.0,0.0,0.0,0.0,0.0,0.0,0.0,0.0,0.0,0.0,0.0,0.0,0.0,0.0,0.0,0.0,0.0,0.0,0.0,0.0,0.0,0.0,0.0,0.0,0.0,0.0,0.0,0.0,0.0,0.0,0.0,0.0,0.0,0.0,0.0,0.0,0.0,0.0,0.0,0.0,0.0,0.0,0.0,0.0,0.0,0.0,0.3056,0.5242,0.5301,0.5301,0.5301,0.5786,0.5782,0.0,0.0,0.0,0.0,0.0,0.0,0.0,0.0,0.0,0.0,0.0,0.0,0.0,0.0,0.0,0.0,0.0,0.0,0.0,0.0,0.0,0.0,0.0,0.0,0.0,0.0,0.0,0.0,0.0,0.0,0.0,0.0,0.0,0.0,0.0,0.0,0.0,0.0,0.0,0.0,0.0,0.0,0.0,0.0,0.0,0.0,0.0,0.0,0.0,0.0,0.0,0.0,0.0,0.0,0.0,0.0,0.0,0.0,0.0,0.0,0.0,0.0,0.0,0.0,0.0,0.0,0.0,0.0,0.0,0.0,0.0,0.0,0.0,0.0,0.0,0.0,0.0,0.0,0.0,0.0,0.0,0.0,0.0,0.0,0.0,0.0,0.0,0.0,0.0,0.0,0.0,0.0,0.0,0.0,0.0,0.0,0.0,0.0,0.0,0.0,0.0,0.0,0.0,0.0,0.0,0.0,0.0,0.0,0.4003,0.5242,0.5301,0.5301,0.5301,0.5837,0.5887,0.0,0.0,0.0,0.0,0.0,0.0,0.0,0.0,0.0,0.0,0.0,0.0,0.0,0.0,0.0,0.0,0.0,0.0,0.0,0.0,0.0,0.0,0.0,0.0,0.0,0.0,0.0,0.0,0.0,0.0,0.0,0.0,0.0,0.0,0.0,0.0,0.0,0.0,0.0,0.0,0.0,0.0,0.0,0.0,0.0,0.0,0.0,0.0,0.8461,0.0,0.0,0.0,0.0,0.0,0.0,0.0,0.0,0.0,0.0,0.0,0.0,0.0,0.0,0.0,0.0,0.0,0.0,0.0,0.0,0.0,0.0,0.0,0.0,0.0,0.0,0.0,0.0,0.0,0.0,0.0,0.0,0.0,0.0,0.0,0.0,0.0,0.0,0.0,0.0,0.0,0.0,0.0,0.0,0.0,0.0,0.0,0.0,0.0,0.0,0.0,0.0,0.0,0.0,0.0,0.0,0.0,0.0,0.0,0.4451,0.5422,0.5418,0.5382,0.5356,0.6159,0.6213,0.0,0.0,0.0,0.0,0.0,0.0,0.0,0.0,0.0,0.0,0.0,0.0,0.0,0.0,0.0,0.0,0.0,0.0,0.0,0.0,0.0,0.0,0.0,0.0,0.0,0.0,0.0,0.0,0.0,0.0,0.0,0.0,0.0,0.0,0.0,0.0,0.0,0.0,0.0,0.0,0.0,0.0,0.0,0.0,0.0,0.0,0.0,0.0,0.0,0.0,0.0,0.0,0.0,0.0,0.0,0.0,0.0,0.0,0.0,0.0,0.0,0.0,0.0,0.0,0.0,0.0,0.0,0.0,0.0,0.0,0.0,0.0,0.0,0.0,0.0,0.0,0.0,0.0,0.0,0.0,0.0,0.0,0.0,0.0,0.0,0.0,0.0,0.0,0.0,0.0,0.0,0.0,0.0,0.0,0.0,0.0,0.0,0.0,0.0,0.0,0.0,0.0,0.0,0.0,0.0,0.0,0.0,0.3484,0.4587,0.5603,0.5711,0.5641,0.5497,0.6554,0.6589,0.5393,0.0,0.0,0.0,0.0,0.0,0.0,0.0,0.0,0.0,0.0,0.0,0.0,0.0,0.0,0.0,0.0,0.0,0.0,0.0,0.0,0.0,0.0,0.0,0.0,0.0,0.0,0.0,0.0,0.0,0.0,0.0,0.0,0.0,0.0,0.0,0.0,0.0,0.0,0.2341,0.5215,0.0,0.0,0.0,0.0,0.0,0.0,0.0,0.0,0.7629,0.0,0.0,0.0,0.0,0.0,0.0,0.0,0.0,0.0,0.0,0.0,0.0,0.0,0.0,0.0,0.0,0.0,0.0,0.0,0.0,0.0,0.0,0.0,0.0,0.0,0.0,0.0,0.0,0.0,0.0,0.0,0.0,0.0,0.0,0.0,0.0,0.0,0.0,0.0,0.0,0.0,0.0,0.0,0.0,0.0,0.0,0.0,0.0,0.0,0.0,0.0,0.0,0.0,0.0,0.0,0.0,0.3355,0.3845,0.4632,0.5843,0.613,0.6232,0.6256,0.6959,0.6746,0.5559,0.0,0.0,0.0,0.0,0.0,0.0,0.0,0.0,0.0,0.0,0.0,0.0,0.0,0.0,0.0,0.0,0.0,0.0,0.0,0.0,0.0,0.0,0.0,0.0,0.0,0.0,0.0,0.0,0.0,0.0,0.0,0.0,0.0,0.0,0.0,0.0,0.0,0.0,0.0,0.4852,0.61,0.0,0.0,0.0,0.0,0.0,0.0,0.0,0.0,0.7941,0.0,0.0,0.0,0.0,0.0,0.0,0.0,0.0,0.0,0.0,0.0,0.0,0.0,0.0,0.0,0.0,0.0,0.0,0.0,0.0,0.0,0.0,0.0,0.0,0.0,0.0,0.0,0.0,0.0,0.0,0.0,0.0,0.0,0.0,0.0,0.0,0.0,0.0,0.0,0.0,0.0,0.0,0.0,0.0,0.0,0.0,0.0,0.0,0.0,0.0,0.0,0.0,0.0,0.0,0.0,0.2874,0.4414,0.5598,0.6273,0.6445,0.6581,0.6657,0.7267,0.6861,0.0,0.0,0.0,0.0,0.0,0.0,0.0,0.0,0.0,0.0,0.0,0.0,0.0,0.0,0.0,0.0,0.0,0.0,0.0,0.0,0.0,0.0,0.0,0.0,0.0,0.0,0.0,0.0,0.0,0.0,0.0,0.0,0.0,0.0,0.0,0.0,0.0,0.0,0.0,0.0,0.5128,0.5697,0.7101,0.0,0.0,0.0,0.0,0.0,0.0,0.672,0.6832,0.0,0.0,0.0,0.0,0.0,0.0,0.0,0.0,0.0,0.0,0.0,0.0,0.0,0.0,0.0,0.0,0.0,0.0,0.0,0.0,0.0,0.0,0.0,0.0,0.0,0.0,0.0,0.0,0.0,0.0,0.0,0.0,0.0,0.0,0.0,0.0,0.0,0.0,0.0,0.0,0.0,0.0,0.0,0.0,0.0,0.0,0.0,0.0,0.0,0.0,0.0,0.0,0.0,0.0,0.0,0.2129,0.4604,0.6082,0.6527,0.6772,0.688,0.6904,0.7526,0.6933,0.0,0.0,0.0,0.0,0.0,0.0,0.0,0.0,0.0,0.0,0.0,0.0,0.0,0.0,0.0,0.0,0.0,0.0,0.0,0.0,0.0,0.0,0.0,0.0,0.0,0.0,0.0,0.0,0.0,0.0,0.0,0.0,0.0,0.0,0.0,0.0,0.0,0.0,0.0,0.0,0.0,0.5747,0.7456,0.6933,0.0,0.0,0.0,0.0,0.5742,0.6027,0.0,0.0,0.0,0.0,0.0,0.0,0.0,0.0,0.0,0.0,0.0,0.0,0.0,0.0,0.0,0.0,0.0,0.0,0.0,0.0,0.0,0.0,0.0,0.0,0.0,0.0,0.0,0.0,0.0,0.0,0.0,0.0,0.0,0.0,0.0,0.0,0.0,0.0,0.0,0.0,0.0,0.0,0.0,0.0,0.0,0.0,0.0,0.0,0.0,0.0,0.0,0.0,0.0,0.0,0.0,0.0,0.2066,0.3338,0.4671,0.5924,0.6902,0.7274,0.6923,0.7709,0.7335,0.0,0.0,0.0,0.0,0.0,0.0,0.0,0.0,0.0,0.0,0.0,0.0,0.0,0.0,0.0,0.0,0.0,0.0,0.0,0.0,0.0,0.0,0.0,0.0,0.0,0.0,0.0,0.0,0.0,0.0,0.0,0.0,0.0,0.0,0.0,0.0,0.0,0.0,0.0,0.0,0.0,0.6027,0.7678,0.6747,0.5828,0.0,0.0,0.6499,0.6681,0.7267,0.0,0.0,0.0,0.0,0.0,0.0,0.0,0.0,0.0,0.0,0.0,0.0,0.0,0.0,0.0,0.0,0.0,0.0,0.0,0.0,0.0,0.0,0.0,0.0,0.0,0.0,0.0,0.0,0.0,0.0,0.0,0.0,0.0,0.0,0.0,0.0,0.0,0.0,0.0,0.0,0.0,0.0,0.0,0.0,0.0,0.0,0.0,0.0,0.0,0.0,0.0,0.0,0.0,0.0,0.0,0.02,0.1662,0.3732,0.5213,0.6156,0.6613,0.6999,0.7256,0.7624,0.7131,0.0,0.0,0.0,0.0,0.0,0.0,0.0,0.0,0.0,0.0,0.0,0.0,0.0,0.0,0.0,0.0,0.0,0.0,0.0,0.0,0.0,0.0,0.0,0.0,0.0,0.0,0.0,0.0,0.0,0.0,0.0,0.0,0.0,0.0,0.0,0.0,0.0,0.0,0.0,0.0,0.0,0.0,0.7498,0.6921,0.0,0.0,0.0,0.6829,0.6768,0.0,0.0,0.0,0.0,0.0,0.0,0.0,0.0,0.0,0.0,0.0,0.0,0.0,0.0,0.0,0.0,0.0,0.0,0.0,0.0,0.0,0.0,0.0,0.0,0.0,0.0,0.0,0.0,0.0,0.0,0.0,0.0,0.0,0.0,0.0,0.0,0.0,0.0,0.0,0.0,0.0,0.0,0.0,0.0,0.0,0.0,0.0,0.0,0.0,0.0,0.0,0.0,0.0,0.0,0.0,0.0,0.0,0.1062,0.3801,0.5422,0.5951,0.6152,0.6478,0.6929,0.7326,0.0,0.0,0.0,0.0,0.0,0.0,0.0,0.0,0.0,0.0,0.0,0.0,0.0,0.0,0.0,0.0,0.0,0.0,0.0,0.0,0.0,0.0,0.0,0.0,0.0,0.0,0.0,-0.4236,0.0,0.0,0.0,0.0,0.0,0.0,0.0,0.0,0.0,0.0,0.0,0.0,0.0,0.0,0.3852,0.7644,0.7255,0.6773,0.0,0.0,0.6973,0.7096,0.7661,0.7779,0.0,0.0,0.0,0.0,0.0,0.0,0.0,0.0,0.0,0.0,0.0,0.0,0.0,0.0,0.0,0.0,0.0,0.0,0.0,0.0,0.0,0.0,0.0,0.0,0.0,0.0,0.0,0.0,0.0,0.0,0.0,0.0,0.0,0.0,0.0,0.0,0.0,0.0,0.0,0.0,0.0,0.0,0.0,0.0,0.0,0.0,0.0,0.0,0.0,0.0,0.0,0.0,0.0,0.0,0.0,0.0399,0.2808,0.4359,0.4691,0.5355,0.5613,0.5474,0.6793,0.6658,0.0,0.0,0.0,0.0,0.0,0.0,0.0,0.0,0.0,0.0,0.0,0.0,0.0,0.0,0.0,0.0,0.0,0.0,0.0,0.0,0.0,0.0,0.0,0.0,0.0,0.0,0.0,0.0,0.0,0.0,0.0,0.0,0.0,0.0,0.0,0.0,0.0,0.0,0.0,0.0,0.0,0.4304,0.8369,0.7596,0.7082,0.0,0.0,0.7047,0.8381,0.8622,0.8193,0.6823,0.0,0.0,0.0,0.0,0.0,0.0,0.0,0.0,0.0,0.0,0.0,0.0,0.0,0.0,0.0,0.0,0.0,0.0,0.0,0.0,0.0,0.0,0.0,0.0,0.0,0.0,0.0,0.0,0.0,0.0,0.0,0.0,0.0,0.0,0.0,0.0,0.0,0.0,0.0,0.0,0.0,0.0,0.0,0.0,0.0,0.0,0.0,0.0,0.0,0.0,0.0,0.0,0.0,-0.1128,-0.0199,0.2669,0.4289,0.4625,0.4957,0.515,0.5276,0.6009,0.5943,0.0,0.0,0.0,0.0,0.0,0.0,0.0,0.0,0.0,0.0,0.0,0.0,0.0,0.0,0.0,0.0,0.0,0.0,0.0,0.0,0.0,0.0,0.0,0.0,0.0,0.0,0.0,0.0,-0.3118,-0.3125,-0.2847,0.0,0.0,0.0,0.0,0.0,0.0,0.0,0.0,0.0,0.0,0.6811,0.7795,0.7156,0.0,0.0,0.7201,0.7239,0.8381,0.8471,0.8221,0.7651,0.7264,0.0,0.0,0.0,0.0,0.0,0.0,0.0,0.0,0.0,0.0,0.0,0.0,0.0,0.0,0.0,0.0,0.0,0.0,0.0,0.0,0.0,0.0,0.0,0.0,0.0,0.0,0.0,0.0,0.0,0.0,0.0,0.0,0.0,0.0,0.0,0.0,0.0,0.0,0.0,0.0,0.0,0.0,0.0,0.0,0.0,0.0,0.0,0.0,0.0,0.0,0.0,0.0,-0.1528,-0.0862,0.22,0.3889,0.4225,0.4428,0.4691,0.4948,0.5415,0.5418,0.0,0.0,0.0,0.0,0.0,0.0,0.0,0.0,0.0,0.0,0.0,0.0,0.0,0.0,0.0,0.0,0.0,0.0,0.0,0.0,0.0,0.0,0.0,0.0,0.0,0.0,0.0,0.0,-0.2841,-0.2805,-0.2943,0.0,0.0,0.0,0.0,0.0,0.0,0.0,0.0,0.0,0.0,0.8254,0.7742,0.6969,0.663,0.7089,0.6845,0.7012,0.7877,0.8102,0.8107,0.7837,0.0,0.0,0.0,0.0,0.0,0.0,0.0,0.0,0.0,0.0,0.0,0.0,0.0,0.0,0.0,0.0,0.0,0.0,0.0,0.0,0.0,0.0,0.0,0.0,0.0,0.0,0.0,0.0,0.0,0.0,-1.5231,0.0,0.0,0.0,0.0,0.0,0.0,0.0,0.0,0.0,0.0,0.0,0.0,0.0,0.0,0.0,0.0,0.0,0.0,0.0,0.0,0.0,0.0,-0.2264,-0.1527,0.1136,0.282,0.3498,0.383,0.4028,0.4095,0.509,0.5153,0.4095,0.0,0.0,0.0,0.0,0.0,0.0,0.0,0.0,0.0,0.0,0.0,0.0,0.0,0.0,0.0,0.0,0.0,0.0,0.0,0.0,0.0,0.0,0.0,0.0,0.0,0.0,-0.2841,-0.2845,-0.3001,0.0,0.0,0.0,0.0,0.0,0.0,0.0,0.0,0.0,0.0,0.7279,0.7964,0.8377,0.7102,0.6379,0.7037,0.6453,0.6195,0.6854,0.7647,0.7907,0.0,0.0,0.0,0.0,0.0,0.0,0.0,0.0,0.0,0.0,0.0,0.0,0.0,0.0,0.0,0.0,0.0,0.0,0.0,0.0,0.0,0.0,0.0,0.0,0.0,0.0,0.0,-1.3244,-1.3695,0.0,0.0,0.0,0.0,0.0,0.0,0.0,0.0,0.0,0.0,0.0,-0.8111,-0.7525,0.0,0.0,0.0,0.0,0.0,0.0,0.0,0.0,0.0,0.0,0.0,0.0,-0.2067,-0.0867,0.1271,0.2753,0.3498,0.3761,0.3828,0.3894,0.4428,0.5033,0.5579,0.0,0.0,0.0,0.0,0.0,0.0,0.0,0.0,0.0,0.0,0.0,0.0,0.0,0.0,0.0,0.0,0.0,0.0,0.0,0.0,0.0,0.0,0.0,0.0,0.0,-0.3713,0.0,0.0,0.0,0.0,0.0,0.0,0.0,0.0,0.0,0.0,0.0,0.2976,0.4844,0.6238,0.7057,0.692,0.647,0.6079,0.0,0.0,0.0,0.0,0.0,0.0,0.0,0.0,0.0,0.0,0.0,0.0,0.0,0.0,1.2512,1.2074,1.1764,1.1578,1.1578,0.0,0.0,0.0,0.0,0.0,0.0,0.0,0.0,0.0,0.0,0.0,0.0,0.0,0.0,-1.1711,0.0,-1.1894,0.0,0.0,0.0,0.0,0.0,0.0,0.0,0.0,-0.8304,-0.7568,-0.7302,-0.7044,-0.7548,0.0,-0.7603,-0.7538,0.0,0.0,0.0,0.0,0.0,0.0,0.0,0.0,-0.2203,-0.0467,0.1205,0.2484,0.3362,0.3694,0.3825,0.3825,0.4097,0.4773,0.5645,0.4891,0.4303,0.0,0.0,0.0,0.0,0.0,0.0,0.0,0.0,0.0,0.0,0.0,0.0,0.0,0.0,0.0,0.0,0.0,0.0,0.0,0.0,0.0,0.0,0.0,-0.3958,0.0,0.0,0.0,0.0,0.0,0.0,0.0,0.0,0.0,0.0195,0.1972,0.3723,0.4998,0.58,0.6268,0.6071,0.0,0.0,0.0,0.0,0.0,0.0,0.0,0.7517,0.8102,0.7642,0.7377,0.7902,0.886,0.9843,1.0621,0.0,0.0,1.2728,1.2565,1.2389,1.2443,1.2443,1.2451,1.2451,1.2696,1.2887,0.0,0.0,0.0,0.0,0.0,0.0,0.0,0.0,-0.9611,-1.0491,0.0,-1.0725,0.0,0.0,0.0,0.0,0.0,-1.0186,0.0,0.0,-0.6797,-0.6121,-0.5668,-0.6859,-0.7068,-0.635,-0.5745,-0.5477,-0.5477,-0.5321,0.0,0.0,0.0,0.0,0.0,0.0,-0.2538,-0.0334,0.0736,0.1878,0.3092,0.3491,0.3758,0.3825,0.4097,0.4303,0.43,0.3551,0.3082,0.308,0.183,0.0,0.0,0.0,0.0,0.0,0.0,0.0,0.0,0.0,0.0,0.0,0.0,0.0,0.0,0.0,0.0,0.0,0.0,0.0,0.0,-0.5146,0.0,0.0,0.0,0.0,0.0,0.0,0.0,0.0,0.0,0.0,0.1659,0.2994,0.4665,0.6392,0.0,0.0,0.0,0.0,0.4827,0.4827,0.5481,0.5939,0.6001,0.719,0.8182,0.8247,0.0,0.0,0.9514,0.9514,0.9922,1.1014,1.1259,1.1869,1.3839,1.3535,1.3083,1.3266,1.3344,1.338,1.3371,1.3883,1.4357,-1.1987,0.0,0.0,0.0,0.0,-1.1752,-0.9894,-0.8745,-0.892,-0.8859,-0.8647,-0.8606,0.0,0.0,0.0,0.0,0.0,0.0,-1.0807,-0.8954,-0.8839,-0.812,-0.6929,-0.6736,-0.6613,-0.6354,-0.5745,-0.5411,-0.5345,-0.4613,-0.4806,-0.5928,0.0,0.0,0.0,0.0,-0.1944,-0.0402,0.0134,0.0806,0.1679,0.235,0.3021,0.3766,0.3766,0.3964,0.4289,0.4087,0.4361,0.5396,0.5017,0.0,0.0,0.0,0.0,0.0,0.0,0.0,0.0,0.0,0.0,0.0,0.0,0.0,0.0,0.0,0.0,0.0,0.0,0.0,-0.5273,-0.3473,-0.2521,0.0,0.0,0.0,0.0,0.0,0.0,0.0,0.0,0.0,0.2604,0.3547,0.4492,0.0,0.0,0.4764,0.5033,0.49,0.4831,0.5024,0.5745,0.0,0.6924,0.7432,0.8133,0.9219,0.9775,1.0109,1.0103,1.0036,1.0331,1.1147,1.1289,1.166,1.2775,1.3469,1.372,1.3978,1.4435,1.4644,1.4316,1.4435,1.4562,-1.1375,-1.2497,-1.1271,-1.1721,-1.288,-1.0616,-0.8691,-0.73,-0.7649,-0.7599,-0.7219,-0.7555,-0.8787,-1.06,-1.0601,0.0,0.0,0.0,-1.0788,-0.9221,-0.9221,-0.879,-0.7912,-0.7456,-0.7064,-0.6811,-0.6404,-0.5939,-0.5411,-0.4951,-0.4951,-0.5345,0.0,0.0,-0.4737,-0.3813,-0.2479,-0.0671,-0.047,0.0067,0.1076,0.1812,0.2619,0.3498,0.3634,0.3357,0.2608,0.3147,0.3823,0.4648,0.5269,0.4018,0.0,0.0,0.0,0.0,0.0,0.0,0.0,0.0,0.0,0.0,0.0,-0.2711,-0.347,0.0,0.0,0.0,-0.392,-0.4686,-0.374,-0.2557,0.0,0.0,0.0,0.0,0.0,0.0,0.0,0.1137,0.2611,0.3487,0.3556,0.3961,0.437,0.4506,0.437,0.437,0.4506,0.0,0.4849,0.5097,0.5907,0.6668,0.7148,0.7796,0.8632,0.9814,1.0155,1.0327,1.0333,1.0333,1.0502,1.0937,1.1102,1.1281,1.1877,1.2731,1.3461,1.3741,1.4222,1.4493,1.4156,1.409,1.409,-1.0984,-1.1175,-1.3064,-1.2295,-0.9837,-0.9274,-0.7555,-0.5257,-0.6331,-0.6807,-0.6807,-0.7307,-0.8544,-1.0312,-1.1107,0.0,-1.0405,-0.9901,-0.9285,-0.8549,-0.8554,-0.8554,-0.8554,-0.8554,-0.8166,-0.7526,-0.7526,-0.6798,-0.5543,-0.5947,-0.5947,-0.5477,-0.508,-0.5206,-0.5727,-0.5071,-0.3544,-0.1206,-0.1206,-0.0469,0.1008,0.1611,0.2281,0.3025,0.3431,0.2484,0.0201,0.1274,0.1946,0.1946,0.3234,0.3307,0.2018,0.0,0.0,0.0,0.0,0.0,0.0,0.0,0.0,0.0,0.0,0.0,0.0,0.0,0.0,0.0,-0.2916,0.0,-0.1476,-0.2239,0.0,0.0,0.0,-0.3818,-0.2618,-0.0467,0.1334,0.2482,0.0,0.0,0.4303,0.4303,0.4306,0.4314,0.4308,0.4306,0.4314,0.4584,0.4892,0.502,0.5866,0.6545,0.6883,0.8136,0.9308,1.0061,1.0323,1.0423,1.0423,1.0417,1.0502,1.0707,1.0749,1.0816,1.1063,1.181,1.2415,1.2885,1.3253,1.3455,1.3478,1.3494,1.3502,-1.4245,-1.4236,-1.3158,-1.2266,-1.1458,-0.9139,-0.8462,-0.896,-0.8726,-0.8409,-0.8081,-0.8161,-0.821,-0.8184,-0.8907,-0.8837,-0.8233,-0.9163,-0.9442,-0.9256,-0.9262,-0.9256,-0.9262,-0.8742,-0.8166,-0.7526,-0.7526,-0.7064,-0.6214,-0.6214,-0.6214,-0.6148,-0.5947,-0.5609,-0.5008,-0.4217,-0.3149,-0.1878,-0.1878,-0.1141,0.0202,0.0403,0.1007,0.195,0.2085,0.1478,0.0067,0.0336,0.0471,0.0539,0.0808,0.0876,0.0472,-0.1873,0.0,0.0,0.0,0.0,0.0,0.0,0.0,0.0,0.0,-0.1767,-0.3432,0.0,-0.2652,0.0,-0.1437,-0.2125,-0.2979,-0.2937,0.0,0.0,-0.167,-0.1069,0.1139,0.2007,0.2811,0.3758,0.4097,0.4303,0.4303,0.4303,0.4333,0.4414,0.4355,0.4333,0.442,0.4643,0.4752,0.4938,0.5321,0.5755,0.6587,0.8198,0.9529,0.9944,1.0483,1.0924,1.0924,1.0924,1.0954,1.1009,1.1015,1.1051,1.1099,1.1409,1.1662,1.1886,1.2863,1.3727,1.3364,1.3356,1.3506,-1.6249,-1.6172,-1.4278,-1.333,-1.2987,-1.0253,-0.9482,-1.011,-0.921,-0.8619,-0.8291,-0.8285,-0.8151,-0.7941,-0.8544,-0.8672,-0.8393,-0.9122,-0.9652,-0.997,-0.9652,-0.9646,-0.997,-0.9268,-0.8613,-0.7977,-0.7972,-0.7391,-0.642,-0.6284,-0.6284,-0.642,-0.6354,-0.5951,-0.5286,-0.4821,-0.4084,-0.3082,-0.2748,-0.2211,-0.1475,-0.1207,-0.0804,-0.0268,0.0537,0.0604,0.0,0.0,-0.0741,-0.2291,-0.2088,-0.1346,-0.0134,-0.148,-0.3165,0.0,0.0,0.0,0.0,0.0,0.0,0.0,0.0,0.0,0.0,0.0,-0.228,-0.2025,-0.1463,-0.1679,-0.3013,-0.2482,-0.1745,-0.0804,-0.0469,0.0469,0.2417,0.3153,0.3758,0.4233,0.4303,0.4319,0.4368,0.4376,0.442,0.4537,0.4496,0.4552,0.4613,0.4768,0.4953,0.5003,0.5319,0.5855,0.6795,0.8143,0.9304,0.9809,1.0588,1.1117,1.1117,1.1117,1.1117,1.1117,1.1117,1.1117,1.1117,1.1186,1.1254,1.1403,1.207,1.2732,1.2725,1.2806,1.2952,-1.7511,-1.7379,-1.5648,-1.4693,-1.4069,-1.1789,-1.0534,-1.011,-0.8882,-0.8296,-0.8096,-0.8156,-0.8355,-0.8812,-0.9145,-0.9396,-0.9709,-0.9524,-0.9843,-1.0561,-0.9907,-0.9977,-1.0555,-0.9907,-0.9262,-0.849,-0.849,-0.7777,-0.642,-0.642,-0.642,-0.642,-0.642,-0.6222,-0.5892,-0.5892,-0.5355,-0.4287,-0.3551,-0.3218,-0.3218,-0.2813,-0.2544,-0.2476,-0.1071,-0.0201,0.0,0.0,-0.1482,-0.4593,-0.4258,-0.2896,-0.0671,-0.0403,-0.1344,0.0,-0.452,0.0,0.0,0.0,0.0,0.0,0.0,0.0,0.0,-0.107,-0.1737,-0.3343,-0.2012,-0.1411,-0.2147,-0.1478,-0.0739,-0.0067,0.0538,0.1411,0.2417,0.356,0.4306,0.4319,0.4322,0.4368,0.4477,0.4563,0.461,0.4651,0.467,0.4678,0.477,0.4977,0.5152,0.513,0.5532,0.6095,0.7034,0.7995,0.8917,0.9609,1.0513,1.1117,1.1117,1.1117,1.1117,1.1117,1.1117,1.1117,1.1117,1.1111,1.1117,1.1111,1.1335,1.1632,1.1929,1.215,1.2305,-1.8858,-1.787,-1.609,-1.4704,-1.3672,-1.2833,-1.1905,-1.0989,-0.9773,-0.9069,-0.8818,-0.8818,-0.9396,-1.0288,-0.9466,-0.9722,-1.0737,-0.9779,-0.9786,-1.0618,-1.0428,-1.0491,-1.0618,-1.0434,-0.9716,-0.8554,-0.849,-0.7777,-0.6416,-0.642,-0.642,-0.642,-0.642,-0.6222,-0.5892,0.0,0.0,0.0,-0.3551,-0.3218,-0.3218,-0.3082,-0.2882,-0.2482,-0.2214,0.0,0.0,0.0,-0.0607,-0.182,-0.1753,0.0,0.0,0.0,0.0,0.0,0.0,0.0,0.0,0.0,0.0,0.0,-0.1477,-0.1276,-0.1744,-0.1409,-0.1476,-0.2278,-0.1611,-0.1143,-0.1344,-0.0672,-0.0134,0.0,0.1344,0.2418,0.2686,0.3493,0.4128,0.4428,0.4304,0.4351,0.4597,0.469,0.474,0.4779,0.48,0.4841,0.4931,0.5078,0.5066,0.5029,0.5354,0.5597,0.6093,0.7468,0.8618,0.8998,1.0212,1.1043,1.1117,1.1117,1.1117,1.1117,1.1117,1.1123,1.1123,1.1117,1.1148,1.1123,1.1267,1.1484,1.1706,1.1929,1.2077,-2.1276,0.0,-1.8066,-1.6285,0.0,-1.4037,-1.283,-1.1428,-1.0091,-0.9332,-0.9017,-0.8823,-0.9005,-0.9442,-0.946,-0.9524,-0.9646,-0.9843,-1.0174,-1.0618,-1.0618,-1.0618,-1.0618,-1.0618,-1.004,-0.9005,-0.8678,-0.7972,-0.6937,-0.6548,-0.642,-0.642,-0.6901,-0.6814,-0.6146,-0.6025,-0.5641,-0.4824,-0.4486,-0.4287,-0.4284,-0.4289,-0.4154,-0.3954,-0.3418,0.0,0.0,0.0,0.0,0.0,0.0,0.0,0.0,-0.2695,0.0,-0.0336,-0.0806,-0.1277,-0.1545,-0.1613,-0.1614,-0.1614,-0.1277,-0.121,-0.1611,-0.1277,-0.1277,-0.1545,-0.1277,-0.1076,-0.1076,-0.0739,-0.0403,0.0,0.1208,0.2022,0.2117,0.315,0.3877,0.3825,0.4065,0.4398,0.4727,0.4741,0.4792,0.4901,0.4925,0.4944,0.4999,0.5192,0.541,0.555,0.5482,0.5634,0.6099,0.7472,0.8546,0.8851,1.0056,1.0962,1.1117,1.1117,1.1117,1.1123,1.122,1.1317,1.1335,1.1419,1.1516,1.1498,1.1484,1.1557,1.169,1.1883,1.2077,-2.3961,-2.3054,-2.0673,-1.8563,-1.6669,-1.5459,-1.3735,-1.1641,0.0,0.0,0.0,-0.8877,-0.8678,-0.8479,-0.9588,-0.9594,-0.8748,-0.9977,-1.0561,-1.0618,-1.0618,-1.0618,-1.0618,-1.0618,-1.0231,-0.9454,-0.8812,-0.8166,-0.7461,-0.6779,-0.6469,-0.6543,-0.731,-0.7271,-0.6464,-0.6168,-0.5828,-0.5518,-0.5483,-0.5399,-0.5399,-0.5376,-0.5359,-0.5226,-0.4417,-0.3949,-0.3882,-0.328,-0.3218,-0.3894,-0.3761,-0.3226,-0.2348,-0.188,-0.1346,-0.0674,-0.0607,-0.0742,-0.1079,-0.1078,-0.1078,-0.1078,-0.1077,-0.1076,-0.1076,-0.1076,-0.1076,-0.1076,-0.1076,-0.1076,-0.1076,-0.0941,-0.0672,-0.0067,0.0808,0.1296,0.1392,0.2669,0.3486,0.3274,0.3882,0.4441,0.4771,0.4866,0.4898,0.4991,0.5007,0.5018,0.5096,0.5321,0.5628,0.6025,0.5712,0.5637,0.6567,0.7633,0.8627,0.9003,1.0132,1.1037,1.1117,1.1154,1.1184,1.1214,1.1419,1.157,1.1612,1.1745,1.192,1.1926,1.1757,1.16,1.1815,1.1961,1.2097,-2.6063,-2.4283,-2.3376,-2.1132,-1.8158,-1.7386,-1.5006,-1.1632,-1.0604,-0.9919,-0.9478,-0.9856,-1.004,-0.9977,-1.0295,-1.0421,-1.0415,-1.0364,-1.0434,-1.0624,-1.0618,-1.0618,-1.0618,-1.0618,-1.0231,-0.9518,-0.8812,-0.8166,-0.748,-0.6911,-0.6652,-0.6732,-0.6962,-0.6915,-0.6414,-0.6008,-0.5783,-0.5735,-0.562,-0.5559,-0.5555,-0.543,-0.5093,-0.4486,-0.4353,-0.4154,-0.3889,-0.3823,-0.3758,-0.3894,-0.3894,-0.3086,-0.1408,-0.1273,-0.1141,-0.1011,-0.1012,-0.1012,-0.108,-0.1078,-0.1076,-0.1076,-0.1076,-0.1076,-0.1076,-0.1076,-0.1076,-0.1076,-0.1143,-0.1076,-0.1076,-0.0538,-0.0202,0.0,0.0755,0.1323,0.1261,0.2142,0.285,0.3144,0.3832,0.448,0.4878,0.4982,0.4988,0.5012,0.5018,0.5093,0.5168,0.5171,0.5323,0.5709,0.5479,0.5789,0.6945,0.7787,0.8623,0.9614,1.0438,1.1117,1.1117,1.1298,1.1425,1.1461,1.1679,1.1842,1.1872,1.189,1.1968,1.198,1.192,1.1945,1.2111,1.2128,1.2277,-2.7553,-2.5607,-2.4583,-2.2228,-1.8977,-1.701,-1.4676,-1.2211,-1.1222,-1.0267,-0.9554,-0.9804,-0.9664,-0.9396,-0.9856,-1.004,-0.9831,-1.0174,-1.0428,-1.0618,-1.0618,-1.0618,-1.0618,-1.0618,-1.0371,-0.9919,-0.9409,-0.8744,-0.8036,-0.7569,-0.7185,-0.6909,-0.7013,-0.7143,-0.7298,-0.679,-0.6424,-0.6044,-0.5823,-0.5667,-0.5589,-0.5518,-0.5309,-0.4897,-0.4888,-0.4824,-0.4691,-0.4694,-0.4558,-0.409,-0.3754,-0.295,-0.1743,-0.1275,-0.1075,-0.1077,-0.1078,-0.1077,-0.1077,-0.1076,-0.1076,-0.1076,-0.1076,-0.1076,-0.1076,-0.1411,-0.1678,-0.1679,-0.1679,-0.1611,-0.1612,-0.1021,-0.055,-0.055,0.007,0.0359,0.0219,0.1326,0.2248,0.2604,0.3699,0.4575,0.4932,0.5018,0.5018,0.5018,0.5018,0.5093,0.509,0.5093,0.5249,0.5783,0.5941,0.6405,0.7403,0.847,0.9231,0.9846,1.0594,1.1043,1.1129,1.1347,1.1504,1.1558,1.1848,1.2101,1.2131,1.2258,1.2324,1.233,1.221,1.2155,1.2294,1.2463,1.2618,-2.9313,-2.758,-2.585,-2.3176,-1.9778,-1.6583,-1.4535,-1.3313,-1.199,-1.084,-0.9943,-0.9922,-0.9556,-0.9085,-0.9823,-0.9849,-0.9506,-1.004,-1.0428,-1.0631,-1.0628,-1.0661,-1.0732,-1.0786,-1.069,-1.0516,-1.0049,-0.94,-0.8675,-0.8192,-0.7682,-0.7155,-0.7138,-0.7346,-0.7851,-0.733,-0.6876,-0.6402,-0.6027,-0.5837,-0.5694,-0.563,-0.5532,-0.5423,-0.5446,-0.5428,-0.5428,-0.5226,-0.4891,-0.4287,-0.3618,-0.2882,-0.2147,-0.1611,-0.1277,-0.1143,-0.1076,-0.1076,-0.1076,-0.1076,-0.1143,-0.1344,-0.1344,-0.1411,-0.1612,-0.2213,-0.2414,-0.2146,-0.1946,-0.1884,-0.1967,-0.1519,-0.1123,-0.1131,-0.0651,-0.0518,-0.0905,0.0456,0.1687,0.2027,0.3526,0.4709,0.494,0.5018,0.5018,0.5018,0.5018,0.5018,0.5018,0.5018,0.5246,0.5705,0.6398,0.7015,0.771,0.8846,0.976,1.0067,1.0663,1.1037,1.1166,1.1383,1.16,1.1691,1.2059,1.2349,1.2415,1.2542,1.265,1.2632,1.2506,1.2409,1.2569,1.2819,1.3067,-3.1886,-3.0722,-2.821,-2.4736,-2.062,-1.7416,-1.5779,-1.4925,-1.2886,-1.1621,-1.1064,-1.1195,-1.0942,-1.0581,-1.0937,-1.0961,-1.0575,-1.0434,-1.0391,-1.0615,-1.0835,-1.0949,-1.0975,-1.1216,-1.1349,-1.1193,-1.0604,-0.9933,-0.9109,-0.861,-0.8004,-0.7491,-0.7065,-0.6996,-0.7015,-0.6788,-0.6641,-0.6563,-0.6384,-0.6146,-0.5983,-0.5725,-0.5583,-0.5566,-0.55,-0.5428,-0.5362,-0.4758,-0.4353,-0.422,-0.3551,-0.2882,-0.2213,-0.2012,-0.1745,-0.1143,-0.1076,-0.1076,-0.1076,-0.1076,-0.1344,-0.1946,-0.1946,-0.2214,-0.2882,-0.3553,-0.3485,-0.2418,-0.1546,-0.1631,-0.2013,-0.1541,-0.1137,-0.1161,-0.1114,-0.1133,-0.0987,-0.0155,0.086,0.1797,0.3526,0.4709,0.494,0.5018,0.5018,0.5018,0.5018,0.5018,0.5018,0.5168,0.5321,0.555,0.6086,0.7161,0.8237,0.915,0.9981,1.0738,1.1037,1.1117,1.1196,1.151,1.1884,1.1866,1.2282,1.2596,1.2638,1.2699,1.2693,1.2705,1.2662,1.2741,1.2923,1.3159,1.3304,-3.208,-3.0761,-2.8484,-2.4518,-1.9845,-1.8289,-1.6717,-1.4837,-1.3267,-1.2386,-1.2196,-1.2054,-1.1614,-1.104,-1.1256,-1.1407,-1.1341,-1.1009,-1.0876,-1.1076,-1.1196,-1.1249,-1.1263,-1.1363,-1.1292,-1.1106,-1.0969,-1.0485,-0.9603,-0.8768,-0.8245,-0.8012,-0.7484,-0.7176,-0.7103,-0.7099,-0.6949,-0.6641,-0.6718,-0.6612,-0.6228,-0.5959,-0.5766,-0.5603,-0.5528,-0.5245,-0.4767,-0.442,-0.4087,-0.3685,-0.2948,-0.2414,-0.2147,-0.1745,-0.1411,-0.1143,-0.1076,-0.1076,-0.1076,-0.1076,-0.121,-0.1478,-0.1544,-0.1812,-0.2482,-0.2518,-0.2473,-0.2749,-0.2542,-0.2364,-0.2141,-0.1599,-0.118,-0.1195,-0.1221,-0.1083,-0.0541,0.0156,0.1097,0.2426,0.3919,0.4862,0.494,0.5018,0.5018,0.5018,0.5018,0.5018,0.5018,0.5168,0.5553,0.6167,0.7007,0.777,0.8537,0.9674,1.0507,1.0962,1.1117,1.1117,1.1184,1.1564,1.192,1.1926,1.2373,1.2674,1.2687,1.2705,1.2705,1.2705,1.2705,1.2796,1.3222,1.3313,1.3581,-3.2462,-3.1161,-2.8622,-2.4844,-2.0614,-1.9371,-1.7687,-1.5624,-1.3738,-1.29,-1.2872,-1.2662,-1.2232,-1.174,-1.1654,-1.1778,-1.1915,-1.1368,-1.123,-1.1368,-1.1503,-1.1481,-1.1481,-1.1567,-1.1313,-1.0845,-1.0941,-1.0452,-0.9379,-0.8392,-0.794,-0.7944,-0.7561,-0.733,-0.718,-0.733,-0.7173,-0.6795,-0.6949,-0.6795,-0.6472,-0.6069,-0.5744,-0.5661,-0.5208,-0.4771,-0.4408,-0.3899,-0.3482,-0.295,-0.2213,-0.1812,-0.1811,-0.1344,-0.1076,-0.1076,-0.1076,-0.1076,-0.1076,-0.1076,-0.121,-0.1344,-0.142,-0.1698,-0.2181,-0.1949,-0.2127,-0.2788,-0.2999,-0.2741,-0.2276,-0.1647,-0.1213,-0.1224,-0.1089,-0.0628,0.0,0.0784,0.1723,0.2976,0.4153,0.5018,0.5018,0.5018,0.5018,0.5018,0.5018,0.5171,0.5321,0.5631,0.6093,0.7092,0.808,0.8685,0.8912,0.9976,1.0962,1.1117,1.1117,1.1117,1.1154,1.1582,1.192,1.1974,1.2409,1.2656,1.2693,1.2705,1.279,1.279,1.296,1.3209,1.3886,1.3977,1.4552,-3.3721,-3.3006,-2.9231,-2.6447,-2.4653,-2.0728,-1.8812,-1.788,-1.4546,-1.2966,-1.29,-1.2879,-1.2858,-1.2708,-1.22,-1.2133,-1.2337,-1.1408,-1.1138,-1.1503,-1.173,-1.1773,-1.165,-1.1833,-1.1421,-1.0615,-1.049,-0.9702,-0.8286,-0.7242,-0.6872,-0.7261,-0.7096,-0.7019,-0.7103,-0.7019,-0.7022,-0.7026,-0.6795,-0.6637,-0.6633,-0.5764,-0.5457,-0.5615,-0.4306,-0.3781,-0.4173,-0.2993,-0.2217,-0.2149,-0.1548,-0.1144,-0.1142,-0.1143,-0.1076,-0.1076,-0.1076,-0.1076,-0.1078,-0.108,-0.1349,-0.189,-0.193,-0.2372,-0.2934,-0.286,-0.2707,-0.2401,-0.2401,-0.2334,-0.2187,-0.1592,-0.1149,-0.1092,-0.0548,-0.0,0.0392,0.1647,0.2508,0.321,0.4231,0.494,0.5018,0.5018,0.5018,0.5018,0.5018,0.5323,0.6086,0.6398,0.6938,0.7851,0.8841,0.9604,0.9836,1.0513,1.0962,1.1117,1.1117,1.1117,1.1292,1.1492,1.1739,1.2017,1.2373,1.2596,1.2668,1.279,1.2881,1.3045,1.3542,1.3964,1.4384,1.5372,1.5951,-3.3277,-3.1672,-2.9712,-2.65,-2.268,-2.1884,-1.9617,-1.6166,-1.5246,-1.406,-1.3039,-1.29,-1.2673,-1.2358,-1.2525,-1.2785,-1.3006,-1.2063,-1.1768,-1.1997,-1.2098,-1.2144,-1.2012,-1.1501,-1.1013,-1.049,-0.982,-0.9221,-0.8542,-0.7706,-0.7403,-0.748,-0.7096,-0.6945,-0.7022,-0.6942,-0.6868,-0.6795,-0.6247,-0.5857,-0.5622,-0.4375,-0.3966,-0.4548,-0.3812,-0.3281,-0.3011,-0.2485,-0.1965,-0.1519,-0.1242,-0.1096,-0.1078,-0.1076,-0.1076,-0.1077,-0.1093,-0.1105,-0.1107,-0.1123,-0.1275,-0.1488,-0.1571,-0.1867,-0.2305,-0.2204,-0.2021,-0.2193,-0.1845,-0.1704,-0.1628,-0.1396,-0.0933,-0.0156,0.0,0.0548,0.1645,0.2507,0.3134,0.3837,0.4621,0.5018,0.5018,0.5018,0.5018,0.5018,0.5018,0.5476,0.624,0.6553,0.7246,0.8613,0.9367,0.99,1.0663,1.0812,1.1117,1.1117,1.1117,1.1117,1.1226,1.1431,1.1667,1.2092,1.2365,1.2536,1.2614,1.2869,1.296,1.3307,1.3802,1.4706,1.488,1.5951,1.669,-3.3307,-3.1385,-3.035,-2.7103,-2.275,-2.2943,-2.0211,-1.5632,-1.573,-1.4751,-1.3178,-1.29,-1.2526,-1.215,-1.2452,-1.2673,-1.2826,-1.2372,-1.2231,-1.2224,-1.2305,-1.2224,-1.2003,-1.1162,-1.0415,-0.9814,-0.8689,-0.8093,-0.7863,-0.748,-0.7169,-0.693,-0.6784,-0.671,-0.6553,-0.671,-0.6637,-0.6247,-0.578,-0.5231,-0.4613,-0.3441,-0.2974,-0.3279,-0.3006,-0.2646,-0.2287,-0.2047,-0.1662,-0.121,-0.1136,-0.1126,-0.1108,-0.1105,-0.1105,-0.1108,-0.1125,-0.1136,-0.1138,-0.1155,-0.1166,-0.1167,-0.1176,-0.1402,-0.1772,-0.151,-0.1529,-0.1768,-0.1631,-0.1336,-0.1336,-0.1335,-0.0707,0.047,0.0548,0.1175,0.2974,0.3366,0.3837,0.4387,0.4781,0.5018,0.5018,0.5018,0.5018,0.5018,0.5168,0.578,0.6777,0.7242,0.7931,0.9599,0.9906,1.0276,1.0732,1.1037,1.1117,1.1117,1.1117,1.1117,1.1166,1.1371,1.175,1.2105,1.2382,1.248,1.2656,1.2923,1.3209,1.3555,1.4545,1.5621,1.6116,1.6609,1.7432,-3.3828,-3.2625,-3.1315,-2.8631,-2.5226,-2.3903,-2.083,-1.7166,-1.6191,-1.4822,-1.3039,-1.29,-1.2526,-1.2077,-1.2083,-1.1855,-1.1706,-1.215,-1.2224,-1.2003,-1.2077,-1.2003,-1.1706,-1.0714,-0.9669,-0.8618,-0.7099,-0.6412,-0.6412,-0.6331,-0.6015,-0.5616,-0.6089,-0.6012,-0.5544,-0.6012,-0.617,-0.5625,-0.5231,-0.4763,-0.4066,-0.313,-0.2585,-0.2431,-0.1802,-0.1782,-0.2347,-0.1705,-0.1246,-0.1241,-0.1166,-0.1167,-0.1159,-0.1158,-0.1162,-0.1159,-0.1165,-0.1166,-0.1167,-0.1171,-0.1176,-0.118,-0.1198,-0.1212,-0.1291,-0.1314,-0.1331,-0.1409,-0.1333,-0.1336,-0.1336,-0.1336,-0.0706,0.0549,0.1096,0.1958,0.3604,0.4309,0.4543,0.4859,0.5018,0.5018,0.5018,0.5018,0.5018,0.5249,0.5705,0.6546,0.7698,0.8237,0.9226,1.0432,1.0588,1.0507,1.0812,1.1117,1.1117,1.1117,1.1117,1.1117,1.1228,1.138,1.203,1.2459,1.2675,1.2787,1.3115,1.3372,1.3957,1.4461,1.5621,1.6527,1.7017,1.7513,1.8175,-3.402,-3.3215,-3.2482,-3.0086,-2.679,-2.526,-2.2196,-1.8257,-1.7051,-1.5114,-1.3178,-1.29,-1.2372,-1.1632,-1.1781,-1.1632,-1.126,-1.1471,-1.1471,-1.1335,-1.126,-1.1484,-1.1403,-0.9814,-0.8232,-0.7176,-0.6567,-0.5944,-0.5473,-0.5395,-0.5004,-0.4453,-0.453,-0.4533,-0.4375,-0.453,-0.453,-0.43,-0.3679,-0.321,-0.2978,-0.2196,-0.1727,-0.1649,-0.1414,-0.1408,-0.1631,-0.1388,-0.1295,-0.1198,-0.1198,-0.1189,-0.1172,-0.1166,-0.1166,-0.1168,-0.1187,-0.1198,-0.12,-0.1217,-0.1303,-0.1306,-0.1238,-0.1243,-0.1243,-0.1329,-0.1336,-0.1336,-0.1336,-0.1336,-0.1336,-0.1336,-0.0471,0.133,0.1566,0.2272,0.3917,0.4384,0.4621,0.4937,0.5018,0.5018,0.5018,0.5018,0.5249,0.5709,0.6089,0.6934,0.8385,0.877,0.9301,1.0657,1.0582,1.0663,1.0962,1.1117,1.1186,1.1192,1.1192,1.1117,1.1228,1.1583,1.224,1.2797,1.3013,1.3251,1.351,1.4041,1.4622,1.5289,1.6288,1.7025,1.7683,1.8256,1.8754,-2.9096,-2.8896,-3.1919,-3.1146,-2.7817,-2.6065,-2.2864,-1.9028,-1.7129,-1.5114,-1.3178,-1.2291,-1.1626,-1.0732,-1.0409,-0.9948,-0.9497,-0.9637,-0.9637,-0.9653,-1.0126,-1.0507,-1.0645,-0.8519,-0.7088,-0.6335,-0.5944,-0.5553,-0.5004,-0.4927,-0.4457,-0.3521,-0.3597,-0.3599,-0.3443,-0.3599,-0.3675,-0.3287,-0.2821,-0.2354,-0.2041,-0.157,-0.1336,-0.1336,-0.1336,-0.1336,-0.1336,-0.1336,-0.1249,-0.1232,-0.1228,-0.1218,-0.1202,-0.1201,-0.12,-0.1204,-0.1216,-0.1228,-0.1231,-0.1245,-0.1336,-0.1336,-0.1336,-0.1336,-0.1336,-0.1336,-0.1336,-0.1336,-0.1336,-0.1335,-0.1256,-0.0863,0.0157,0.1876,0.188,0.2508,0.3919,0.4465,0.4623,0.4937,0.5018,0.5018,0.5018,0.5323,0.5631,0.6167,0.678,0.7468,0.8917,0.9231,1.0056,1.0663,1.0738,1.0887,1.1043,1.1186,1.126,1.1335,1.1341,1.1192,1.1129,1.1745,1.2397,1.3256,1.36,1.3926,1.4282,1.4928,1.5621,1.6281,1.687,1.7529,1.8103,1.8505,1.8913,-1.9738,-2.056,-2.9158,-3.0452,-2.7468,-2.6032,-2.3281,-1.935,-1.7044,-1.4977,-1.3004,-1.1694,-1.0651,-0.9679,-0.8742,-0.774,-0.6827,-0.7126,-0.7279,-0.7359,-0.8058,-0.8675,-0.8447,-0.6912,-0.6153,-0.5864,-0.524,-0.4846,-0.4535,-0.4616,-0.4068,-0.2665,-0.3052,-0.3209,-0.2665,-0.3209,-0.313,-0.251,-0.2353,-0.1962,-0.1414,-0.1336,-0.1257,-0.1178,-0.1257,-0.1178,-0.0942,-0.0864,-0.1021,-0.1177,-0.1096,-0.1016,-0.1097,-0.1178,-0.0938,-0.0936,-0.1098,-0.1019,-0.1099,-0.0863,-0.0864,-0.0785,-0.0864,-0.11,-0.0864,-0.0785,-0.0785,-0.0864,-0.0864,-0.0942,-0.0784,-0.0078,0.1251,0.2499,0.2741,0.3059,0.4079,0.4548,0.4781,0.494,0.5018,0.5018,0.5171,0.5783,0.6163,0.6777,0.7774,0.8613,0.9372,0.9906,1.0438,1.0663,1.0893,1.0893,1.1037,1.1564,1.1632,1.1781,1.1855,1.1922,1.1887,1.2439,1.311,1.3824,1.4396,1.4741,1.5151,1.5741,1.6363,1.7033,1.7529,1.8031,1.8442,1.8763,1.8993,-0.9517,-0.997,-1.907,-2.2152,-2.1622,-2.49,-2.4932,-2.1768,-1.8585,-1.5085,-1.31,-1.207,-1.0795,-0.9836,-0.8742,-0.7897,-0.69,-0.5973,-0.5668,-0.5597,-0.5295,-0.5372,-0.5529,-0.5369,-0.4985,-0.4533,-0.4142,-0.3756,-0.3212,-0.3132,-0.2586,-0.1649,-0.1803,-0.1883,-0.1727,-0.1804,-0.1883,-0.1649,-0.1571,-0.1492,-0.1257,-0.1257,-0.0942,-0.0392,-0.0941,-0.0549,0.047,0.0627,0.0313,-0.0313,-0.0314,-0.0,0.0392,0.047,0.047,0.047,0.0549,0.0549,0.0549,0.0549,0.0627,0.0862,0.0627,0.0862,0.0862,0.0784,0.0784,0.0706,0.0706,0.0627,0.0548,0.1486,0.3363,0.5488,0.4779,0.4231,0.4626,0.4701,0.4781,0.494,0.5018,0.5323,0.5783,0.6163,0.6777,0.7855,0.8618,0.9306,0.9981,1.0257,1.0657,1.0836,1.0974,1.0968,1.1186,1.1713,1.2083,1.2298,1.2586,1.3091,1.325,1.3807,1.4396,1.5119,1.545,1.5725,1.6036,1.6527,1.7115,1.761,1.7942,1.8362,1.8603,1.8922,1.8993,0.1897,0.0654,-0.98,-1.4437,-1.5138,-1.8555,-1.9076,-1.7061,-1.3942,-1.1391,-0.9712,-0.9579,-0.8925,-0.7804,-0.695,-0.6113,-0.5274,-0.4042,-0.3424,-0.3191,-0.2728,-0.3124,-0.3671,-0.3583,-0.3037,-0.3279,-0.2577,-0.1954,-0.1487,-0.1487,-0.1019,-0.0314,-0.0235,-0.0157,-0.0157,-0.0235,-0.0235,-0.0235,-0.0235,-0.0235,-0.0235,-0.0235,0.0,0.0392,0.0078,0.0627,0.2038,0.1724,0.1018,0.0627,0.0548,0.0783,0.1254,0.1332,0.1332,0.1332,0.1332,0.1254,0.1332,0.1332,0.141,0.1488,0.1567,0.1488,0.1488,0.1567,0.141,0.141,0.1567,0.1878,0.2656,0.4057,0.5547,0.6419,0.6254,0.5783,0.5718,0.5174,0.509,0.5321,0.5553,0.5783,0.6619,0.7007,0.7774,0.8694,0.9155,0.9836,1.0519,1.0598,1.0836,1.1211,1.1405,1.1542,1.1771,1.226,1.3008,1.3207,1.3608,1.4114,1.4302,1.4773,1.5119,1.5618,1.6272,1.6675,1.6774,1.7033,1.7456,1.7951,1.8282,1.8523,1.8683,1.8922,1.8993,1.3797,1.1308,-0.0306,-0.6129,-0.7134,-0.8325,-0.9197,-0.8505,-0.6203,-0.5,-0.5156,-0.5749,-0.5768,-0.4714,-0.4173,-0.3107,-0.2261,-0.1561,-0.1015,-0.0624,-0.0468,-0.1014,-0.2418,-0.1249,-0.1092,-0.1638,-0.0468,0.0078,0.0312,0.0312,0.0703,0.1252,0.1409,0.1488,0.1408,0.1409,0.1487,0.1409,0.1409,0.1409,0.1409,0.1408,0.1565,0.1799,0.2034,0.2504,0.3214,0.282,0.1957,0.1801,0.1567,0.1567,0.1567,0.1645,0.1645,0.1802,0.1958,0.1958,0.1801,0.2035,0.2112,0.2347,0.2268,0.1878,0.2423,0.2579,0.2501,0.2659,0.219,0.3355,0.4673,0.6853,0.7322,0.7096,0.7161,0.7173,0.6802,0.5948,0.5553,0.6163,0.6314,0.6777,0.7464,0.8232,0.878,0.9392,0.9878,1.0492,1.1006,1.1207,1.1516,1.1874,1.2104,1.2205,1.2544,1.2851,1.3689,1.4343,1.48,1.5158,1.4961,1.5251,1.5525,1.5964,1.6707,1.7029,1.7106,1.7448,1.787,1.804,1.8282,1.8442,1.8523,1.8843,1.9002,2.4829,2.3458,1.3962,0.9839,0.8356,0.1991,-0.2089,-0.3278,-0.2262,-0.2042,-0.3997,-0.4128,-0.3526,-0.2774,-0.1774,-0.132,-0.039,0.0391,0.0783,0.1018,0.211,0.1795,0.0623,0.0859,0.0625,0.0781,0.1015,0.164,0.2106,0.2414,0.257,0.2728,0.2963,0.273,0.2807,0.2807,0.2728,0.2728,0.2728,0.273,0.273,0.2807,0.3044,0.3591,0.4139,0.4686,0.5002,0.4844,0.4683,0.4297,0.3287,0.2665,0.3054,0.3212,0.321,0.3366,0.368,0.3759,0.3759,0.4297,0.5068,0.4756,0.4833,0.5375,0.5452,0.522,0.522,0.5381,0.569,0.5915,0.6685,0.731,0.7778,0.7931,0.7774,0.7774,0.794,0.7472,0.7007,0.7157,0.7234,0.7544,0.8313,0.8542,0.9165,0.9938,1.0644,1.1242,1.1599,1.1948,1.2387,1.2851,1.3055,1.326,1.3383,1.3787,1.4425,1.5,1.5468,1.5899,1.5627,1.5821,1.6138,1.6621,1.7352,1.7473,1.7432,1.7619,1.7951,1.8121,1.8201,1.8451,1.8612,1.8843,1.9002,3.0238,2.8833,2.2916,1.9973,1.827,1.2309,0.8345,0.6881,0.6972,0.5653,0.3379,0.2505,0.1936,0.1822,0.1899,0.2063,0.209,0.2652,0.2737,0.2659,0.3439,0.3824,0.374,0.3195,0.3041,0.312,0.3124,0.3744,0.4438,0.474,0.4966,0.5269,0.5046,0.49,0.4745,0.4436,0.4288,0.4288,0.4285,0.4285,0.4288,0.4288,0.4365,0.4838,0.5306,0.5622,0.6419,0.6022,0.578,0.5389,0.4611,0.4146,0.4538,0.4616,0.4693,0.5004,0.5162,0.5467,0.5619,0.6002,0.6384,0.6542,0.6615,0.6692,0.6773,0.6692,0.6692,0.67,0.693,0.7391,0.8003,0.8537,0.877,0.8618,0.8694,0.8694,0.8546,0.8003,0.7693,0.7927,0.808,0.8466,0.8927,0.9306,0.9922,1.0848,1.1417,1.2024,1.2993,1.3311,1.3591,1.3968,1.4195,1.4344,1.4436,1.4695,1.5178,1.5501,1.5672,1.5968,1.6067,1.6408,1.6809,1.7235,1.7552,1.7852,1.787,1.8031,1.8031,1.8112,1.8201,1.8451,1.8692,1.8851,1.9002,3.2718,3.1386,2.8941,2.7078,2.5408,2.2484,1.965,1.7645,1.7665,1.4716,1.2429,1.0114,0.8045,0.747,0.6718,0.6027,0.5585,0.5564,0.5573,0.4889,0.5585,0.605,0.6203,0.62,0.6116,0.5269,0.5363,0.6066,0.6758,0.7141,0.7351,0.796,0.7588,0.7061,0.6915,0.6465,0.6002,0.5848,0.5851,0.5851,0.5851,0.5851,0.5851,0.5851,0.5851,0.6167,0.6964,0.6806,0.6328,0.5935,0.5931,0.6009,0.5931,0.5777,0.5857,0.616,0.624,0.6468,0.6692,0.7,0.7387,0.7391,0.7387,0.731,0.7468,0.754,0.754,0.7544,0.7855,0.8156,0.8851,0.9458,0.9533,0.9306,0.9609,0.9609,0.9079,0.838,0.8533,0.8694,0.9074,0.9528,0.9906,1.0357,1.1055,1.1721,1.2246,1.2993,1.3916,1.4535,1.4794,1.5124,1.5331,1.5427,1.5496,1.5295,1.5766,1.5837,1.5857,1.6045,1.6349,1.661,1.6944,1.7209,1.7509,1.7834,1.8031,1.8031,1.8031,1.8031,1.8121,1.8362,1.8531,1.8851,1.9002,3.3948,3.3743,3.3184,3.2871,3.2654,3.2003,2.83,2.3985,2.2909,1.9571,1.4737,1.3483,1.252,1.1385,1.1119,1.0394,0.9395,0.915,0.8866,0.8351,0.875,0.9065,0.914,0.9225,0.9681,0.9675,0.8779,0.8344,0.8893,0.9205,0.9417,0.9578,0.9357,0.9054,0.8533,0.8161,0.7702,0.7318,0.7246,0.7242,0.7242,0.7242,0.7084,0.7084,0.6927,0.7246,0.7484,0.7411,0.7253,0.7173,0.748,0.7638,0.7553,0.6853,0.6468,0.6549,0.7169,0.7468,0.7468,0.8237,0.8546,0.8623,0.8623,0.878,0.8856,0.8851,0.877,0.8927,0.9155,0.9533,0.969,1.0288,1.0288,1.0067,1.0212,1.0519,1.0357,1.0201,0.997,0.9906,1.0212,1.0507,1.0807,1.1279,1.1938,1.2689,1.3335,1.4326,1.5444,1.5651,1.5665,1.6016,1.6382,1.6555,1.6623,1.6196,1.6118,1.5965,1.6011,1.6156,1.6396,1.6687,1.6987,1.7372,1.7646,1.792,1.8031,1.8031,1.8031,1.8031,1.8121,1.8201,1.8531,1.878,1.9002,3.4651,3.4795,3.481,3.4808,3.4798,3.4598,3.194,2.7938,2.7153,2.4148,2.0321,1.8712,1.7242,1.5531,1.4963,1.4097,1.2799,1.2012,1.1781,1.1708,1.1661,1.178,1.1786,1.1825,1.2138,1.2357,1.1685,1.1101,1.1211,1.0983,1.1218,1.1452,1.1019,1.0276,0.99,0.9448,0.9145,0.8765,0.8765,0.8765,0.877,0.8689,0.8452,0.7825,0.8134,0.8447,0.8765,0.9241,0.9236,0.9069,0.9221,0.9296,0.914,0.8908,0.8376,0.8008,0.8318,0.8627,0.8623,0.9311,0.9463,0.9387,0.9544,0.962,0.9625,0.962,0.9765,1.0067,1.0218,1.0519,1.0812,1.1111,1.0962,1.0663,1.0887,1.1111,1.1037,1.1329,1.1323,1.1174,1.1254,1.1397,1.1613,1.219,1.2817,1.3586,1.4439,1.549,1.6727,1.6766,1.6632,1.6927,1.722,1.7154,1.7098,1.6798,1.6473,1.6302,1.637,1.6508,1.6793,1.7147,1.7424,1.7715,1.7937,1.8031,1.8031,1.8031,1.8031,1.8031,1.8031,1.8201,1.854,1.878,1.8931,3.5046,3.5379,3.5321,3.5234,3.5049,3.4623,3.2898,3.0659,2.9945,2.7643,2.4442,2.367,2.1789,1.9328,1.8108,1.7166,1.5513,1.4895,1.4915,1.4751,1.4371,1.4348,1.4426,1.4253,1.4221,1.4688,1.4767,1.4355,1.3186,1.275,1.2983,1.307,1.2285,1.1694,1.1459,1.1075,1.0628,1.0398,1.0329,1.0329,1.0196,1.004,0.9487,0.8245,0.9015,0.9814,1.0553,1.0703,1.0611,1.0357,1.0346,1.0571,1.0645,1.1025,1.0738,0.9992,0.9765,0.9916,0.9916,1.0067,1.0067,1.0062,1.0062,1.0143,1.0293,1.0443,1.0513,1.0887,1.1037,1.1111,1.1484,1.1848,1.1694,1.1403,1.162,1.1916,1.1916,1.2131,1.2638,1.2572,1.2358,1.2445,1.2659,1.3283,1.403,1.4774,1.5589,1.6242,1.7321,1.7586,1.761,1.7802,1.7949,1.7672,1.751,1.7132,1.6807,1.6679,1.6907,1.7116,1.7392,1.7682,1.7909,1.8117,1.7971,1.8031,1.8031,1.8031,1.8031,1.8031,1.8031,1.8201,1.8531,1.878,1.8851,3.528,3.5697,3.5173,3.5009,3.4988,3.4362,3.3117,3.1568,3.0526,2.8974,2.6711,2.6309,2.4693,2.231,2.052,1.9717,1.9117,1.869,1.8231,1.7858,1.7437,1.7301,1.7572,1.7281,1.6821,1.6945,1.7111,1.6,1.4854,1.4426,1.4299,1.4378,1.4299,1.3867,1.3252,1.2961,1.259,1.2058,1.1985,1.1649,1.1105,1.1001,1.045,1.0077,1.0421,1.1247,1.1983,1.1883,1.1291,1.0801,1.0956,1.1031,1.1111,1.1403,1.1558,1.1484,1.1335,1.1186,1.0812,1.0663,1.0669,1.0663,1.0743,1.0962,1.1111,1.126,1.1335,1.1552,1.1558,1.1706,1.2003,1.2579,1.2572,1.2572,1.2579,1.3018,1.3157,1.3084,1.3593,1.3954,1.3745,1.371,1.3805,1.4502,1.5221,1.6019,1.6679,1.7265,1.7783,1.8026,1.8273,1.839,1.8364,1.818,1.7909,1.7518,1.7491,1.7216,1.7534,1.7836,1.8168,1.8404,1.8485,1.8593,1.8372,1.8273,1.8425,1.8345,1.8112,1.8112,1.8201,1.8362,1.8612,1.8772,1.8851,3.5496,3.5718,3.54,3.5154,3.4999,3.4615,3.3573,3.2257,3.1551,3.0052,2.8217,2.7573,2.5877,2.3359,2.13,2.0651,2.0737,2.0801,2.0737,2.0437,2.0051,1.9846,1.963,1.938,1.9083,1.8783,1.8736,1.8335,1.7073,1.6184,1.5843,1.5834,1.5826,1.5651,1.5159,1.4901,1.4538,1.4173,1.3822,1.3491,1.3164,1.2638,1.2024,1.1335,1.17,1.2446,1.2938,1.2836,1.2399,1.207,1.2298,1.2452,1.2452,1.2599,1.2746,1.2746,1.2673,1.2224,1.1477,1.1168,1.1168,1.1341,1.1496,1.1651,1.1713,1.1781,1.1929,1.215,1.2224,1.2372,1.2673,1.3324,1.3237,1.3237,1.36,1.3745,1.4034,1.4394,1.4617,1.4832,1.5158,1.5049,1.5098,1.5569,1.6055,1.6451,1.7105,1.7586,1.8065,1.839,1.8594,1.8834,1.8727,1.8514,1.8268,1.7961,1.8282,1.8252,1.8559,1.8852,1.9034,1.9187,1.9224,1.9182,1.8948,1.8904,1.8895,1.8576,1.8353,1.8353,1.8362,1.8603,1.8843,1.8843,1.9002,3.5683,3.5682,3.5473,3.5265,3.4999,3.468,3.3809,3.2696,3.2201,3.0764,2.8905,2.7738,2.5959,2.4024,2.2372,2.1806,2.2027,2.2027,2.2101,2.2175,2.1978,2.1643,2.1369,2.1181,2.0726,2.0246,2.0224,1.976,1.917,1.8552,1.8006,1.7425,1.7279,1.725,1.7045,1.6591,1.6114,1.5781,1.5376,1.5125,1.4944,1.441,1.3658,1.3135,1.3157,1.3564,1.4061,1.3725,1.355,1.3542,1.3339,1.3339,1.3492,1.3477,1.363,1.363,1.3695,1.3404,1.2652,1.2198,1.1896,1.207,1.2466,1.276,1.2673,1.2372,1.2445,1.3032,1.3032,1.3258,1.363,1.4065,1.4114,1.4258,1.4482,1.4474,1.4609,1.518,1.5551,1.5726,1.6059,1.6425,1.6508,1.6707,1.6901,1.7105,1.7499,1.7969,1.8417,1.8975,1.9222,1.9539,1.9292,1.9204,1.9191,1.9003,1.9127,1.9178,1.9486,1.9784,1.9907,1.9915,1.9953,1.9756,1.9618,1.945,1.9432,1.8975,1.8514,1.8674,1.8763,1.8913,1.8993,1.9073,1.9152,3.5747,3.5662,3.5226,3.5096,3.5085,3.3895,3.3395,3.3198,3.2056,3.098,2.9502,2.7305,2.6105,2.5301,2.4297,2.3471,2.3318,2.3283,2.3305,2.3113,2.2871,2.2907,2.2774,2.2579,2.2139,2.1569,2.1444,2.1055,2.0651,2.0715,1.9955,1.9079,1.8982,1.888,1.8623,1.82,1.7531,1.7139,1.6802,1.6517,1.6184,1.5735,1.5242,1.4593,1.4895,1.5584,1.613,1.5095,1.453,1.4466,1.4122,1.4057,1.4266,1.4338,1.4418,1.4561,1.4625,1.4482,1.4171,1.3528,1.3164,1.3237,1.3535,1.392,1.384,1.3912,1.3985,1.3905,1.3905,1.3977,1.4266,1.4633,1.5046,1.5251,1.5542,1.5754,1.5886,1.6237,1.6542,1.6675,1.6953,1.7252,1.7715,1.785,1.7979,1.8108,1.8364,1.8831,1.9321,1.9835,2.0148,2.0304,2.007,2.007,2.0391,2.0275,1.9925,2.0003,2.0304,2.0544,2.073,2.0712,2.0401,2.0469,2.0313,2.0148,1.9982,1.9913,1.9687,1.9231,1.9082,1.9143,1.945,1.9687,1.9539,3.5774,3.5663,3.5232,3.5089,3.51,3.4315,3.3891,3.367,3.3003,3.19,3.0449,2.8167,2.696,2.6529,2.5439,2.4865,2.4794,2.4492,2.4452,2.454,2.4513,2.4297,2.415,2.3813,2.3636,2.2859,2.2677,2.2421,2.1954,2.2139,2.1954,2.1267,2.0887,2.0602,2.0291,1.9694,1.9023,1.8499,1.8385,1.8173,1.7748,1.7084,1.6697,1.6664,1.5463,1.5947,1.6237,1.5655,1.5463,1.5376,1.5092,1.5171,1.5251,1.533,1.5471,1.5613,1.5613,1.5683,1.5692,1.4991,1.4377,1.4369,1.4641,1.4911,1.4776,1.4489,1.4425,1.4497,1.4768,1.4966,1.5037,1.5675,1.6237,1.6376,1.6524,1.6881,1.7088,1.7295,1.737,1.7376,1.7638,1.7937,1.8441,1.8864,1.9021,1.9104,1.9409,1.9756,2.0216,2.0537,2.0769,2.0857,2.0615,2.0372,2.0615,2.0624,2.0537,2.0779,2.1021,2.1175,2.1262,2.0944,2.0789,2.0944,2.1088,2.0847,2.0769,2.1011,2.0702,2.0089,1.9696,1.945,1.9756,2.0148,2.007,3.5775,3.5669,3.5328,3.5181,3.5088,3.4545,3.4197,3.3954,3.3306,3.2124,3.0459,2.8607,2.7605,2.71,2.6105,2.555,2.555,2.5412,2.5273,2.5259,2.5204,2.5063,2.4738,2.4421,2.4099,2.37,2.3582,2.3318,2.304,2.3148,2.3002,2.2822,2.2725,2.2298,2.1678,2.1037,2.0322,1.9617,1.9375,1.9449,1.8927,1.8271,1.7842,1.7969,1.6978,1.6621,1.6806,1.6473,1.6237,1.6228,1.6149,1.6219,1.6367,1.6515,1.6515,1.6585,1.6655,1.6793,1.6673,1.6263,1.5601,1.5788,1.5771,1.5683,1.5338,1.5196,1.5401,1.5133,1.5542,1.5886,1.5956,1.6524,1.6872,1.6941,1.7364,1.7647,1.7784,1.793,1.7919,1.7966,1.8453,1.9014,1.9389,1.9912,1.9994,2.0082,2.0071,2.0469,2.0934,2.1175,2.1175,2.1252,2.1175,2.0934,2.0692,2.0857,2.1098,2.1175,2.1415,2.1568,2.1578,2.1262,2.1185,2.1339,2.1492,2.1405,2.1405,2.1405,2.1252,2.0867,2.0469,2.0138,2.0235,2.0624,2.0624,3.583,3.5685,3.5473,3.535,3.5176,3.4353,3.408,3.3968,3.28,3.1353,2.9897,2.8529,2.7788,2.7318,2.6657,2.6318,2.6226,2.5986,2.5837,2.5892,2.5783,2.5258,2.4991,2.4835,2.4765,2.4229,2.4157,2.4203,2.4086,2.4118,2.4034,2.3975,2.3872,2.3564,2.2955,2.1992,2.0853,1.9727,1.9727,1.9791,1.966,1.9222,1.905,1.8745,1.8377,1.8046,1.8046,1.7755,1.759,1.759,1.7111,1.7051,1.7267,1.7139,1.7217,1.7432,1.7442,1.7442,1.7382,1.7019,1.7019,1.6968,1.6802,1.6664,1.6594,1.6594,1.6446,1.6035,1.6515,1.6793,1.701,1.7226,1.7432,1.7706,1.8124,1.8259,1.8395,1.8472,1.8456,1.8666,1.9545,2.035,2.0589,2.0898,2.1014,2.1078,2.0934,2.1098,2.1568,2.1645,2.1568,2.1568,2.1492,2.1415,2.1252,2.1492,2.1655,2.1731,2.1731,2.1807,2.1807,2.1655,2.1655,2.1807,2.1731,2.1645,2.1655,2.1731,2.1568,2.1405,2.1231,2.0991,2.1011,2.1165,2.1385,3.5788,3.563,3.5469,3.5249,3.4962,3.4401,3.4165,3.3938,3.2764,3.1754,3.1099,3.0009,2.9403,2.8871,2.7856,2.7324,2.7419,2.664,2.651,2.6916,2.6721,2.6602,2.6269,2.5892,2.5714,2.5494,2.5287,2.5021,2.5077,2.5021,2.4821,2.4708,2.4808,2.4163,2.3135,2.2396,2.1966,2.1313,2.1187,2.1152,2.0699,2.0459,2.015,1.9955,1.9628,1.9486,1.9562,1.9201,1.9191,1.9191,1.8716,1.8613,1.869,1.8556,1.8385,1.8452,1.8529,1.8529,1.8529,1.8317,1.7978,1.7784,1.7647,1.7569,1.7226,1.7166,1.7088,1.7148,1.7491,1.7774,1.792,1.8327,1.8529,1.8596,1.8798,1.8798,1.8865,1.8942,1.8987,1.9428,2.0071,2.0762,2.1234,2.1463,2.1725,2.1787,2.1711,2.1482,2.1721,2.1731,2.1731,2.1731,2.1731,2.1731,2.1807,2.1807,2.1807,2.1807,2.1731,2.1807,2.1807,2.1807,2.1807,2.1807,2.1807,2.1807,2.1807,2.1807,2.1959,2.1863,2.1776,2.1766,2.1766,2.2231,2.2841,3.576,3.5607,3.5463,3.5189,3.4851,3.4383,3.408,3.3678,3.2805,3.2213,3.1645,3.0858,3.0302,2.9816,2.9071,2.837,2.8559,2.7864,2.7306,2.7725,2.7524,2.7188,2.6953,2.6834,2.6293,2.6187,2.6026,2.5769,2.5769,2.5673,2.5577,2.5646,2.5674,2.4964,2.4021,2.3564,2.3327,2.2847,2.2665,2.2652,2.2274,2.1968,2.1584,2.1135,2.0819,2.061,2.0643,2.0655,2.0696,2.0696,2.0515,2.015,2.0031,1.9781,1.933,1.9198,1.9065,1.9065,1.8998,1.8998,1.8596,1.8192,1.8395,1.8259,1.792,1.791,1.7852,1.7988,1.8452,1.8787,1.8988,1.9386,1.9584,1.9584,1.9483,1.9483,1.9751,1.9772,2.0293,2.0583,2.0786,2.1397,2.1816,2.205,2.2306,2.2392,2.2467,2.2241,2.1949,2.1949,2.1883,2.1807,2.1807,2.1807,2.1807,2.1807,2.1807,2.1807,2.1807,2.1807,2.1807,2.1807,2.1807,2.1807,2.1807,2.1807,2.1807,2.1807,2.2025,2.2252,2.2402,2.2392,2.2446,2.2979,2.3677,3.5714,3.5588,3.5477,3.5197,3.4832,3.4357,3.375,3.3068,3.3006,3.2297,3.1202,3.1159,3.068,2.9995,2.9673,2.9361,2.9012,2.8732,2.8415,2.8057,2.7795,2.7464,2.721,2.6886,2.6834,2.6558,2.6347,2.6467,2.6293,2.6361,2.6428,2.6443,2.6351,2.5797,2.5245,2.4851,2.4496,2.3917,2.3682,2.3682,2.3539,2.3408,2.2949,2.248,2.2067,2.1646,2.1444,2.1279,2.1141,2.1078,2.1026,2.073,2.042,2.0161,1.9715,1.9396,1.933,1.9386,1.9452,1.9518,1.9462,1.932,1.9253,1.8931,1.8731,1.8921,1.9044,1.911,1.9507,1.9835,2.0096,2.0355,2.0613,2.0453,2.0238,2.0424,2.0731,2.114,2.1742,2.2073,2.2084,2.2407,2.2392,2.2606,2.2968,2.3117,2.3117,2.3043,2.267,2.2176,2.2101,2.1807,2.1807,2.1807,2.1807,2.1807,2.1807,2.1807,2.1807,2.1807,2.1807,2.1807,2.1807,2.1807,2.1807,2.1807,2.1807,2.1959,2.2101,2.2402,2.2628,2.2852,2.2756,2.3287,2.3824,3.5733,3.5659,3.5534,3.5165,3.4634,3.4136,3.3734,3.3415,3.3129,3.2568,3.2004,3.1625,3.1206,3.0781,3.0309,3.0038,2.9761,2.9451,2.918,2.881,2.84,2.8352,2.8174,2.7845,2.776,2.7595,2.7494,2.7276,2.7225,2.7225,2.7159,2.7159,2.6916,2.6602,2.6351,2.6096,2.5245,2.461,2.4483,2.454,2.4553,2.4315,2.4081,2.3856,2.3423,2.3012,2.287,2.2531,2.247,2.2421,2.2039,2.1667,2.1604,2.1112,2.0613,2.0613,2.0549,2.0613,2.0688,2.0613,2.0484,2.0495,2.0549,2.0161,1.9966,2.0042,2.0291,2.0291,2.042,2.0741,2.1001,2.1152,2.1446,2.1445,2.1407,2.1604,2.1911,2.2274,2.2823,2.2908,2.3005,2.3184,2.3158,2.3475,2.3756,2.3829,2.3829,2.3756,2.3463,2.2968,2.2617,2.2317,2.2035,2.2035,2.1883,2.1883,2.1807,2.1807,2.1949,2.2101,2.209,2.2014,2.1883,2.1807,2.1807,2.1807,2.1807,2.1959,2.2101,2.2478,2.2777,2.3001,2.3224,2.3593,2.3824,3.5659,3.5492,3.5311,3.4961,3.442,3.4005,3.378,3.3643,3.3415,3.3001,3.2519,3.2144,3.1694,3.1196,3.0821,3.0518,3.0293,2.9995,2.9629,2.9104,2.9166,2.8764,2.8653,2.8589,2.8348,2.8299,2.8284,2.8107,2.8057,2.8042,2.7978,2.7864,2.7515,2.7276,2.7071,2.6707,2.6162,2.5563,2.5273,2.5218,2.5204,2.5218,2.526,2.5066,2.4741,2.4597,2.4394,2.393,2.3872,2.3826,2.3361,2.311,2.2737,2.2003,2.129,2.1239,2.1135,2.1187,2.1302,2.1302,2.1302,2.1451,2.1577,2.1428,2.1175,2.106,2.1135,2.1071,2.1388,2.1663,2.1832,2.195,2.2249,2.2526,2.2687,2.2911,2.3105,2.3364,2.3513,2.3615,2.3735,2.3956,2.4131,2.4409,2.4624,2.4707,2.4862,2.4933,2.4492,2.3841,2.3475,2.318,2.2681,2.2402,2.2252,2.2252,2.2327,2.2542,2.2894,2.2883,2.2596,2.2381,2.2327,2.2101,2.1807,2.1807,2.1959,2.1883,2.1959,2.2402,2.2703,2.2852,2.315,2.3593,2.3666,3.5496,3.5215,3.4959,3.4634,3.4203,3.3998,3.386,3.3807,3.3698,3.3321,3.2716,3.2504,3.1985,3.1372,3.1117,3.0902,3.0764,3.0559,3.0251,2.9303,2.9467,2.9332,2.9044,2.8573,2.8748,2.8653,2.8621,2.8653,2.8732,2.8732,2.8622,2.8574,2.8415,2.811,2.7665,2.7449,2.6975,2.6534,2.6283,2.6254,2.6336,2.6404,2.6351,2.6042,2.577,2.5646,2.5231,2.5007,2.5007,2.5007,2.4894,2.4513,2.3839,2.3119,2.236,2.22,2.2274,2.2384,2.2494,2.2482,2.2408,2.242,2.2297,2.2776,2.2886,2.2378,2.2253,2.2336,2.2648,2.2718,2.2838,2.325,2.3597,2.3931,2.4189,2.4254,2.4396,2.4541,2.4548,2.4555,2.4649,2.4791,2.5004,2.5217,2.5358,2.5523,2.5664,2.5804,2.5511,2.4779,2.4264,2.3963,2.3475,2.3054,2.3054,2.3054,2.3065,2.3276,2.361,2.3683,2.339,2.3117,2.2841,2.2692,2.2456,2.2176,2.2111,2.2035,2.2035,2.2413,2.2703,2.2777,2.3075,2.3519,2.374,3.5348,3.5225,3.4775,3.4498,3.4316,3.4074,3.3868,3.3726,3.3698,3.3321,3.2766,3.2537,3.2144,3.1504,3.1329,3.1196,3.1213,3.1078,3.1021,3.0642,3.0418,3.0021,2.9978,2.9377,2.9287,2.9257,2.9182,2.9013,2.9075,2.9121,2.9213,2.9198,2.8997,2.8543,2.8448,2.824,2.7799,2.7312,2.721,2.7019,2.6893,2.675,2.6621,2.6447,2.6326,2.6082,2.5728,2.5508,2.5398,2.53,2.53,2.5161,2.4966,2.4614,2.4443,2.4456,2.4168,2.4182,2.4292,2.4287,2.4373,2.4708,2.4952,2.5048,2.487,2.4039,2.3617,2.3717,2.3766,2.3788,2.3936,2.4442,2.4937,2.5228,2.5532,2.5618,2.5649,2.5586,2.555,2.5496,2.5499,2.5664,2.5804,2.5955,2.6176,2.6245,2.6245,2.6314,2.6371,2.5861,2.5134,2.4696,2.4181,2.3829,2.3841,2.3841,2.3852,2.3925,2.4192,2.4192,2.4192,2.3986,2.3706,2.3486,2.3265,2.2905,2.2542,2.2101,2.2252,2.2628,2.2628,2.2703,2.2927,2.3298,2.3593,3.5177,3.4958,3.4548,3.4316,3.4203,3.4099,3.3921,3.3726,3.3698,3.3408,3.2925,3.2603,3.2127,3.1596,3.1445,3.1406,3.1479,3.1423,3.1157,3.1061,3.1021,3.0625,3.0318,2.9962,2.9673,2.9512,2.9409,2.9305,2.9441,2.9457,2.9531,2.9621,2.9319,2.9182,2.9182,2.8732,2.8448,2.7963,2.7963,2.778,2.7444,2.7218,2.6937,2.6765,2.6698,2.6525,2.651,2.6297,2.6297,2.6176,2.6229,2.6,2.5877,2.5605,2.555,2.5384,2.5356,2.5689,2.5966,2.6204,2.6414,2.6705,2.6417,2.6096,2.6492,2.5747,2.5125,2.5215,2.4848,2.4836,2.4849,2.5269,2.5807,2.6207,2.6398,2.6509,2.6438,2.6282,2.6227,2.6183,2.6151,2.6164,2.6233,2.6233,2.6383,2.6396,2.6521,2.6589,2.6658,2.6739,2.6013,2.5499,2.4909,2.4636,2.4647,2.4647,2.4647,2.4707,2.485,2.4921,2.4921,2.4779,2.4564,2.4276,2.3986,2.3621,2.3191,2.282,2.2767,2.315,2.2927,2.2628,2.2927,2.3287,2.3593,3.484,3.4542,3.4293,3.4148,3.4049,3.4099,3.3972,3.3753,3.3726,3.3512,3.3142,3.2684,3.2179,3.1821,3.1521,3.1538,3.1538,3.1521,3.1274,3.114,3.0965,3.0828,3.0485,3.0005,2.9962,2.9935,2.9881,2.9941,3.0087,3.0044,3.0,3.0017,2.9886,2.971,2.938,2.9227,2.9028,2.8732,2.8591,2.8654,2.8174,2.7645,2.7306,2.7167,2.713,2.7144,2.7181,2.7233,2.7233,2.7167,2.7049,2.6826,2.6602,2.6443,2.6322,2.6176,2.6375,2.6671,2.6971,2.7269,2.7626,2.7709,2.7189,2.7267,2.775,2.7528,2.6948,2.6671,2.6301,2.6009,2.6087,2.6295,2.6803,2.717,2.7367,2.7351,2.7162,2.6905,2.6782,2.6782,2.6714,2.6658,2.6645,2.6589,2.6589,2.6602,2.6671,2.6726,2.6794,2.6807,2.6521,2.6151,2.5861,2.5652,2.5523,2.5441,2.537,2.5581,2.5652,2.5734,2.5734,2.5511,2.5288,2.4838,2.4552,2.4348,2.4131,2.3829,2.3852,2.3728,2.3497,2.3265,2.3706,2.3998,2.3863,3.403,3.4269,3.4221,3.4179,3.4173,3.4173,3.4049,3.3868,3.386,3.355,3.3142,3.2975,3.2636,3.2214,3.1765,3.1634,3.1746,3.1691,3.1671,3.1579,3.1355,3.1201,3.0988,3.0714,3.0608,3.0584,3.0584,3.0804,3.0576,3.0576,3.0617,3.0518,3.0189,3.006,3.006,2.987,2.9677,2.9377,2.9196,2.9196,2.8795,2.8255,2.7864,2.763,2.7473,2.7386,2.7386,2.7488,2.7473,2.7473,2.7423,2.7321,2.7203,2.7115,2.7026,2.7179,2.7384,2.7847,2.8184,2.8565,2.8963,2.949,2.9174,2.8978,2.9223,2.912,2.8809,2.8747,2.8388,2.7714,2.7705,2.7926,2.8416,2.8387,2.8514,2.8276,2.8012,2.7497,2.7188,2.7121,2.7053,2.6985,2.6973,2.6985,2.7066,2.7066,2.7066,2.7134,2.7188,2.7146,2.7024,2.6807,2.6577,2.6589,2.644,2.6164,2.6151,2.6371,2.6371,2.6233,2.6164,2.6314,2.6013,2.5569,2.5288,2.5087,2.4933,2.4779,2.448,2.4276,2.4131,2.4047,2.448,2.4659,2.455]}]]